[[{"header":{"parameterUnit":"m.s-1","parameterCategory":1,"la1":30.6,"la2":29.2853,"lo1":-89.7004,"lo2":-87.6739,"dx":0.0162,"dy":0.0183,"nx":112,"ny":82,"refTime":"2022-11-09T18:00:00:Z","depth":0,"parameterNumber":2,"parameterNumberName":"U-component_of_WINDS"},"data":[0.0,0.0,0.0,0.0,0.0,0.0,0.0,0.0,0.0,0.0,0.0,0.0,0.0,0.0,0.0,0.0,0.0,0.0,0.0,0.0,0.0,0.0,0.0,0.0,0.0,0.0,0.0,0.0,0.0,0.0,0.0,0.0,0.0,0.0,0.0,0.0,0.0,0.0,0.0,0.0,0.0,0.0,0.0,0.0,0.0,0.0,0.0,0.0,0.0,0.0,0.0,0.0,0.0,0.0,0.0,0.0,0.0,0.0,0.0,0.0,0.0,0.0,0.0,0.0,0.0,0.0,0.0,0.0,0.0,0.0,0.0,0.0,0.0,0.0,0.0,0.0,0.0,0.0,0.0,0.0,0.0,0.0,0.0,0.0,0.0,0.0,0.0,0.0,0.0,0.0,5.1484,5.332,5.5469,5.6797,5.6797,5.668,5.4805,5.0664,0.0,0.0,0.0,0.0,0.0,0.0,0.0,0.0,0.0,0.0,0.0,0.0,0.0,0.0,0.0,0.0,0.0,0.0,0.0,0.0,0.0,0.0,0.0,0.0,0.0,0.0,0.0,0.0,0.0,0.0,0.0,0.0,0.0,0.0,0.0,0.0,0.0,0.0,0.0,0.0,0.0,0.0,0.0,0.0,0.0,0.0,0.0,0.0,0.0,0.0,0.0,0.0,0.0,0.0,0.0,0.0,0.0,0.0,0.0,0.0,0.0,0.0,0.0,0.0,0.0,0.0,0.0,0.0,0.0,0.0,0.0,0.0,0.0,0.0,0.0,0.0,0.0,0.0,0.0,0.0,0.0,0.0,0.0,0.0,0.0,0.0,0.0,0.0,0.0,0.0,0.0,0.0,0.0,0.0,0.0,0.0,0.0,0.0,0.0,0.0,0.0,0.0,0.0,0.0,5.0469,5.6484,5.7461,5.7695,5.7695,5.7031,5.5078,5.1445,0.0,0.0,0.0,0.0,0.0,0.0,0.0,0.0,0.0,0.0,0.0,0.0,0.0,0.0,0.0,0.0,0.0,0.0,0.0,0.0,0.0,0.0,0.0,0.0,0.0,0.0,0.0,0.0,0.0,0.0,0.0,0.0,0.0,0.0,0.0,0.0,0.0,0.0,0.0,0.0,0.0,0.0,0.0,0.0,0.0,0.0,0.0,0.0,0.0,0.0,0.0,0.0,0.0,0.0,0.0,0.0,0.0,0.0,0.0,0.0,0.0,0.0,0.0,0.0,0.0,0.0,0.0,0.0,0.0,0.0,0.0,0.0,0.0,0.0,0.0,0.0,0.0,0.0,0.0,0.0,0.0,0.0,0.0,0.0,0.0,0.0,0.0,0.0,0.0,0.0,0.0,0.0,0.0,0.0,0.0,0.0,0.0,0.0,0.0,0.0,0.0,0.0,0.0,5.0742,5.3516,5.8125,5.8594,5.8398,5.793,5.7539,5.543,5.1016,4.7969,0.0,0.0,0.0,0.0,0.0,0.0,0.0,0.0,0.0,0.0,0.0,0.0,0.0,0.0,0.0,0.0,0.0,0.0,0.0,0.0,0.0,0.0,0.0,0.0,0.0,0.0,0.0,0.0,0.0,0.0,0.0,0.0,0.0,0.0,0.0,0.0,0.0,0.0,0.0,0.0,0.0,0.0,0.0,0.0,0.0,0.0,0.0,0.0,0.0,0.0,0.0,0.0,0.0,0.0,0.0,0.0,0.0,0.0,0.0,0.0,0.0,0.0,0.0,0.0,0.0,0.0,0.0,0.0,0.0,0.0,0.0,0.0,0.0,0.0,0.0,0.0,0.0,0.0,0.0,0.0,0.0,0.0,0.0,0.0,0.0,0.0,0.0,0.0,0.0,0.0,0.0,0.0,0.0,0.0,0.0,0.0,0.0,0.0,0.0,0.0,0.0,0.0,5.539,5.75,5.9297,5.9492,5.9219,5.8555,5.8125,5.5781,5.0781,4.7851,0.0,0.0,0.0,0.0,0.0,0.0,0.0,0.0,0.0,0.0,0.0,0.0,0.0,0.0,0.0,0.0,0.0,0.0,0.0,0.0,0.0,0.0,0.0,0.0,0.0,0.0,0.0,0.0,0.0,0.0,0.0,0.0,0.0,0.0,0.0,0.0,0.0,0.0,0.0,0.0,0.0,0.0,0.0,0.0,0.0,0.0,0.0,0.0,0.0,0.0,0.0,0.0,0.0,0.0,0.0,0.0,0.0,0.0,0.0,0.0,0.0,0.0,0.0,0.0,0.0,0.0,0.0,0.0,0.0,0.0,0.0,0.0,0.0,0.0,0.0,0.0,0.0,0.0,0.0,0.0,0.0,0.0,0.0,0.0,0.0,0.0,0.0,0.0,0.0,0.0,0.0,0.0,0.0,0.0,0.0,0.0,0.0,0.0,0.0,0.0,0.0,0.0,5.7226,6.1015,6.039,6.0312,6.0273,6.0234,5.8789,5.6015,5.1601,4.8164,0.0,0.0,0.0,0.0,0.0,0.0,0.0,0.0,0.0,0.0,0.0,0.0,0.0,0.0,0.0,0.0,0.0,0.0,0.0,0.0,0.0,0.0,0.0,0.0,0.0,0.0,0.0,0.0,0.0,0.0,0.0,0.0,0.0,0.0,0.0,0.0,0.0,0.0,0.0,0.0,0.0,0.0,0.0,0.0,0.0,0.0,0.0,0.0,0.0,0.0,0.0,0.0,0.0,0.0,0.0,0.0,0.0,0.0,0.0,0.0,0.0,0.0,0.0,0.0,0.0,0.0,0.0,0.0,0.0,0.0,0.0,0.0,0.0,0.0,0.0,0.0,0.0,0.0,0.0,0.0,0.0,0.0,0.0,0.0,0.0,0.0,0.0,0.0,0.0,0.0,0.0,0.0,0.0,0.0,0.0,0.0,0.0,0.0,0.0,0.0,0.0,0.0,5.6367,5.9805,6.1094,6.1211,6.0976,6.0469,5.9805,5.6953,5.1016,0.0,0.0,0.0,0.0,0.0,0.0,0.0,0.0,0.0,0.0,0.0,0.0,0.0,0.0,0.0,0.0,0.0,0.0,0.0,0.0,0.0,0.0,0.0,0.0,0.0,0.0,0.0,0.0,0.0,0.0,0.0,0.0,0.0,0.0,0.0,0.0,0.0,0.0,0.0,0.0,0.0,0.0,0.0,0.0,0.0,0.0,0.0,0.0,0.0,0.0,0.0,0.0,0.0,0.0,0.0,0.0,0.0,0.0,0.0,0.0,0.0,0.0,0.0,0.0,0.0,0.0,0.0,0.0,0.0,0.0,0.0,0.0,0.0,0.0,0.0,0.0,0.0,0.0,0.0,0.0,0.0,0.0,0.0,0.0,0.0,0.0,0.0,0.0,0.0,0.0,0.0,0.0,0.0,0.0,0.0,0.0,0.0,0.0,0.0,0.0,0.0,0.0,5.2969,5.7539,6.0898,6.2383,6.2539,6.2187,6.1289,6.0976,5.789,5.1016,0.0,0.0,0.0,0.0,0.0,0.0,0.0,0.0,0.0,0.0,0.0,0.0,0.0,0.0,0.0,0.0,0.0,0.0,0.0,0.0,0.0,0.0,0.0,0.0,0.0,0.0,0.0,0.0,0.0,0.0,0.0,0.0,0.0,0.0,0.0,0.0,0.0,0.0,0.0,0.0,0.0,0.0,0.0,0.0,0.0,0.0,0.0,0.0,0.0,0.0,0.0,0.0,0.0,0.0,0.0,0.0,0.0,0.0,0.0,0.0,0.0,0.0,0.0,0.0,0.0,0.0,0.0,0.0,0.0,0.0,0.0,0.0,0.0,0.0,0.0,0.0,0.0,0.0,0.0,0.0,0.0,0.0,0.0,0.0,0.0,0.0,0.0,0.0,0.0,0.0,0.0,0.0,0.0,0.0,0.0,0.0,0.0,0.0,0.0,0.0,0.0,0.0,5.4961,6.1328,6.5273,6.4375,6.4297,6.3945,6.3086,6.2226,5.8789,0.0,0.0,0.0,0.0,0.0,0.0,0.0,0.0,0.0,0.0,0.0,0.0,0.0,0.0,0.0,0.0,0.0,0.0,0.0,0.0,0.0,0.0,0.0,0.0,0.0,0.0,0.0,0.0,0.0,0.0,0.0,0.0,0.0,0.0,0.0,0.0,0.0,0.0,0.0,0.0,0.0,0.0,0.0,0.0,0.0,0.0,0.0,0.0,0.0,0.0,0.0,0.0,0.0,0.0,0.0,0.0,0.0,0.0,0.0,0.0,0.0,0.0,0.0,0.0,0.0,0.0,0.0,0.0,0.0,0.0,0.0,0.0,0.0,0.0,0.0,0.0,0.0,0.0,0.0,0.0,0.0,0.0,0.0,0.0,0.0,0.0,0.0,0.0,0.0,0.0,0.0,0.0,0.0,0.0,0.0,0.0,0.0,0.0,0.0,0.0,0.0,0.0,0.0,5.4883,6.0781,6.457,6.4336,6.4297,6.4219,6.3945,6.3672,6.0312,5.2773,0.0,0.0,0.0,0.0,0.0,0.0,0.0,0.0,0.0,0.0,0.0,0.0,0.0,0.0,0.0,0.0,0.0,0.0,0.0,0.0,0.0,0.0,0.0,0.0,0.0,0.0,0.0,0.0,0.0,0.0,0.0,0.0,0.0,0.0,0.0,0.0,0.0,0.0,0.0,0.0,0.0,0.0,0.0,0.0,0.0,0.0,0.0,0.0,0.0,0.0,0.0,0.0,0.0,0.0,0.0,0.0,0.0,0.0,0.0,0.0,0.0,0.0,0.0,0.0,0.0,0.0,0.0,0.0,0.0,0.0,0.0,0.0,0.0,0.0,0.0,0.0,0.0,0.0,0.0,0.0,0.0,0.0,0.0,0.0,0.0,0.0,0.0,0.0,0.0,0.0,0.0,0.0,0.0,0.0,0.0,0.0,0.0,0.0,0.0,0.0,0.0,0.0,5.6367,6.1836,6.5469,6.582,6.5469,6.5078,6.4726,6.4648,6.1875,5.5508,0.0,0.0,0.0,0.0,0.0,0.0,0.0,0.0,0.0,0.0,0.0,0.0,0.0,0.0,0.0,0.0,0.0,0.0,0.0,0.0,0.0,0.0,0.0,0.0,0.0,0.0,0.0,0.0,0.0,0.0,0.0,0.0,0.0,0.0,0.0,0.0,0.0,0.0,0.0,0.0,0.0,0.0,0.0,0.0,0.0,0.0,0.0,0.0,0.0,0.0,0.0,0.0,0.0,0.0,0.0,0.0,0.0,0.0,0.0,0.0,0.0,0.0,0.0,0.0,0.0,0.0,0.0,0.0,0.0,0.0,0.0,0.0,0.0,0.0,0.0,0.0,0.0,0.0,0.0,0.0,0.0,0.0,0.0,0.0,0.0,0.0,0.0,0.0,0.0,0.0,0.0,0.0,0.0,0.0,0.0,0.0,0.0,0.0,0.0,0.0,0.0,0.0,5.8633,6.3828,6.7422,6.8242,6.7422,6.6523,6.5734,6.5498,6.3506,5.921,0.0,0.0,0.0,0.0,0.0,0.0,0.0,0.0,0.0,0.0,0.0,0.0,0.0,0.0,0.0,0.0,0.0,0.0,0.0,0.0,0.0,0.0,0.0,0.0,0.0,0.0,0.0,0.0,0.0,0.0,0.0,0.0,0.0,0.0,0.0,0.0,0.0,0.0,0.0,0.0,0.0,0.0,0.0,0.0,0.0,0.0,0.0,0.0,0.0,0.0,0.0,0.0,0.0,0.0,0.0,0.0,0.0,0.0,0.0,0.0,4.8516,0.0,0.0,0.0,0.0,0.0,0.0,0.0,0.0,0.0,0.0,0.0,0.0,0.0,0.0,0.0,0.0,0.0,0.0,0.0,0.0,0.0,0.0,0.0,0.0,0.0,0.0,0.0,0.0,0.0,0.0,0.0,0.0,0.0,0.0,0.0,0.0,0.0,0.0,0.0,0.0,0.0,5.8711,6.4844,6.8945,6.9219,6.8984,6.8664,6.8413,6.7716,6.5373,6.0963,5.8239,0.0,0.0,0.0,0.0,0.0,0.0,0.0,0.0,0.0,0.0,0.0,0.0,0.0,0.0,0.0,0.0,0.0,0.0,0.0,0.0,0.0,0.0,0.0,0.0,0.0,0.0,0.0,0.0,0.0,0.0,0.0,0.0,0.0,0.0,0.0,0.0,0.0,0.0,0.0,0.0,0.0,0.0,0.0,0.0,0.0,0.0,0.0,0.0,0.0,0.0,0.0,0.0,0.0,0.0,0.0,0.0,0.0,0.0,0.0,0.0,4.9883,0.0,0.0,0.0,0.0,0.0,0.0,0.0,0.0,0.0,0.0,0.0,0.0,0.0,0.0,0.0,0.0,0.0,0.0,0.0,0.0,0.0,0.0,0.0,0.0,0.0,0.0,0.0,0.0,0.0,0.0,0.0,0.0,0.0,0.0,0.0,0.0,0.0,0.0,0.0,0.0,6.0547,6.5859,6.9492,6.9922,6.9414,6.9003,6.8903,6.8524,6.7064,6.4193,6.1058,0.0,0.0,0.0,0.0,0.0,0.0,0.0,0.0,0.0,0.0,0.0,0.0,0.0,0.0,0.0,0.0,0.0,0.0,0.0,0.0,0.0,0.0,0.0,0.0,0.0,0.0,0.0,0.0,0.0,0.0,0.0,0.0,0.0,0.0,0.0,0.0,0.0,0.0,0.0,0.0,0.0,0.0,0.0,0.0,0.0,0.0,0.0,0.0,0.0,0.0,0.0,0.0,0.0,5.7109,5.7617,5.7461,5.8203,5.9531,6.1054,5.6894,5.6705,5.8867,5.2305,0.0,0.0,0.0,0.0,0.0,0.0,0.0,0.0,0.0,0.0,0.0,0.0,0.0,0.0,0.0,0.0,0.0,0.0,0.0,0.0,0.0,0.0,0.0,0.0,5.9453,6.0117,0.0,0.0,0.0,0.0,0.0,0.0,0.0,0.0,0.0,0.0,0.0,0.0,6.3008,6.7109,6.988,7.0596,6.9733,6.9108,6.9069,6.9013,6.8591,6.7673,6.3738,6.0751,0.0,0.0,0.0,0.0,0.0,0.0,0.0,0.0,0.0,0.0,0.0,0.0,0.0,0.0,0.0,0.0,0.0,0.0,0.0,0.0,0.0,0.0,0.0,0.0,0.0,0.0,0.0,0.0,0.0,0.0,0.0,0.0,4.9258,4.9492,0.0,0.0,0.0,0.0,0.0,0.0,0.0,0.0,0.0,0.0,0.0,0.0,0.0,5.5117,5.7187,6.0156,6.1992,6.2734,6.5859,6.6875,6.5976,6.6094,6.5937,6.5545,6.4885,0.0,5.9922,5.832,0.0,0.0,0.0,0.0,0.0,0.0,0.0,0.0,0.0,0.0,0.0,0.0,0.0,0.0,0.0,0.0,0.0,0.0,0.0,0.0,0.0,0.0,6.5234,6.5351,6.5586,6.5547,0.0,5.8828,5.3242,5.1797,5.1601,0.0,0.0,0.0,0.0,0.0,0.0,0.0,6.5234,6.8984,7.1234,7.1369,7.1216,7.1062,7.0845,7.0324,6.9884,6.9542,6.8291,6.5859,6.2119,5.9896,0.0,0.0,0.0,0.0,0.0,0.0,0.0,0.0,0.0,0.0,0.0,0.0,0.0,0.0,0.0,0.0,0.0,0.0,0.0,0.0,0.0,0.0,0.0,0.0,0.0,0.0,0.0,0.0,0.0,4.8125,5.0547,5.1484,4.9805,4.7656,0.0,0.0,0.0,0.0,0.0,0.0,0.0,0.0,0.0,5.875,5.8828,6.0078,6.2773,6.4219,6.5078,6.5351,6.6896,6.7402,6.7052,6.7564,6.7578,6.7277,6.7879,6.6724,6.4195,6.146,5.8984,5.668,0.0,0.0,0.0,0.0,5.4961,5.4961,5.8125,5.8906,0.0,5.6914,0.0,0.0,0.0,0.0,0.0,0.0,0.0,0.0,0.0,0.0,6.5781,6.7851,6.8203,6.8232,6.8799,6.5503,6.1497,0.0,5.7596,5.5936,5.0541,0.0,0.0,0.0,0.0,6.3394,6.6625,6.957,7.1338,7.1325,7.1206,7.1129,7.1052,7.086,7.0486,6.9842,6.9614,6.8412,6.5923,6.2427,5.8616,0.0,0.0,0.0,0.0,0.0,0.0,0.0,0.0,0.0,0.0,0.0,0.0,0.0,0.0,0.0,0.0,0.0,0.0,0.0,0.0,0.0,0.0,0.0,0.0,0.0,0.0,0.0,0.0,5.0586,5.2891,5.3906,5.3476,5.1641,0.0,0.0,0.0,0.0,0.0,0.0,5.6758,5.7344,5.9336,6.3164,6.3672,6.507,6.7631,6.7787,6.7826,6.7741,6.7735,6.7614,6.746,6.8098,6.8253,6.8167,6.8886,6.8745,6.7716,6.4543,6.2818,6.1999,5.9729,5.8605,5.8437,6.0312,6.0625,6.0664,6.4297,6.5156,6.4453,6.3125,6.1719,5.9883,5.664,0.0,0.0,0.0,0.0,5.9648,6.2851,6.4531,6.6091,6.8853,6.9358,6.9382,7.0092,6.9464,6.7702,0.0,6.3632,6.1934,5.5851,0.0,0.0,5.8047,6.2054,6.6008,6.8164,7.0025,7.1129,7.1129,7.0975,7.0898,7.0898,7.1091,7.0887,7.0146,7.0317,6.9974,6.8898,6.5341,6.2388,6.0265,0.0,0.0,0.0,0.0,0.0,0.0,0.0,0.0,0.0,0.0,0.0,0.0,0.0,0.0,0.0,0.0,0.0,0.0,0.0,0.0,0.0,0.0,0.0,0.0,0.0,0.0,0.0,0.0,0.0,5.7734,5.7617,0.0,0.0,0.0,0.0,5.4922,5.6601,5.8633,6.1055,6.289,6.5,6.75,6.9297,7.0302,7.0474,7.1309,7.1617,7.1424,7.1312,7.0722,6.9745,6.9653,6.9265,6.8629,6.8514,6.8514,6.8629,6.8743,6.7278,6.4971,6.5572,6.4828,6.3633,6.5312,6.6055,6.6445,6.8281,6.9062,6.914,6.8984,6.6719,6.3984,6.3789,6.1992,0.0,0.0,6.4453,6.5742,6.8359,6.9062,6.9191,6.9452,6.937,6.9147,6.9026,6.8321,6.7869,0.0,6.9216,6.8553,6.4765,0.0,6.564,6.5548,6.5701,6.7061,7.0294,7.086,7.0937,7.0937,7.0898,7.0898,7.0898,7.1091,7.1156,7.112,7.112,7.0815,7.015,6.9553,6.6704,6.125,6.0066,0.0,0.0,0.0,0.0,0.0,0.0,0.0,0.0,0.0,0.0,0.0,0.0,0.0,0.0,0.0,0.0,0.0,0.0,0.0,0.0,0.0,0.0,0.0,0.0,0.0,0.0,0.0,0.0,5.8828,5.9687,0.0,5.7187,5.8164,5.9531,6.0976,6.2695,6.4531,6.6484,6.7257,6.7965,6.8711,6.9258,6.9479,6.9333,6.9566,6.9644,6.9566,6.9527,6.9337,6.9078,6.9574,6.9786,6.9708,7.0173,7.0021,6.954,7.0194,6.9283,6.746,6.7833,6.7718,6.7381,6.8041,6.8351,6.8567,6.9117,6.9375,6.9453,6.9453,6.8633,6.7656,6.7617,6.6914,6.6406,6.7383,6.7851,6.8437,6.9883,7.0156,7.023,7.0801,7.0787,7.066,7.0575,7.0329,7.0131,7.0331,6.9804,6.8584,6.62,6.7769,6.8626,6.6423,6.7791,6.9536,7.0744,7.0898,7.0898,7.0898,7.0898,7.0898,7.0898,7.0975,7.1014,7.1014,7.1245,7.1246,7.0852,7.0281,6.8844,6.6396,6.5393,6.0806,0.0,0.0,0.0,0.0,0.0,0.0,0.0,0.0,0.0,0.0,0.0,0.0,0.0,0.0,0.0,0.0,0.0,0.0,0.0,0.0,0.0,0.0,0.0,0.0,0.0,5.7969,6.0625,6.0117,6.1797,6.2226,6.0234,6.2109,6.414,6.582,6.7031,6.8086,6.9062,6.9518,6.964,6.9453,6.9673,6.9713,6.9596,6.9479,6.944,6.944,6.9362,6.9399,6.9459,6.9986,7.0333,7.0567,7.1092,7.0953,7.0371,7.0898,7.0475,6.9552,6.9574,6.9709,6.9903,6.998,7.0097,7.0261,7.0284,7.0273,7.0273,7.0312,7.0351,7.0351,7.0273,7.0273,7.0273,7.0312,7.0351,7.0469,7.1015,7.1015,7.1055,7.1562,7.1607,7.1477,7.1399,7.1397,7.1321,7.1129,7.0333,6.9267,6.8048,6.9679,7.0333,6.8048,6.9794,7.1206,7.0937,7.1168,7.1206,7.0937,7.0898,7.0898,7.0898,7.0371,7.0294,7.086,7.0629,7.072,7.126,6.991,6.8767,6.7895,6.6611,6.2168,5.4453,0.0,0.0,0.0,0.0,0.0,0.0,0.0,0.0,0.0,0.0,0.0,0.0,0.0,0.0,0.0,0.0,0.0,0.0,0.0,0.0,0.0,0.0,0.0,5.9375,6.0742,6.1836,6.1875,6.4101,6.5312,6.4492,6.5976,6.7617,6.914,6.9218,6.9061,6.8709,6.9686,7.0155,6.9959,7.0968,7.1503,7.1503,7.1503,7.1541,7.1541,7.1349,7.1245,7.1245,7.1052,7.1091,7.1245,7.1052,7.1091,7.1245,7.1014,7.1052,7.1185,7.1004,7.1014,7.121,7.1211,7.1406,7.1719,7.1914,7.1992,7.1992,7.1992,7.1992,7.1992,7.1992,7.1992,7.1992,7.1992,7.1992,7.1992,7.1992,7.1836,7.168,7.1679,7.1612,7.1503,7.1245,7.1245,7.1206,7.1014,7.1129,7.1206,7.0975,7.0937,7.0937,7.0975,7.1695,0.0,7.1091,7.1734,7.1926,7.1014,7.0937,7.0937,7.0898,6.9382,6.9152,7.0783,6.9382,6.9401,7.1402,6.8778,6.6677,6.5486,6.3691,6.1172,5.7969,0.0,0.0,0.0,0.0,0.0,0.0,0.0,0.0,0.0,0.0,0.0,0.0,0.0,0.0,0.0,0.0,0.0,0.0,0.0,0.0,0.0,5.9609,6.1992,6.1133,6.3047,6.4765,6.539,6.6094,6.6719,6.7109,6.8008,6.9023,7.0078,7.0006,7.0157,7.068,7.099,7.1068,7.0874,7.1144,7.1206,7.1052,7.1695,7.2003,7.2003,7.2608,7.2877,7.2877,7.28,7.28,7.2839,7.28,7.28,7.28,7.2118,7.1887,7.1838,7.133,7.1223,7.1434,7.1412,7.1484,7.1562,7.1601,7.164,7.164,7.1758,7.1797,7.1797,7.1953,7.1992,7.1953,7.1836,7.1797,7.1758,7.164,7.1601,7.1506,7.1348,7.1796,7.2157,7.1964,7.2415,7.2839,7.28,7.2839,7.2646,7.1964,7.1849,7.2041,7.2685,7.2993,7.3042,7.2803,7.3004,7.28,7.1926,7.1849,7.158,7.0937,7.0475,7.0413,7.0874,7.0593,7.0747,7.1494,7.0728,6.9903,6.9092,6.4404,6.125,0.0,0.0,0.0,0.0,0.0,0.0,0.0,0.0,0.0,0.0,0.0,0.0,0.0,0.0,0.0,0.0,0.0,0.0,0.0,0.0,0.0,0.0,6.2617,6.457,6.4453,6.5742,6.6992,6.7851,6.789,6.8203,6.9062,6.9453,6.9944,7.0726,7.0694,7.0821,7.1206,7.1245,7.1206,7.1091,7.1426,7.158,7.1464,7.2338,7.2734,7.2745,7.3245,7.3476,7.3476,7.3476,7.3476,7.3476,7.3476,7.3476,7.3437,7.2937,7.2734,0.0,0.0,0.0,0.0,0.0,7.1482,7.1482,7.1482,7.1482,7.1521,7.1611,7.1624,7.164,7.1758,7.1797,7.1758,7.164,7.187,7.2117,7.2039,7.2195,7.2405,7.2288,7.2608,7.2916,7.2783,7.3129,7.3476,7.3476,7.3476,0.0,7.3283,7.2976,7.2937,7.3399,7.3812,7.386,7.3534,7.3822,7.3696,7.2822,7.2734,7.2531,7.2041,7.1014,0.0,0.0,0.0,6.9934,6.9811,6.9642,0.0,0.0,0.0,0.0,0.0,0.0,0.0,0.0,5.5664,5.4844,0.0,0.0,0.0,0.0,0.0,0.0,0.0,0.0,0.0,0.0,0.0,0.0,0.0,0.0,0.0,0.0,6.5427,6.7422,6.8086,6.8355,6.8703,6.9297,6.9375,6.9648,7.0377,7.0377,7.0562,7.1159,7.1168,7.1091,7.0898,7.0975,0.0,0.0,0.0,7.2349,7.2349,7.3185,7.3658,7.362,7.3726,7.3803,7.3803,7.3803,7.3803,7.3803,7.3803,7.3803,7.3764,7.3688,7.3563,7.3339,7.1811,7.1283,7.1503,7.1657,7.1734,7.1734,7.1734,0.0,0.0,7.1734,7.1753,7.1744,7.1783,7.1783,7.1783,7.1744,7.2259,7.28,7.28,7.3224,7.3686,7.3686,7.3647,7.3619,7.3649,7.3726,7.3803,7.3803,7.3803,7.3995,7.4716,7.4149,7.3688,7.3764,7.4379,7.4601,7.388,7.4418,7.4533,7.3726,0.0,0.0,7.3493,7.1437,7.0717,7.2118,7.0025,6.8471,6.789,6.7617,6.7422,6.7305,6.6562,6.6953,6.8476,6.8398,6.7969,6.6953,5.832,5.6367,0.0,0.0,0.0,0.0,0.0,0.0,0.0,0.0,0.0,0.0,0.0,0.0,0.0,0.0,0.0,6.3708,6.6711,6.8672,6.8047,6.9176,6.9856,6.9293,6.9844,7.0264,7.0271,7.0689,7.1062,7.1195,7.1052,7.0937,7.0898,7.158,7.1964,7.1964,7.28,7.3234,7.3226,7.4063,7.4486,7.4456,0.0,0.0,7.5553,7.5553,7.5553,7.5553,7.5553,7.5553,7.5447,7.4755,7.4072,7.3486,7.3119,7.3031,7.307,7.3108,7.3108,7.3108,7.3108,7.3108,7.3108,7.3251,7.3253,7.3286,7.3463,7.3541,0.0,7.3325,7.3393,7.3493,7.337,7.3418,7.3534,7.3534,7.4024,7.4447,7.4486,7.5024,7.5553,7.5553,7.5553,7.5592,7.5745,7.5024,7.4716,7.5408,7.5668,7.5707,7.5553,7.5668,7.5408,7.4533,7.4486,7.4216,7.3534,7.3073,7.2601,7.2195,7.1387,7.0835,7.0702,7.0898,7.1015,7.0976,7.0156,6.9883,7.0234,6.957,6.914,6.8828,6.5625,6.4609,0.0,0.0,0.0,0.0,0.0,0.0,0.0,0.0,0.0,0.0,0.0,6.0859,6.2109,0.0,6.4714,6.5929,6.793,6.9292,6.9214,6.9843,7.0215,6.9886,7.042,7.0809,7.0683,7.0898,7.1052,7.1052,7.1387,7.1541,7.1541,7.2377,7.285,7.2832,7.3668,7.4091,7.411,7.4947,7.5332,7.5332,7.5784,7.6015,7.6015,7.6015,7.6015,7.6015,7.6015,7.6015,7.5976,7.5553,7.5101,7.4755,7.4774,7.4235,7.3514,7.3514,7.3514,7.3514,7.3514,7.3514,7.3514,7.3591,7.3591,7.363,7.3707,7.3745,7.3707,7.363,7.386,7.4168,7.411,7.4418,7.4755,7.4755,7.5062,7.5332,7.5332,7.5707,7.6015,7.6015,7.6015,7.6015,7.6015,7.5668,7.5485,7.5938,7.6015,7.6015,7.6015,7.6015,7.5822,7.537,7.5332,7.5178,7.4793,7.4341,7.3563,7.2272,7.2118,7.194,7.1523,7.1836,7.1992,7.1992,7.1562,7.1133,7.0703,7.0312,6.9844,6.9375,6.8594,6.7969,0.0,0.0,0.0,0.0,0.0,0.0,0.0,6.0312,6.0937,6.1758,6.2617,6.3594,6.4844,6.5742,6.6796,6.8117,6.8962,6.9679,7.0321,7.0406,7.0428,7.0606,7.0975,7.1168,7.1129,7.1014,7.0975,7.1129,7.1811,7.2272,7.2465,7.3301,7.3735,7.3726,7.4533,7.4947,7.4947,7.5668,7.6015,7.6015,7.6169,7.6245,7.6245,7.6399,7.6506,7.6506,7.6506,7.6506,7.6506,7.6506,7.6506,7.6506,7.6506,7.5668,7.4418,7.411,7.3995,7.3995,7.3995,7.3995,7.3995,7.3995,7.3995,7.3995,7.3995,7.3995,7.3995,7.3995,7.4456,7.4947,7.4947,7.5447,7.6015,7.6015,7.6015,7.6015,7.6015,7.6015,7.6015,7.6015,7.6015,7.6015,7.6015,7.6015,7.6015,7.6015,7.6015,7.6015,7.6015,7.6015,7.6015,7.6015,7.6015,7.6015,7.6015,7.5178,7.4063,7.258,7.258,7.2328,7.1523,7.1797,7.1953,7.1992,7.1992,7.164,7.0937,7.0937,7.0586,6.9922,6.9961,6.9414,6.1289,5.9961,5.9258,6.0742,6.1719,6.3125,0.0,6.6523,6.6289,6.7148,6.7969,6.8398,6.7851,6.8437,6.8935,6.8844,6.967,7.0283,7.0002,7.0593,7.1094,7.1118,7.1168,7.1129,7.0937,7.0898,7.1206,7.2003,7.2118,7.2514,7.3303,7.4139,7.4562,7.4601,7.537,7.5861,7.5861,7.5938,7.6015,7.6015,7.6775,7.716,7.716,7.7882,7.8228,7.8228,7.8228,7.8228,7.8228,7.8228,7.8228,7.8228,7.8228,7.8113,7.7766,7.6245,7.5745,7.5745,7.5745,7.5745,7.5745,7.5745,7.5745,7.5745,7.5745,7.5745,7.5745,7.5745,7.5784,7.5861,7.5861,7.5938,7.6015,7.6015,7.6015,7.6015,7.6015,7.6015,7.6015,7.6015,7.6015,7.6015,7.6015,7.6015,7.6015,7.6015,7.6015,7.6015,7.6015,7.6015,7.6015,7.6015,7.6015,7.6015,7.6015,7.5178,7.4303,7.3418,7.2822,7.2211,7.1523,7.164,7.1836,7.1992,7.1992,7.1953,7.1836,7.1836,7.1797,7.1719,7.1719,7.0859,6.6133,6.4609,6.3359,6.5039,6.5742,6.6289,6.7226,6.793,6.8476,6.8828,6.957,7.0039,6.9726,6.9887,6.9994,6.9843,7.0464,7.086,7.0695,7.086,7.1014,7.1014,7.1475,7.1745,7.1657,7.1657,7.2003,7.2877,7.3388,7.3793,7.4187,7.4985,7.5447,7.5447,7.5822,7.6245,7.6775,7.6775,7.7006,7.7429,7.7843,7.8006,7.8023,7.8331,7.8515,7.8515,7.8515,7.8515,7.8515,7.8515,7.8515,7.8515,7.8515,7.8515,7.8438,7.7699,7.716,7.6775,7.6775,7.6399,7.6015,7.6015,7.6015,7.6015,7.6015,7.6015,7.6015,7.6015,7.6015,7.6015,7.6015,7.6015,7.6015,7.6015,7.6015,7.6015,7.6015,7.6015,7.6015,7.6015,7.6015,7.6015,7.6015,7.6015,7.6015,7.6015,7.6015,7.6015,7.6015,7.6015,7.6015,7.6015,7.6015,7.6015,7.6015,7.5668,7.5101,7.4264,7.3696,7.3017,7.2236,7.1987,7.1914,7.1992,7.1992,7.1992,7.1992,7.1992,7.1992,7.1992,7.1992,7.1601,6.8672,6.7539,6.6719,6.8476,6.9258,6.9492,6.9101,6.9765,7.0469,7.0469,7.0781,7.105,7.0987,7.0911,7.0821,7.0706,7.0975,7.1168,7.1129,7.0975,7.0975,7.1245,7.1822,7.2399,7.285,7.2696,7.2916,7.3752,7.4361,7.4793,7.5062,7.5668,7.6092,7.6322,7.6361,7.6775,7.7612,7.7622,7.7929,7.8507,7.8738,7.8861,7.8877,7.9107,7.9223,7.9223,7.9223,7.9223,7.9223,7.9223,7.9223,7.9223,7.9223,7.9223,7.9223,7.9238,7.8545,7.763,7.7622,7.7198,7.6698,7.6698,7.6698,7.6698,7.6698,7.6698,7.6698,7.6698,7.6698,7.6698,7.6698,7.6698,7.6698,7.6698,7.6544,7.6361,7.6361,7.6169,7.6015,7.6015,7.6015,7.6015,7.6015,7.6015,7.6015,7.6015,7.6015,7.6015,7.6015,7.6015,7.6015,7.6015,7.6015,7.6015,7.6015,7.6015,7.563,7.4755,7.4235,7.3536,7.2754,7.2197,7.1953,7.1992,7.1992,7.1992,7.1992,7.1992,7.1992,7.1992,7.1992,7.1992,6.7422,6.7539,6.8515,7.0195,7.1875,7.3359,7.418,7.375,7.3164,7.3164,7.2539,7.1909,7.1727,7.1684,7.158,7.1206,7.1168,7.1129,7.0937,7.0898,7.1206,7.2035,7.215,7.2842,7.4486,7.3909,7.3812,7.4588,7.4697,7.5062,7.5938,7.5976,7.6361,7.7237,7.7237,7.7651,7.8459,7.8446,7.8492,7.8531,7.9338,7.9754,7.9792,8.0669,8.1016,8.1016,8.1016,8.1016,8.1016,8.1016,8.1016,8.1016,8.1016,8.1016,8.1016,8.1016,7.9946,7.8454,7.8468,7.8421,7.8421,7.8421,7.8421,7.8421,7.8421,7.8421,7.8421,7.8421,7.8421,7.8421,7.8421,7.8421,7.8421,7.8421,7.7843,7.7237,7.7237,7.6621,7.6015,7.6015,7.6015,7.6015,7.6015,7.6015,7.6015,7.6015,7.6015,7.6015,7.6015,7.6015,7.6015,7.6015,7.6015,7.6015,7.6015,7.6015,7.563,7.4755,7.4072,7.3411,7.273,7.207,7.1797,7.1992,7.1992,7.1992,7.1992,7.1992,7.1992,7.1992,7.1992,7.1992,7.0976,7.0937,7.1133,7.2851,7.3711,7.4101,7.3789,7.4414,7.4826,7.4101,7.4294,7.4527,7.432,7.3724,7.3004,7.2349,7.2041,7.1629,7.0975,7.1398,7.186,7.2168,7.3178,7.4063,7.4668,7.4447,7.4668,7.5505,7.5553,7.5707,7.5976,7.6544,7.7006,7.7275,7.7823,7.8485,7.9361,7.9369,7.9677,8.0215,8.0523,8.0669,8.0669,8.0977,8.1093,8.1093,8.1093,8.1093,8.1093,8.1093,8.1093,8.1093,8.1093,8.1093,8.1093,8.1093,8.0746,8.0138,7.9554,7.8977,7.8485,7.8485,7.8485,7.8485,7.8485,7.8485,7.8485,7.8485,7.8485,7.8485,7.8485,7.8485,7.8485,7.8485,7.8292,7.81,7.8113,7.7429,7.6852,7.6852,7.6399,7.6015,7.6015,7.6015,7.6015,7.6015,7.6015,7.6015,7.6015,7.6015,7.6015,7.6015,7.6015,7.6015,7.6015,7.6015,7.5861,7.5592,7.4495,7.378,7.3554,7.25,7.1914,7.1992,7.1992,7.1992,7.1992,7.1992,7.1992,7.1992,7.1992,7.1992,7.289,7.289,7.289,7.4648,7.5078,7.4995,7.4654,7.5435,7.6054,7.5305,7.5228,7.524,7.5016,7.4183,7.3418,7.3097,7.308,7.2899,7.2322,7.3014,7.3553,7.3553,7.4784,7.563,7.563,7.563,7.5745,7.5976,7.6015,7.613,7.6438,7.7006,7.7583,7.8169,7.8715,7.9377,8.0254,8.0254,8.0523,8.1093,8.1093,8.1093,8.1093,8.1093,8.1093,8.1093,8.1093,8.1093,8.1093,8.1093,8.1093,8.1093,8.1093,8.1093,8.1093,8.1093,8.1093,8.1016,8.0446,7.9908,7.9415,7.9415,7.9415,7.9415,7.9415,7.9415,7.9415,7.9415,7.9415,7.9415,7.9415,7.9415,7.9415,7.9415,7.9184,7.8877,7.8554,7.7861,7.7207,7.689,7.6361,7.6015,7.6015,7.6015,7.6015,7.6015,7.6015,7.6015,7.6015,7.6015,7.6015,7.6015,7.6015,7.6015,7.6015,7.6015,7.6015,7.6092,7.4793,7.4013,7.4101,7.2734,7.1992,7.1992,7.1992,7.1992,7.1992,7.1992,7.1992,7.1992,7.1992,7.1992,7.3203,7.3476,7.3864,7.5544,7.5936,7.6086,7.6736,7.6881,7.6816,7.6588,7.5337,7.4178,7.3763,7.3178,7.2888,7.3316,7.4168,7.4745,7.4707,7.5476,7.6053,7.6053,7.6823,7.7361,7.7361,7.7352,7.7006,7.6169,7.6092,7.6438,7.7237,7.7391,7.813,7.9754,7.9831,8.0254,8.1093,8.1093,8.1093,8.1093,8.1093,8.1093,8.1093,8.1093,8.1093,8.1093,8.1093,8.1093,8.1093,8.1093,8.1093,8.1093,8.1093,8.1093,8.1093,8.1093,8.1093,8.1093,8.1093,8.1093,8.1093,8.1093,8.1093,8.1093,8.1093,8.1093,8.1093,8.1093,8.1093,8.1093,8.1093,8.1093,8.1093,8.1093,8.0446,7.9638,7.8762,7.7923,7.7078,7.6245,7.6015,7.6015,7.6015,7.6015,7.6015,7.6015,7.6015,7.6015,7.6015,7.6015,7.6015,7.6015,7.6015,7.6015,7.6015,7.6015,7.6092,7.6284,7.4851,7.4073,7.4296,7.2812,7.1992,7.1992,7.1992,7.1992,7.1992,7.1992,7.1992,7.1992,7.1992,7.1992,7.5,7.558,7.6101,7.6549,7.6505,7.6481,7.6626,7.6683,7.6447,7.5568,7.4819,7.379,7.2169,7.2855,7.3266,7.1992,7.3966,7.5438,7.4784,7.6015,7.6976,7.6976,7.7669,7.8169,7.8169,7.8169,7.8092,7.7861,7.7323,7.7062,7.7284,7.8477,7.9369,7.9792,8.0407,8.09,8.1093,8.1093,8.1093,8.1093,8.1093,8.1093,8.1093,8.1093,8.1093,8.1093,8.1093,8.1093,8.1093,8.1093,8.1093,8.1093,8.1093,8.1093,8.1093,8.1093,8.1093,8.1093,8.1093,8.1093,8.1093,8.1093,8.1093,8.1093,8.1093,8.1093,8.1093,8.1093,8.1093,8.1093,8.1093,8.1093,8.1093,8.1093,8.0939,8.0523,7.9677,7.8823,7.7968,7.7121,7.6438,7.6015,7.6015,7.6015,7.6015,7.6015,7.6015,7.6015,7.6015,7.6015,7.6015,7.6015,7.6015,7.6015,7.6015,7.6015,7.6092,7.6284,7.4865,7.4101,7.4297,7.2812,7.1992,7.1992,7.1992,7.1992,7.1992,7.1992,7.1992,7.1992,7.1992,7.1992,7.6133,7.6747,7.7,7.6943,7.6842,7.663,7.6144,7.6044,7.563,7.4255,7.3486,7.2572,7.0951,7.2128,7.3206,7.2811,7.5197,7.7053,7.6938,7.8092,7.8823,7.8438,7.9131,7.9477,7.9092,7.9054,7.9054,7.9054,7.8669,7.8592,7.8938,7.9862,8.0516,8.09,8.1016,8.1093,8.1093,8.1093,8.1093,8.1093,8.1093,8.1093,8.1093,8.1093,8.1093,8.1093,0.0,8.1093,8.1093,8.1093,8.1093,8.1093,8.1093,8.1093,8.1093,8.1093,8.1093,8.1093,8.1093,8.1093,8.1093,8.1093,8.1093,8.1093,8.1093,8.1093,8.1093,8.1093,8.1093,8.1093,8.1093,8.1093,8.1093,8.1093,8.0823,8.0292,7.9415,7.8554,7.7728,7.689,7.6322,7.6015,7.6015,7.6015,7.6015,7.6015,7.6015,7.6015,7.6015,7.6015,7.6015,7.6015,7.6015,7.6015,7.6015,7.6015,7.613,7.6399,7.4917,7.414,7.4414,7.2851,7.1992,7.1992,7.1992,7.1992,7.1992,7.1992,7.1992,7.1992,7.1992,7.1992,7.6758,7.7147,7.7101,7.6885,7.6794,7.6506,7.5485,7.5178,7.463,7.2888,7.1811,7.0838,6.9768,7.1077,7.2783,7.4168,7.6669,7.8784,7.9669,8.0554,8.0823,8.0054,8.0631,8.0785,8.0054,8.0092,8.0131,8.0131,8.0362,8.0708,8.1246,8.1354,8.1693,8.2278,8.1516,8.1093,8.1093,8.1093,8.1093,8.1093,8.1093,8.1093,8.1093,8.1093,8.1093,8.1093,8.1093,8.1093,8.1093,8.1093,8.1093,8.1093,8.1093,8.1093,8.1093,8.1093,8.1093,8.1093,8.1093,8.1093,8.1093,8.1093,8.1093,8.1093,8.1093,8.1093,8.1093,8.1093,8.1093,8.1093,8.1093,8.1093,8.1054,8.0939,8.0331,7.9561,7.8531,7.7707,7.689,7.613,7.6015,7.6015,7.6015,7.6015,7.6015,7.6015,7.6015,7.6015,7.6015,7.6015,7.6015,7.6015,7.6015,7.6015,7.6015,7.6015,7.6207,7.6583,7.4995,7.4219,7.457,7.293,7.1992,7.1992,7.1992,7.1992,7.1992,7.1992,7.1992,7.1992,7.1992,7.1992,7.6914,7.6945,7.669,7.666,7.6421,7.5976,7.5216,7.4495,7.3547,7.2017,7.0451,6.9025,6.8026,6.9809,7.1678,7.2514,7.5938,7.8784,7.9669,8.0554,8.1054,8.09,8.1016,8.1054,8.09,8.1477,8.1862,8.1862,8.3208,8.3439,8.217,8.2785,8.2901,8.2317,8.1516,8.1093,8.1093,8.1093,8.1093,8.1093,8.1093,8.1093,8.1093,8.1093,8.1093,8.1093,8.1093,0.0,8.1093,8.1093,8.1093,8.1093,8.1093,8.1093,8.1093,8.1093,8.1093,8.1093,8.1093,8.1093,8.1093,8.1093,8.1093,8.1093,8.1093,8.1093,8.1093,8.1093,8.1093,8.1093,8.1093,8.1093,8.0939,8.0215,7.9908,7.9369,7.7823,7.6823,7.6169,7.6015,7.6015,7.6015,7.6015,7.6015,7.6015,7.6015,7.6015,7.6015,7.6015,7.6015,7.6015,7.6015,7.6015,7.6015,7.6015,7.613,7.6322,7.6583,7.5112,7.4336,7.4609,7.293,7.1992,7.1992,7.1992,7.1992,7.1992,7.1992,7.1992,7.1992,7.1992,7.1992,7.6953,7.6983,7.6737,7.6621,7.6405,7.5745,7.4149,7.3459,7.254,7.0268,6.8967,6.8003,6.7064,6.8794,7.0794,7.2014,7.5399,7.8323,7.9631,8.0554,8.1093,8.1093,8.1093,8.1246,8.167,8.2054,8.267,8.3593,8.4439,8.4555,8.3708,8.4022,8.3901,8.3002,8.2163,8.1739,8.1739,8.1285,8.1093,8.1093,8.1093,8.1093,8.1093,8.1093,8.1093,8.1093,8.1093,8.1093,8.1093,8.1093,8.1093,8.1093,8.1093,8.1093,8.1093,8.1093,8.1093,8.1093,8.1093,8.1093,8.1093,8.1093,8.1093,8.1093,8.1093,8.1093,8.1093,8.1093,8.1093,8.1093,8.1093,8.1093,8.09,8.0023,7.91,7.813,7.6929,7.6284,7.6015,7.6015,7.6015,7.6015,7.6015,7.6015,7.6015,7.6015,7.6015,7.6015,7.6015,7.6015,7.6015,7.6015,7.6015,7.6053,7.613,7.6245,7.6417,7.6738,7.5194,7.4375,7.4609,7.293,7.1992,7.1992,7.1992,7.1992,7.1992,7.1992,7.1992,7.1992,7.1992,7.1992,7.7226,7.7313,7.7047,7.6688,7.6399,7.563,7.3236,7.2573,7.1626,6.8783,6.781,6.7308,6.68,6.8232,7.0156,7.2168,7.5053,7.7669,7.9554,8.0554,8.1093,8.1093,8.1093,8.14,8.2208,8.2477,8.3208,8.4786,8.5055,8.517,8.517,8.4983,8.4593,8.3926,8.3048,8.2509,8.2278,8.1701,8.1246,8.1093,8.1093,8.1093,8.1093,8.1093,8.1093,8.1093,8.1093,8.1093,8.1093,8.1093,8.1093,8.1093,8.1093,8.1093,8.1093,8.1093,8.1093,8.1093,8.1093,8.1093,8.1093,8.1093,8.1093,8.1093,8.1093,8.1093,8.1093,8.1093,8.1093,8.1093,8.1093,8.0977,8.0554,7.9485,7.813,7.6852,7.613,7.6015,7.6015,7.6015,7.6015,7.6015,7.6015,7.6015,7.6015,7.6015,7.6015,7.6015,7.6015,7.6015,7.6015,7.6053,7.6053,7.613,7.6284,7.6237,7.6271,7.66,7.5039,7.414,7.4297,7.2812,7.1992,7.1992,7.1992,7.1992,7.1992,7.1992,7.1992,7.1992,7.1992,7.1992,7.8125,7.8082,7.7601,7.6789,7.6284,7.5408,7.3197,7.2087,7.0886,6.8666,6.7382,6.6934,6.7625,6.8283,6.9785,7.3004,7.5005,7.6976,7.9438,8.0554,8.1093,8.1093,8.1093,8.14,8.2208,8.3016,8.3862,8.4824,8.5593,8.5978,8.5978,8.5291,8.4868,8.4791,8.3912,8.3099,8.2317,8.224,8.1816,8.1093,8.1093,8.1093,8.1093,8.1093,8.1093,8.1093,8.1093,8.1093,0.0,8.1093,8.1093,8.1093,8.1093,8.1093,8.1093,8.1093,8.1093,8.1093,8.1093,8.1093,8.1093,8.1093,8.1093,8.1093,8.1093,8.1093,8.1093,8.1093,8.1093,8.1093,8.1093,8.0484,7.9523,7.7929,7.6813,7.6092,7.6015,7.6015,7.6015,7.6015,7.6015,7.6015,7.6015,7.6015,7.6015,7.6015,7.6015,7.6015,7.6015,7.6015,7.6053,7.6245,7.6245,7.6284,7.6284,7.5898,7.5698,7.5703,7.4258,7.3398,7.3437,7.25,7.1992,7.1992,7.1992,7.1992,7.1992,7.1992,7.1992,7.1992,7.1992,7.1992,7.8555,7.8308,7.796,7.7498,7.6438,7.4947,7.2476,7.1325,7.0176,6.7874,6.6992,6.6699,6.6975,6.7484,6.8812,7.1568,7.3399,7.5207,7.7246,7.8669,7.9554,7.9554,8.0015,8.0823,8.217,8.3093,8.417,8.5517,8.594,8.6094,8.6094,8.5824,8.5599,8.5599,8.483,8.4214,8.3862,8.3317,8.2663,8.1816,8.1816,8.1554,8.1093,8.1093,8.1093,8.1093,8.1093,8.1093,0.0,8.1093,8.1093,8.1093,8.1093,8.1093,8.1093,8.1093,8.1093,8.1093,8.1093,8.1093,8.1093,8.1093,8.1093,8.1093,8.1093,8.1093,8.1093,8.1093,8.1093,8.1093,8.1093,8.0054,7.8738,7.7545,7.6621,7.6015,7.6015,7.6015,7.6015,7.6015,7.6015,7.6015,7.6015,7.6015,7.6015,7.6015,7.6015,7.6015,7.6015,7.6092,7.6207,7.6284,7.6284,7.6403,7.6651,7.6028,7.5664,7.5781,7.4219,7.3281,7.3281,7.2461,7.1992,7.1992,7.1992,7.1992,7.1992,7.1992,7.1992,7.1992,7.1992,7.1992,7.918,7.8906,7.85,7.8392,7.6996,7.5024,7.2438,7.1103,6.9741,6.7395,6.6797,6.6674,6.658,6.6849,6.7866,7.0324,7.2052,7.3783,7.5745,7.7438,7.8477,7.8477,7.9054,8.0092,8.1785,8.317,8.4555,8.5978,8.6094,8.6094,8.6094,8.6094,8.6094,8.6094,8.5522,8.5137,8.4907,8.4286,8.3548,8.267,8.2432,8.2009,8.1439,8.1208,8.1093,8.1093,8.1093,8.1093,0.0,8.1093,8.1093,8.1093,8.1093,8.1093,8.1093,8.1093,8.1093,8.1093,8.1093,8.1093,8.1093,8.1093,8.1093,8.1093,8.1093,8.1093,8.1093,8.1093,8.09,8.0669,8.0407,7.9238,7.7959,7.7121,7.6438,7.6015,7.6015,7.6015,7.6015,7.6015,7.6015,7.6015,7.6015,7.6015,7.6015,7.6015,7.6015,7.6015,7.6092,7.6207,7.6245,7.6092,7.6079,7.6217,7.6483,7.5547,7.4961,7.5117,7.375,7.293,7.293,7.2344,7.1992,7.1992,7.1992,7.1992,7.1992,7.1992,7.1992,7.1992,7.1992,7.1992,8.0273,8.0195,7.9375,7.9375,7.7983,7.5938,7.3505,7.1641,6.9741,6.7395,6.6914,6.6914,6.6914,6.6606,6.7231,6.9797,7.1349,7.3091,7.563,7.7438,7.8477,7.8477,7.8515,7.9208,8.0939,8.3401,8.5209,8.6055,8.6094,8.6094,8.6094,8.6094,8.6094,8.6094,8.6094,8.5709,8.4907,8.4907,8.445,8.3605,8.2708,8.2278,8.224,8.1439,8.1093,8.1093,8.1093,8.1093,0.0,8.1093,8.1093,8.1093,8.1093,8.1093,8.1093,8.1093,8.1093,8.1093,8.1093,8.1093,8.1093,8.1093,8.1093,8.1093,8.1093,8.1093,8.1093,8.1093,8.0484,7.9638,7.8762,7.7908,7.7083,7.6207,7.6015,7.6015,7.6015,7.6015,7.6015,7.6015,7.6015,7.6015,7.6015,7.6015,7.6015,7.6015,7.6015,7.6053,7.6245,7.6284,7.613,7.5668,7.5624,7.5625,7.5625,7.4219,7.332,7.332,7.25,7.1992,7.1992,7.1992,7.1992,7.1992,7.1992,7.1992,7.1992,7.1992,7.1992,7.1992,7.1992,7.1992,7.6719,7.6797,7.668,7.5351,7.3798,7.2186,7.0748,6.9614,6.8507,6.7185,6.6914,6.6875,6.6719,6.6609,6.7657,7.1158,7.208,7.3399,7.6438,7.7823,7.8477,7.8477,7.9554,8.0708,8.1823,8.317,8.4362,8.5209,8.5786,8.6094,8.6094,8.6094,8.6094,8.6094,8.6094,8.5978,8.5747,8.5747,8.5291,8.4489,8.4214,8.3439,8.2278,8.2047,8.1624,8.1093,8.1093,8.1093,8.1093,8.1093,8.1093,8.1093,8.1093,8.1093,8.1093,8.1093,8.1093,8.1093,8.1093,8.1093,8.1093,8.1093,8.1093,8.1093,8.1093,8.1093,8.0977,8.0369,7.96,7.8723,7.79,7.7506,7.7083,7.6207,7.6015,7.6015,7.6015,7.6015,7.6015,7.6015,7.6015,7.6015,7.6015,7.6015,7.6053,7.6169,7.6207,7.6053,7.5668,7.5754,7.5542,7.4801,7.4318,7.4258,7.4883,7.3906,7.3281,7.3281,7.2461,7.1992,7.1992,7.1992,7.1992,7.1992,7.1992,7.1992,7.1992,7.1992,7.1992,7.1992,7.1992,7.1992,7.4453,7.4765,7.4726,7.3828,7.2383,7.0924,6.9997,6.8943,6.7969,6.707,6.6914,6.6875,6.6758,6.664,6.7464,7.0138,7.1364,7.287,7.5515,7.713,7.8169,7.8438,7.9746,8.0939,8.1785,8.2901,8.3939,8.4824,8.567,8.6094,8.6094,8.6094,8.6094,8.6094,8.6094,8.6094,8.6094,8.6094,8.5863,8.533,8.506,8.433,8.3247,8.2586,8.2201,8.2009,8.1362,8.1246,0.0,8.1208,8.1093,8.1093,8.1093,8.1093,8.1093,8.1093,8.1093,8.1093,8.1093,8.1093,8.1093,8.1093,8.09,8.0523,8.0215,8.0331,8.0439,7.9554,7.8707,7.7908,7.7429,7.7044,7.6698,7.613,7.6015,7.6015,7.6015,7.6015,7.6015,7.6015,7.6053,7.6092,7.6092,7.6169,7.6245,7.6361,7.6111,7.5797,7.5486,7.5233,7.4805,7.4023,7.3555,7.3398,7.3594,7.3125,7.2812,7.2812,7.2305,7.1992,7.1992,7.1992,7.1992,7.1992,7.1992,7.1992,7.1992,7.1992,7.1992,7.1992,7.1992,7.1992,0.0,7.3476,7.3203,7.3867,7.2812,7.1445,7.0625,6.9219,0.0,6.707,6.6914,6.6914,6.6992,6.6797,6.694,6.7852,6.9855,7.1919,7.3553,7.5938,7.7784,7.8592,7.94,8.0208,8.1016,8.2631,8.3939,8.4747,8.5632,8.6094,8.6094,8.6094,8.6094,8.6094,8.6094,8.6094,8.6094,8.6094,8.6094,8.6094,8.533,8.4983,8.4868,8.3208,8.2894,0.0,8.197,8.167,8.224,8.1477,8.1131,8.1093,8.1093,8.1093,8.1093,8.1093,8.1093,8.1093,8.1093,8.1054,8.1016,8.0939,8.0369,7.9561,7.8685,7.8954,7.9446,7.8652,7.7843,7.7198,7.7198,7.6621,7.6015,7.6015,7.6015,7.6015,7.6015,7.6015,7.6053,7.6053,7.6169,7.6313,7.6311,7.6415,7.6492,7.6531,7.5791,7.5273,7.543,7.4765,7.4023,7.3281,7.3242,7.2969,7.207,7.1992,7.1992,7.1992,7.1992,7.1992,7.1992,7.1992,7.1992,7.1992,7.1992,7.1992,7.1992,7.1992,7.1992,7.1992,7.1992,7.1992,6.6445,0.0,7.0117,6.8984,6.8398,6.8047,0.0,6.75,6.7148,6.6953,6.6914,6.7109,6.7773,6.7305,6.7927,7.1218,7.2071,7.3322,7.6169,7.8092,7.9515,8.04,8.0669,8.0862,8.1093,8.2631,8.367,8.3901,8.5286,8.6094,8.6094,8.6094,8.6094,8.6094,8.6094,8.6094,8.6094,8.6094,8.6094,8.6094,8.5901,8.5483,8.4907,8.4478,8.4016,8.3587,8.317,8.2747,8.2278,8.2086,8.1662,8.1093,8.1093,8.1093,8.1093,8.1093,8.1093,8.1093,8.1093,8.0669,7.9984,7.9338,7.8977,7.8622,7.7852,7.7737,7.7852,7.7622,7.6967,7.6284,7.6284,7.613,7.6015,7.6015,7.613,7.6207,7.6207,7.6322,7.6438,7.6438,7.6506,7.6519,7.6517,7.6028,7.5677,7.5794,7.5106,7.4375,7.3906,7.4258,7.3945,7.2461,7.289,7.2969,7.207,7.1992,7.1992,7.1992,7.1992,7.1992,7.1992,7.1992,7.1992,7.1992,7.1992,7.1992,7.1992,7.1992,7.1992,7.1992,7.1992,7.1992,6.418,6.5976,6.7461,6.6523,6.6289,6.6406,6.6797,6.6601,6.6406,6.6836,6.6914,6.7057,6.7525,6.7814,6.8637,7.0775,7.2277,7.4437,7.8054,7.9939,8.1131,8.1593,8.1631,8.1516,8.1131,8.2247,8.317,8.3555,8.4824,8.5709,8.6094,8.6094,8.6094,8.6094,8.6094,8.6094,8.6094,8.6094,8.6094,8.6094,8.6094,8.5863,8.5445,8.506,8.4863,8.4709,8.3907,8.3561,8.3439,8.2624,8.2047,8.1593,8.1246,8.1093,8.1093,8.1093,8.0862,8.0484,8.0484,7.9939,7.9054,7.8216,7.7977,7.792,7.7083,7.6929,7.6967,7.689,7.6438,7.6053,7.6207,7.6207,7.6169,7.6245,7.6361,7.6442,7.6436,7.6537,7.6615,7.6615,7.6692,7.6624,7.6206,7.582,7.5469,7.5195,7.4414,7.3711,7.3359,7.3359,7.3047,7.2109,7.2422,7.25,7.2031,7.1992,7.1992,7.1992,7.1992,7.1992,7.1992,7.1992,7.1992,7.1992,7.1992,7.1992,7.1992,7.1992,7.1992,7.1992,7.1992,7.1992,6.3945,6.5039,6.5781,6.5625,6.5703,6.5976,6.6719,6.6328,6.6015,6.6758,6.6914,6.7029,6.7398,6.8548,6.954,6.9903,7.2414,7.5533,7.9092,8.0939,8.1977,8.2093,8.2131,8.1862,8.117,8.1823,8.267,8.3516,8.4401,8.5247,8.6055,8.6094,8.6094,8.6094,8.6094,8.6094,8.6094,8.6094,8.6094,8.6094,8.6094,8.6094,8.6094,8.5368,8.5445,8.6017,0.0,0.0,8.4753,8.3016,8.2317,8.2201,8.1246,8.09,8.09,8.0785,8.0292,7.9638,7.9523,7.9007,7.8267,7.7429,7.7314,7.7314,7.6583,7.6438,7.6583,7.6399,7.6261,7.6173,7.6524,7.6453,7.6378,7.6557,7.6635,7.6671,7.6661,7.668,7.664,7.6523,7.664,7.6484,7.5586,7.5469,7.5234,7.4492,7.3672,7.3086,7.3086,7.2578,7.2148,7.1992,7.2109,7.2148,7.1992,7.1992,7.1992,7.1992,7.1992,7.1992,7.1992,7.1992,7.1992,7.1992,7.1992,7.1992,7.1992,7.1992,7.1992,7.1992,7.1992,7.1992,6.3476,6.5469,6.6523,6.5781,6.6133,6.6758,6.6875,6.6797,6.6758,6.6875,6.6914,6.7577,6.9703,7.029,7.1401,7.4357,7.6149,7.7523,7.8554,7.9554,8.0477,8.1208,8.1285,8.1246,8.1093,8.1823,8.267,8.3516,8.4401,8.5247,8.6055,8.6094,8.6094,8.6094,8.6094,8.6094,8.6094,8.6094,8.6094,8.6094,8.6094,8.6094,8.6094,8.5978,8.5978,8.6055,0.0,8.4753,8.4753,8.299,8.2292,8.2163,8.0631,7.9984,7.9946,7.9338,7.9069,7.8877,7.8284,7.8036,7.7766,7.6967,7.6736,7.6736,7.6583,7.6583,7.6621,7.6775,7.6665,7.6505,7.6571,7.6566,7.6575,7.6575,7.6731,7.6857,7.6835,7.6992,7.6875,7.6133,7.6015,7.5781,7.4883,7.418,7.3633,7.3515,7.2773,7.2187,7.2187,7.2734,7.2812,7.207,7.2656,7.2812,7.207,7.1992,7.1992,7.1992,7.1992,7.1992,7.1992,7.1992,7.1992,7.1992,7.1992,7.1992,7.1992,7.1992,7.1992,7.1992,7.1992,7.1992,6.1758,6.3476,6.5039,6.6055,6.7656,6.9219,7.0156,7.0,6.9648,6.9648,6.9648,6.9878,7.0551,7.1295,7.2716,7.5495,7.7207,7.8438,7.9092,8.0323,8.1285,8.1708,8.1747,8.1593,8.1131,8.1439,8.2016,8.2824,8.3708,8.4555,8.5401,8.5863,8.6094,8.6094,8.6094,8.5901,8.5478,8.544,8.567,8.6094,8.6094,8.6094,8.6094,8.6094,8.6094,8.6055,0.0,8.4901,8.4753,8.299,8.2138,8.1747,8.0977,8.0138,7.9345,7.8572,7.8285,7.8168,7.7403,7.7131,7.7092,7.6702,7.6663,7.6741,7.6741,7.6819,7.6936,7.7053,7.6848,7.6634,7.6866,7.6855,7.6797,7.6914,7.6992,7.6914,7.6445,7.6445,7.625,7.5351,7.5195,7.4922,7.4062,7.3555,7.3125,7.2656,7.2265,7.1992,7.1992,7.2344,7.2422,7.2031,7.2344,7.2422,7.2031,7.1992,7.1992,7.1992,7.1992,7.1992,7.1992,7.1992,7.1992,7.1992,7.1992,7.1992,7.1992,7.1992,7.1992,7.1992,7.1992,7.1992,6.1289,6.2422,6.3984,6.6797,6.8672,7.043,7.2773,7.2461,7.1797,7.2226,7.2305,7.214,7.1692,7.2959,7.4653,7.6475,7.7814,7.8853,7.94,8.0785,8.1785,8.1977,8.2016,8.1785,8.117,8.1093,8.1439,8.2247,8.2901,8.367,8.4555,8.517,8.5517,8.5517,8.5517,8.5209,8.4593,8.4593,8.4901,8.5517,8.5517,8.5517,8.5517,8.5517,8.5555,8.5555,8.4709,8.4516,8.4593,8.2869,8.2023,8.1715,8.1131,7.9923,7.8546,7.8077,7.7773,7.7578,7.6953,7.6758,7.6758,7.6758,7.6836,7.6953,7.6953,7.707,7.7187,7.7187,7.6992,7.6797,7.7109,7.7109,7.6953,7.6914,7.6914,7.664,7.5781,7.5586,7.5351,7.4453,7.4297,7.4023,7.3164,7.3008,7.2773,7.2109,7.1992,7.1992,7.1992,7.1992,7.1992,7.1992,7.1992,7.1992,7.1992,7.1992,7.1992,7.1992,7.1992,7.1992,7.1992,7.1992,7.1992,7.1992,7.1992,7.1992,7.1992,7.1992,7.1992,7.1992,7.1992,7.1992,6.3906,6.4726,6.5,6.8398,6.8203,6.8242,7.2344,7.1992,7.125,7.2851,7.3203,7.3437,7.4178,7.6365,7.8248,7.8874,7.9028,7.896,7.8631,7.94,8.0285,8.1093,8.1208,8.117,8.1093,8.1093,8.1439,8.2247,8.2362,8.2785,8.3632,8.3747,8.3785,8.3785,8.3785,8.3747,8.367,8.367,8.3708,8.3785,8.3785,8.3785,8.3785,8.3785,8.3862,8.3984,8.3131,8.3324,8.4125,8.2439,8.217,8.2638,8.0215,7.836,7.7142,7.789,7.7773,7.7226,7.7187,7.7148,7.7148,7.7148,7.7187,7.7187,7.7187,7.7187,7.7187,7.7187,7.7187,7.7148,7.7187,7.7187,7.6992,7.6172,7.5976,7.5742,7.4883,7.4687,7.4453,7.3555,7.3398,7.3125,7.2226,7.2109,7.207,7.1992,7.1992,7.1992,7.1992,7.1992,7.1992,7.1992,7.1992,7.1992,7.1992,7.1992,7.1992,7.1992,7.1992,7.1992,7.1992,7.1992,7.1992,7.1992,7.1992,7.1992,7.1992,7.1992,7.1992,7.1992,7.1992,7.1992,6.1562,6.293,6.418,6.7109,6.8555,7.039,7.4726,7.5234,7.5234,7.6914,7.6875,7.6445,7.6094,7.6822,7.7702,7.8302,7.8296,7.8305,7.8661,7.9323,8.0131,8.1016,8.1093,8.1093,8.1093,8.1093,8.1246,8.1516,8.2016,8.2439,8.2747,8.3285,8.367,8.3785,8.3785,8.3632,8.3247,8.3247,8.2939,8.2401,8.3362,8.3785,8.3785,8.3901,8.3978,8.4048,8.3231,8.3087,8.3358,8.2178,8.1633,8.1377,7.9459,7.8682,7.8555,7.7851,7.7422,7.7187,7.7187,7.7187,7.7187,7.7187,7.7187,7.7187,7.7187,7.7187,7.7109,7.6523,7.6406,7.6523,7.707,7.6797,7.6328,7.5976,7.5508,7.4844,7.3984,7.3789,7.3515,7.2656,7.25,7.2383,7.207,7.1992,7.1992,7.1992,7.1992,7.1992,7.1992,7.1992,7.1992,7.1992,7.1992,7.1992,7.1992,7.1992,7.1992,7.1992,7.1992,7.1992,7.1992,7.1992,7.1992,7.1992,7.1992,7.1992,7.1992,7.1992,7.1992,7.1992,7.1992,7.1992,6.1328,6.2695,6.4492,6.7383,6.9414,7.1836,7.6211,7.6758,7.6992,7.9258,7.8828,7.7969,7.75,7.7187,7.722,7.7901,7.7875,7.8037,7.8787,7.9546,8.0285,8.117,8.1285,8.1285,8.1285,8.1285,8.1285,8.1285,8.1785,8.2093,8.2093,8.267,8.3054,8.3208,8.322,8.3023,8.2598,8.2598,8.2289,8.1697,8.2794,8.3256,8.3216,8.3359,8.3452,8.3464,8.2932,8.2742,8.2725,8.2151,8.1477,8.0728,7.9996,7.9531,7.9219,7.832,7.7656,7.7187,7.7187,7.7187,7.7187,7.7187,7.7187,7.7187,7.7187,7.6992,7.668,7.6055,7.5703,7.5625,7.6211,7.5937,7.543,7.5156,7.4609,7.3945,7.3086,7.289,7.2695,7.2109,7.1992,7.1992,7.1992,7.1992,7.1992,7.1992,7.1992,7.1992,7.1992,7.1992,7.1992,7.1992,7.1992,7.1992,7.1992,7.1992,7.1992,7.1992,7.1992,7.1992,7.1992,7.1992,7.1992,7.1992,7.1992,7.1992,7.1992,7.1992,7.1992,7.1992,7.1914,7.1758,6.4258,6.4922,6.6406,6.9805,7.0703,7.1875,7.6211,7.5859,7.5586,7.8984,7.8359,7.7461,7.8359,7.7773,7.7422,7.8086,7.8203,7.8416,7.9018,7.9836,8.0692,8.1585,8.1701,8.1701,8.1701,8.1701,8.1701,8.1701,8.1701,8.1701,8.1701,8.1701,8.1701,8.1701,8.1695,8.168,8.1734,8.1719,8.1719,8.1719,8.1891,8.1878,8.1719,8.168,8.1812,8.2001,8.2001,8.2107,8.2304,8.2304,8.1797,8.1094,8.1953,8.0742,7.8633,7.9414,7.8633,7.7226,7.7187,7.7187,7.7187,7.7187,7.7187,7.7187,7.7187,7.6562,7.5898,7.5898,7.5234,7.4609,7.457,7.457,7.4375,7.3515,7.3281,7.3047,7.2187,7.1992,7.1992,7.1992,7.1992,7.1992,7.1992,7.1992,7.1992,7.1992,7.1992,7.1992,7.1992,7.1992,7.1992,7.1992,7.1992,7.1992,7.1992,7.1992,7.1992,7.1992,7.1992,7.1992,7.1992,7.1992,7.1992,7.1992,7.1992,7.1992,7.1992,7.1992,7.1992,7.1992,7.1797,7.125,6.0547,6.2656,6.5234,6.7461,7.168,7.5625,7.6914,7.7265,7.7773,7.9375,7.8867,7.8203,7.8437,7.7773,7.7461,7.8281,7.7773,7.7769,7.9135,7.9399,8.0049,8.1504,8.1698,8.1698,8.1698,8.1698,8.1698,8.1698,8.1698,8.1698,8.1698,8.1698,8.1755,8.1893,8.1908,8.1971,8.212,8.2128,8.2108,8.2108,8.2187,8.2092,8.1917,8.2062,8.2137,8.2192,8.2192,8.2221,8.2304,8.2304,8.2148,8.1875,8.1523,8.0937,8.0156,7.9219,7.8555,7.8047,7.7422,7.7187,7.7109,7.6484,7.6289,7.6172,7.5547,7.5195,7.4844,7.4258,7.3867,7.3555,7.293,7.2773,7.2851,7.3203,7.2812,7.2305,7.207,7.1992,7.1992,7.1992,7.1992,7.1992,7.1992,7.1992,7.1992,7.1992,7.1992,7.1992,7.1992,7.1992,7.1992,7.1992,7.1992,7.1992,7.1992,7.1992,7.1992,7.1992,7.1992,7.1992,7.1992,7.1992,7.1992,7.1992,7.1992,7.1992,7.1992,7.1875,7.1797,7.1758,7.1015,7.0512,6.3242,6.6015,6.8906,7.0976,7.4375,7.7461,7.8476,7.8867,7.9023,7.918,7.8555,7.7969,7.7969,7.7539,7.7383,7.789,7.7734,7.8008,7.9336,7.9694,8.0367,8.1763,8.1958,8.1958,8.1958,8.1958,8.1958,8.1958,8.1958,8.1958,8.1958,8.1958,8.1999,8.2144,8.2126,8.2169,8.2304,8.2293,8.2309,8.2309,8.2303,8.2242,8.2105,8.2221,8.2304,8.2304,8.2304,8.2304,8.2304,8.2304,8.2304,8.2265,8.1719,8.1289,8.0898,7.9883,7.8867,7.789,7.7383,7.6758,7.6094,7.5547,7.539,7.5273,7.4765,7.4375,7.3984,7.3437,7.3047,7.2656,7.2148,7.1992,7.2148,7.2656,7.2383,7.1992,7.1992,7.1992,7.1992,7.1992,7.1992,7.1992,7.1992,7.1992,7.1992,7.1992,7.1992,7.1992,7.1992,7.1992,7.1992,7.1992,7.1992,7.1992,7.1992,7.1992,7.1992,7.1992,7.1992,7.1992,7.1992,7.1992,7.1992,7.1992,7.1914,7.1875,7.1875,7.1719,7.162,7.1583,7.057,6.9911,6.8906,7.1953,7.4883,7.75,7.7851,7.8164,8.0469,8.0312,7.9453,7.8672,7.7812,7.7187,7.7187,7.7187,7.7187,7.7187,7.7851,7.8672,7.957,8.039,8.1211,8.2187,8.2304,8.2304,8.2304,8.2304,8.2304,8.2304,8.2304,8.2304,8.2304,8.2304,8.2304,8.2304,8.2304,8.2304,8.2304,8.2304,8.2304,8.2304,8.2304,8.2304,8.2304,8.2304,8.2304,8.2304,8.2304,8.2304,8.2304,8.2304,8.2304,8.2304,8.2304,8.1758,8.0976,8.0898,7.9336,7.7187,7.7109,7.5976,7.4609,7.4492,7.4492,7.4453,7.4375,7.3828,7.3164,7.3164,7.2617,7.1992,7.1992,7.1992,7.1992,7.1992,7.1992,7.1992,7.1992,7.1992,7.1992,7.1992,7.1992,7.1992,7.1992,7.1992,7.1992,7.1992,7.1992,7.1992,7.1992,7.1992,7.1992,7.1992,7.1992,7.1992,7.1992,7.1992,7.1992,7.1953,7.1953,7.1953,7.1953,7.1953,7.1953,7.1953,7.1797,7.1679,7.1671,7.1554,7.1427,7.1321,7.0256,6.9321,6.2422,6.6992,7.2187,7.4805,7.7812,8.0312,8.0898,8.0312,7.9453,7.8672,7.7812,7.7187,7.7187,7.7187,7.7187,7.7187,7.7344,7.8008,7.9492,7.9844,8.0547,8.2109,8.2304,8.2304,8.2304,8.2304,8.2304,8.2304,8.2304,8.2304,8.2304,8.2304,8.2304,8.2304,8.2304,8.2304,8.2304,8.2304,8.2304,8.2304,8.2304,8.2304,8.2304,8.2304,8.2304,8.2304,8.2304,8.2304,8.2304,8.2304,8.2304,8.2304,8.2304,8.1758,8.0937,8.0234,7.8789,7.7109,7.6406,7.5508,7.4492,7.3789,7.3594,7.3437,7.2773,7.2422,7.2265,7.2265,7.2148,7.1992,7.1992,7.1992,7.1992,7.1992,7.1992,7.1992,7.1992,7.1992,7.1992,7.1992,7.1992,7.1992,7.1992,7.1992,7.1992,7.1992,7.1992,7.1992,7.1992,7.1992,7.1992,7.1992,7.1992,7.1992,7.1992,7.1992,7.1914,7.1758,7.1758,7.1719,7.1601,7.1719,7.1758,7.1758,7.1601,7.1526,7.1567,7.1352,7.0908,7.0217,6.919,6.8256,6.4219,6.8555,7.2773,7.6172,7.9023,8.0898,8.0469,7.9726,7.8906,7.8047,7.7539,7.7187,7.7187,7.7187,7.7187,7.7187,7.7539,7.8242,7.9531,8.0078,8.082,8.2148,8.2304,8.2304,8.2304,8.2304,8.2304,8.2304,8.2304,8.2304,8.2304,8.2304,8.2304,8.2304,8.2304,8.2304,8.2304,8.2304,8.2304,8.2304,8.2304,8.2304,8.2304,8.2304,8.2304,8.2304,8.2304,8.2304,8.2265,8.1836,8.1679,8.164,8.1211,8.0781,8.0312,7.9883,7.8633,7.707,7.6211,7.5312,7.4453,7.3594,7.3281,7.3203,7.2773,7.2344,7.1992,7.1992,7.1992,7.1992,7.1992,7.1992,7.1992,7.1992,7.1992,7.1992,7.1992,7.1992,7.1992,7.1992,7.1992,7.1992,7.1992,7.1992,7.1992,7.1992,7.1992,7.1992,7.1992,7.1992,7.1992,7.1992,7.1992,7.1953,7.1875,7.1875,7.1797,7.1601,7.1581,7.1589,7.1511,7.1472,7.1511,7.1589,7.1433,7.1374,7.1387,7.1129,7.0629,6.9794,6.8859,6.7924,6.6523,7.0859,7.4336,7.8633,8.0469,8.0976,7.9922,7.918,7.8437,7.7422,7.7187,7.7187,7.7187,7.7187,7.7187,7.7187,7.7812,7.8594,7.957,8.0312,8.1133,8.2187,8.2304,8.2304,8.2304,8.2304,8.2304,8.2304,8.2304,8.2304,8.2304,8.2304,8.2304,8.2304,8.2304,8.2304,8.2304,8.2304,8.2304,8.2304,8.2304,8.2304,8.2304,8.2304,8.2304,8.2304,8.2148,8.207,8.1992,8.1133,8.0781,8.0703,7.9961,7.9609,7.9492,7.9492,7.8437,7.6836,7.5976,7.5117,7.4219,7.3359,7.3086,7.3086,7.3086,7.2578,7.1992,7.1992,7.1992,7.1992,7.1992,7.1992,7.1992,7.1992,7.1992,7.1992,7.1992,7.1992,7.1992,7.1992,7.1992,7.1992,7.1992,7.1992,7.1992,7.1992,7.1992,7.1992,7.1992,7.1953,7.1953,7.1953,7.1914,7.1836,7.168,7.1669,7.1607,7.1451,7.1474,7.1426,7.1426,7.1245,7.1206,7.1387,7.1206,7.1129,7.1129,7.086,7.0256,6.9421,6.8578,6.7718,5.9101,6.6328,7.4336,7.8633,8.0937,8.1719,8.0078,7.9609,7.9101,7.7539,7.7187,7.7187,7.7187,7.7187,7.7187,7.7187,7.7305,7.793,7.9492,7.9805,8.0469,8.2109,8.2304,8.2304,8.2304,8.2304,8.2304,8.2304,8.2304,8.2304,8.2304,8.2304,8.2304,8.2304,8.2304,8.2304,8.2304,8.2304,8.2304,8.2304,8.2304,8.2304,8.2304,8.2304,8.2304,8.2265,8.1484,8.1172,8.1094,8.0234,7.9883,7.9844,7.9765,7.9258,7.8672,7.8672,7.7578,7.5937,7.5078,7.4219,7.332,7.2461,7.2187,7.2187,7.2187,7.2109,7.1992,7.1992,7.1992,7.1992,7.1992,7.1992,7.1992,7.1992,7.1992,7.1992,7.1992,7.1992,7.1992,7.1992,7.1992,7.1992,7.1992,7.1992,7.1992,7.1992,7.1992,7.1992,7.1992,7.1836,7.1758,7.1758,7.164,7.1562,7.1523,7.152,7.1448,7.1255,7.1236,7.1168,7.0975,7.0937,7.0937,7.0975,7.0937,7.0937,7.0937,7.0217,6.9421,6.8548,6.7667,6.6846,6.125,6.8711,7.5547,7.8867,8.0625,8.125,8.0,7.9336,7.8672,7.7461,7.7187,7.7187,7.7187,7.7187,7.7187,7.7187,7.7617,7.8203,7.8906,7.9844,8.0703,8.1484,8.1992,8.2304,8.2304,8.2304,8.2304,8.2304,8.2304,8.2304,8.2304,8.2304,8.2304,8.2304,8.2304,8.2304,8.2304,8.2304,8.2304,8.2304,8.2304,8.2031,8.1562,8.1562,8.1562,8.1562,8.1172,8.0703,8.0195,7.9375,7.9023,7.8984,7.8476,7.8086,7.7773,7.7773,7.6992,7.5859,7.5469,7.4765,7.3984,7.3594,7.3125,7.2734,7.2734,7.2383,7.1992,7.1992,7.1992,7.1992,7.1992,7.1992,7.1992,7.1992,7.1992,7.1992,7.1992,7.1992,7.1992,7.1992,7.1992,7.1992,7.1992,7.1992,7.1992,7.1992,7.1914,7.1836,7.1836,7.168,7.1577,7.1573,7.1529,7.1451,7.1334,7.1324,7.1245,7.1052,7.1014,7.0975,7.0898,7.0898,7.0898,7.0898,7.0898,7.0667,7.0217,6.9871,6.8987,6.7667,6.7269,6.6654,6.2422,6.8711,7.3555,7.7422,7.9375,8.0234,7.9805,7.9258,7.8515,7.7422,7.7187,7.7187,7.7187,7.7187,7.7187,7.7187,7.7734,7.8242,7.8476,7.9765,8.0742,8.0976,8.1758,8.2304,8.2304,8.2304,8.2304,8.2304,8.2304,8.2304,8.2304,8.2304,8.2304,8.2304,8.2304,8.2304,8.2304,8.2304,8.2187,8.1953,8.1953,8.1523,8.0664,8.0664,8.0547,8.0351,8.0351,8.0,7.9336,7.8515,7.8164,7.8125,7.7461,7.7187,7.7187,7.7187,7.664,7.5859,7.5664,7.5,7.4219,7.4023,7.3515,7.2969,7.2969,7.2539,7.1992,7.1992,7.1992,7.1992,7.1992,7.1992,7.1992,7.1992,7.1992,7.207,7.2265,7.2344,7.2344,7.2344,7.2344,7.2265,7.2031,7.1953,7.1914,7.1914,7.1758,7.1636,7.1657,7.1533,7.142,7.1416,7.1387,7.1283,7.1129,7.1129,7.1052,7.0898,7.0898,7.0898,7.0898,7.0898,7.0898,7.0898,7.0706,7.0294,6.9717,6.9487,6.859,6.7102,6.6885,6.6461,5.789,6.1601,6.5469,7.3008,7.6758,7.8828,7.9531,7.9687,7.918,7.7539,7.7187,7.7187,7.7187,7.7187,7.7187,7.7187,7.7226,7.7578,7.8398,7.9219,8.0078,8.0898,8.1758,8.2304,8.2304,8.2304,8.2304,8.2304,8.2304,8.2304,8.2304,8.2304,8.2304,8.2304,8.2304,8.2304,8.2304,8.2304,8.1875,8.1054,8.1054,8.0625,7.9765,7.9765,7.9336,7.8633,7.8633,7.8594,7.8515,7.7617,7.7265,7.7265,7.7226,7.7187,7.7187,7.7187,7.664,7.5781,7.4961,7.4101,7.3242,7.2383,7.2109,7.207,7.207,7.2031,7.1992,7.1992,7.1992,7.1992,7.1992,7.1992,7.1992,7.1992,7.1992,7.2226,7.3047,7.3242,7.3242,7.3242,7.3242,7.2969,7.2148,7.1836,7.1719,7.1719,7.1601,7.1507,7.1525,7.1339,7.121,7.1233,7.1052,7.0937,7.0937,7.0937,7.0898,7.0898,7.0898,7.0898,7.0898,7.0898,7.0898,7.0898,7.014,6.9756,6.9717,6.8847,6.7988,6.7102,6.6346,6.5936,5.6328,5.9805,6.3515,6.9101,7.3281,7.6211,7.707,7.8515,7.9375,7.8242,7.7578,7.7187,7.7187,7.7187,7.7187,7.7187,7.7187,7.7305,7.7617,7.8828,7.9805,8.0117,8.1445,8.2304,8.2304,8.2304,8.2304,8.2304,8.2304,8.2304,8.2304,8.2304,8.2304,8.2304,8.2304,8.2031,8.1484,8.1484,8.1015,8.0156,8.0156,7.9726,7.8945,7.8945,7.8476,7.7656,7.7656,7.7656,7.7656,7.7344,7.7187,7.7187,7.7187,7.7187,7.7148,7.6562,7.582,7.5039,7.4726,7.3672,7.25,7.2734,7.2461,7.1992,7.1992,7.1992,7.1992,7.1992,7.1992,7.1992,7.1992,7.1992,7.1992,7.1992,7.1992,7.2226,7.3125,7.2851,7.2461,7.2461,7.2461,7.2383,7.2031,7.1836,7.1694,7.1708,7.1469,7.13,7.1325,7.1129,7.1014,7.1014,7.0937,7.0898,7.0898,7.0898,7.0898,7.0898,7.0898,7.0898,7.0898,7.0898,7.0898,7.0898,7.0102,6.9421,6.8883,6.8001,6.7141,6.6346,6.6013,6.5897,5.3398,5.6719,6.0664,6.5312,6.9023,7.2344,7.5234,7.6992,7.8008,7.8047,7.7617,7.7187,7.7187,7.7187,7.7187,7.7187,7.7187,7.7187,7.7187,7.8398,7.9414,7.9687,8.0976,8.1875,8.1875,8.2148,8.2187,8.1875,8.2148,0.0,8.2304,8.2304,8.2187,8.1875,8.2148,8.1758,8.0586,8.0859,8.0429,7.9297,7.9297,7.8867,7.8047,7.8047,7.7734,7.7187,7.7187,7.7187,7.7187,7.7187,7.7187,7.7187,7.7187,7.7187,7.7148,7.6562,7.5781,7.5,7.4687,7.3633,7.2461,7.2773,7.2461,7.1992,7.1992,7.1992,7.1992,7.1992,7.1992,7.1992,7.1992,7.1953,7.1914,7.1914,7.1875,7.1992,7.2578,7.2578,7.2422,7.2344,7.2344,7.2226,7.1875,7.168,7.1546,7.1555,7.1283,7.1091,7.1091,7.0975,7.0898,7.0898,7.0898,7.0898,7.0898,7.0898,7.0898,7.0898,7.0898,7.0898,7.0898,7.0898,7.0783,7.0514,6.9679,6.8806,6.7987,6.7385,6.6692,6.5897,6.5897,6.5782,0.0,0.0,0.0,6.1484,6.4062,6.7187,7.4023,7.4922,7.4883,7.6758,7.707,7.707,7.7187,7.7187,7.7187,7.7187,7.7187,7.7187,7.7187,7.7969,7.8789,7.957,8.0429,8.0976,8.0976,8.1719,8.1875,8.1015,8.1758,8.2226,8.2226,8.2226,8.1836,8.0976,8.1797,8.1406,7.9687,8.0508,8.0117,7.8476,7.8476,7.8008,7.7187,7.7187,7.7187,7.7187,7.7187,7.7187,7.7187,7.7187,7.7187,7.7187,7.7187,7.7187,7.7148,7.7148,7.6601,7.5703,7.4844,7.3984,7.3125,7.2265,7.1992,7.1992,7.1992,7.1992,7.1992,7.1992,7.1992,7.1992,7.1992,7.1836,7.168,7.1679,7.1601,7.1484,7.1484,7.2421,7.3202,7.3008,7.2968,7.2655,7.1679,7.1327,7.1182,7.1183,7.1014,7.0898,7.0898,7.0898,7.0898,7.0898,7.0898,7.0898,7.0898,7.0898,7.0898,7.0898,7.0898,7.0898,7.0898,7.0898,7.0514,6.9717,6.8844,6.7987,6.7102,6.7064,6.6654,6.5859,6.5859,6.5564,4.8906,0.0,0.0,0.0,0.0,0.0,6.6523,6.8281,7.0234,7.4453,7.4336,7.4219,7.6758,7.7187,7.7187,7.7187,7.7187,7.7187,7.7187,7.7969,7.8594,7.8828,7.957,8.0078,8.0078,8.0273,8.0312,0.0,8.0273,8.0429,8.0429,8.0429,8.0312,8.0078,8.0273,7.9922,7.8828,7.9062,7.8633,7.7578,7.7578,7.7422,7.7187,7.7187,7.7187,7.7187,7.7187,7.7187,7.7187,7.7187,7.7187,7.7187,7.7187,7.6797,7.625,7.625,7.5312,7.3984,7.375,7.3086,7.2305,7.207,7.1992,7.1992,7.1992,7.1914,7.1797,7.1797,7.1719,7.164,7.164,7.1601,7.1545,7.1559,7.1533,7.1494,7.1494,7.1785,7.198,7.1945,7.1905,7.1824,7.1533,7.1339,7.1197,7.121,7.1014,7.0898,7.0898,7.0898,7.0898,7.0898,7.0898,7.0898,7.0898,7.0898,7.0898,7.0898,7.0898,7.0898,7.0898,7.0898,7.0514,6.9717,6.8821,6.7808,6.6577,6.6346,6.5897,6.5295,6.4987,6.4762,4.9922,5.0664,5.1992,5.4453,0.0,0.0,6.457,6.6445,6.8555,7.4453,7.4883,7.4805,7.6836,7.7187,7.7187,7.7187,7.7187,7.7187,7.7187,7.7656,7.8086,7.8476,7.8906,7.9219,7.9219,7.9492,7.957,7.9219,7.9492,7.9687,7.9687,7.9687,7.9531,7.9219,7.9531,7.914,7.7969,7.832,7.8047,7.7187,7.7187,7.7187,7.7187,7.7187,7.7187,7.7187,7.7187,7.6992,7.664,7.664,7.6875,7.7148,7.6797,7.6367,7.5859,7.5508,7.4726,7.3789,7.3437,7.2969,7.2461,7.2031,7.1875,7.1875,7.1797,7.1714,7.1611,7.1611,7.1572,7.1494,7.1494,7.1455,7.1393,7.1376,7.1283,7.1245,7.1245,7.1245,7.1246,7.1381,7.1358,7.1349,7.1245,7.1129,7.1052,7.1052,7.0975,7.0898,7.0898,7.0898,7.0898,7.0898,7.0898,7.0898,7.0898,7.0898,7.0898,7.0898,7.0898,7.0898,7.0898,7.0591,6.991,6.8844,6.8001,6.6921,6.5571,6.5561,6.5303,6.4815,6.4287,6.4053,5.1758,5.1914,5.2812,5.5625,5.5351,0.0,6.4765,6.6172,6.7617,7.414,7.5469,7.5586,7.5976,7.6133,7.6172,7.6055,7.6445,7.6875,7.7148,7.7187,7.75,7.8242,7.8359,7.8359,7.8359,7.8984,7.914,7.8398,7.9023,7.9414,7.9414,7.9414,7.9101,7.8398,7.9062,7.8711,7.7226,7.7969,7.793,7.707,7.707,7.6992,7.6914,7.6914,7.6914,7.6914,7.6914,7.6484,7.5742,7.5742,7.6211,7.6836,7.6055,7.5703,7.5547,7.4844,7.4492,7.4219,7.3515,7.3203,7.2968,7.1984,7.1666,7.1666,7.1549,7.1496,7.1464,7.1464,7.1426,7.1426,7.1426,7.1283,7.1168,7.1168,7.1014,7.0898,7.0898,7.0898,7.0937,7.1129,7.1168,7.1091,7.0937,7.0898,7.0898,7.0898,7.0898,7.0898,7.0898,7.0898,7.0898,7.0898,7.0898,7.0898,7.0898,7.0898,7.0898,7.0898,7.0898,7.0821,7.0667,6.9986,6.8921,6.7434,6.6546,6.5492,6.4278,6.4737,6.4739,6.4278,6.375,6.3479,5.4062,5.5039,5.6289,5.4844,5.582,0.0,5.6836,5.7734,5.9765,6.3867,6.4726,6.5586,6.8398,6.9492,6.9726,6.9023,7.1797,7.4805,7.6914,7.7187,7.7265,7.7422,7.7461,7.7461,7.7461,7.7617,7.7617,7.7461,7.7617,7.7695,7.7695,7.7695,7.7617,7.7461,7.7617,7.7539,7.7187,7.7383,7.7031,7.6133,7.6133,7.5781,7.5117,7.5117,7.5117,7.5117,7.5117,7.5,7.4844,7.4844,7.4961,7.5078,7.4922,7.4414,7.3867,7.4414,7.3711,7.2578,7.293,7.2617,7.1945,7.1642,7.1523,7.1523,7.1523,7.14,7.1206,7.1052,7.1014,7.1014,7.1014,7.0975,7.0975,7.0975,7.0937,7.0898,7.0898,7.0898,7.0898,7.0937,7.0975,7.0937,7.0898,7.0898,7.0898,7.0898,7.0898,7.0898,7.0898,7.0898,7.0898,7.0898,7.0898,7.0898,7.0898,7.0898,7.0898,7.0898,7.0898,7.0409,6.9306,6.9152,6.8075,6.6026,6.4784,6.4012,6.375,6.3864,6.3817,6.375,6.3222,6.2952,5.5898,5.5625,5.6048,5.6349,5.5873,0.0,0.0,5.7088,5.8451,6.3098,6.3388,6.3594,6.617,6.6327,6.6209,6.6589,6.9599,7.207,7.25,7.5234,7.7187,7.7187,7.7187,0.0,7.7187,7.7187,7.7187,7.7187,7.7187,7.7187,7.7187,7.7187,7.7187,7.7187,7.6797,7.6562,7.6562,7.6133,7.5664,7.5234,7.5234,7.5039,7.4609,7.4609,7.4531,7.4453,7.4453,7.418,7.3711,7.3711,7.3437,7.3086,7.3594,7.3555,7.3125,7.3086,7.25,7.1797,7.2148,7.1982,7.1583,7.14,7.1349,7.1321,7.1206,7.1129,7.1014,7.0937,7.0898,7.0898,7.0898,7.0898,7.0898,7.0898,7.0898,7.0898,7.0898,7.0898,7.0898,7.0898,7.0898,7.0898,7.0898,7.0898,7.0898,7.0898,7.0898,7.0898,7.0898,7.0898,7.0898,7.0898,7.0898,7.0898,7.0898,7.0898,7.0783,7.0514,7.0102,6.9459,6.8548,6.7715,6.6446,6.4671,6.3659,6.3222,6.3222,6.3222,6.3222,6.3222,6.2915,6.2805,5.8124,5.664,5.6146,5.795,5.6278,5.4879,0.0,0.0,0.0,6.2793,6.2743,6.234,6.3675,6.2974,6.2534,6.3742,6.6611,6.8101,6.6398,7.1205,0.0,7.543,7.6484,0.0,7.6484,7.5976,7.6133,7.7109,7.6289,7.6133,7.7148,7.7187,7.7187,7.7187,7.6367,7.5894,7.5824,7.496,7.4466,7.4249,7.4249,7.4175,7.3984,7.3984,7.3906,7.375,7.3768,7.3281,7.2539,7.2539,7.2149,7.1568,7.238,7.2728,7.2617,7.1797,7.1485,7.1485,7.1446,7.1427,7.1426,7.1206,7.1129,7.1091,7.0937,7.0898,7.0898,7.0898,7.0898,7.0898,7.0898,7.0898,7.0898,7.0898,7.0898,7.0898,7.0898,7.0898,7.0898,7.0898,7.0898,7.0898,7.0898,7.0898,7.0898,7.0898,7.0898,7.0898,7.0898,7.0898,7.0898,7.0898,7.0898,7.0898,7.0898,7.0821,7.0552,7.014,6.9276,6.8438,6.7713,6.602,6.4549,6.3443,6.3025,6.2805,6.2805,6.2805,6.2805,6.2805,6.2805,6.2805,6.1967,6.1445,6.0998,5.755,5.8046,5.8141,5.3241,0.0,5.4959,5.4091,0.0,5.4843,5.5016,0.0,0.0,5.5132,5.9148,6.175,6.0069,6.37,6.724,6.9023,7.3945,0.0,0.0,7.164,7.2226,7.6836,7.2969,7.2383,7.6953,7.7187,7.7187,7.7187,7.6367,7.5811,7.5654,7.478,7.3878,7.299,7.299,7.2604,7.1836,7.1836,7.1836,7.1834,7.1836,7.1772,7.1656,7.1656,7.1617,7.1518,7.1618,7.1653,7.1656,7.154,7.1502,7.1463,7.1284,7.1223,7.1206,7.1014,7.0937,7.0937,7.0898,7.0898,7.0898,7.0898,7.0898,7.0898,7.0898,7.0898,7.0898,7.0898,7.0898,7.0898,7.0898,7.0898,7.0898,7.0898,7.0898,7.0898,7.0898,7.0898,7.0898,7.0898,7.0898,7.0898,7.0898,7.0898,7.0898,7.0898,7.0898,7.0898,7.0898,7.0475,7.014,7.0102,6.888,6.7629,6.6378,6.4279,6.3025,6.2879,6.2842,6.2805,6.2805,6.2805,6.2805,6.2805,6.2805,6.2805,6.1162,6.1556,6.2107,5.8708,5.8725,5.8317,5.352,5.2489,5.2647,5.28,0.0,0.0,0.0,0.0,0.0,0.0,5.5363,5.6927,5.5139,5.9584,6.369,6.5478,0.0,0.0,0.0,0.0,0.0,0.0,7.2184,7.1507,7.6757,7.6912,7.6682,7.6265,7.5307,7.4533,7.3956,7.3123,7.2469,7.2048,7.2048,7.1862,7.1513,7.1513,7.1435,7.1326,7.1347,7.1245,7.1129,7.1129,7.1129,7.1145,7.1164,7.1221,7.1283,7.1168,7.1129,7.1129,7.1052,7.1014,7.1014,7.0937,7.0898,7.0898,7.0898,7.0898,7.0898,7.0898,7.0898,7.0898,7.0898,7.0898,7.0898,7.0898,7.0898,7.0898,7.0898,7.0898,7.0898,7.0898,7.0898,7.0898,7.0898,7.0898,7.0898,7.0898,7.0898,7.0898,7.0898,7.0898,7.0898,7.0898,7.0629,7.0409,7.0409,6.9948,6.9527,6.9185,6.7492,6.5786,6.4241,6.3296,6.2805,6.2805,6.2805,6.2805,6.2805,6.2805,6.2535,6.2118,6.2572,6.2535,6.1822,6.2106,6.2485,5.9003,5.8189,5.7267,5.3494,5.2087,5.1779,5.2664,5.2241,0.0,0.0,0.0,5.0702,5.1471,0.0,5.3282,5.1298,5.4882,5.8579,6.0799,0.0,0.0,0.0,0.0,0.0,0.0,0.0,6.9788,7.6466,7.6676,7.6399,7.5859,7.4651,7.37,7.3079,7.1965,7.1387,7.1321,7.1321,7.1321,7.1321,7.1321,7.1245,7.1129,7.1129,7.1014,7.0898,7.0898,7.0898,7.0898,7.0898,7.0975,7.1091,7.0937,7.0898,7.0898,7.0898,7.0898,7.0898,7.0898,7.0898,7.0898,7.0898,7.0898,7.0898,7.0898,7.0898,7.0898,7.0898,7.0898,7.0898,7.0898,7.0898,7.0898,7.0898,7.0898,7.0898,7.0898,7.0898,7.0898,7.0898,7.0898,7.0898,7.0898,7.0898,7.0898,7.0898,7.0783,7.0667,7.0667,7.0179,6.9894,6.987,6.9192,6.8332,6.739,6.586,6.4315,6.2879,6.2805,6.2805,6.2805,6.2805,6.2805,6.2805,6.2805,6.2388,6.1629,6.2192,6.1935,6.6054,6.4749,6.2818,5.7597,5.63,5.5318,5.1643,5.201,5.2895,5.2125,5.3241,5.4126,5.3356,5.3126,5.2549,5.0971,5.1433,0.0,0.0,4.8394,4.9855,5.3514,0.0,0.0,0.0,0.0,0.0,0.0,0.0,0.0,7.6101,7.6575,7.6575,7.6573,7.4907,7.3933,7.379,7.208,7.1091,7.0937,7.0937,7.0937,7.0937,7.0937,7.0937,7.0898,7.0898,7.0898,7.0898,7.0898,7.0898,7.0898,7.0898,7.0898,7.0898,7.0898,7.0898,7.0898,7.0898,7.0898,7.0898,7.0898,7.0898,7.0898,7.0898,7.0898,7.0898,7.0898,7.0898,7.0898,7.0898,7.0898,7.0898,7.0898,7.0898,7.0898,7.0898,7.0898,7.0898,7.0898,7.0898,7.0898,7.0898,7.0898,7.0898,7.0898,7.0898,7.0898,7.0898,7.0475,7.014,7.014,6.9679,6.9341,6.9318,6.8104,6.6459,6.4383,6.4185,6.375,6.2842,6.2805,6.2805,6.2805,6.2805,6.2805,6.2805,6.2805,6.2388,6.1592,6.1629,6.0834,0.0,0.0,6.8515,6.1573,6.0575,5.9775,5.3957,5.2915,5.2972,5.2087,5.328,5.4241,5.3356,5.2741,5.1972,5.0856,4.9971,4.8509,0.0,4.4624,4.4624,4.6429,5.1776,0.0,0.0,0.0,0.0,0.0,0.0,0.0,0.0,7.6302,7.6019,7.5543,7.4312,7.3388,7.2773,7.1591,7.0975,7.0898,7.0898,7.0898,7.0898,7.0898,7.0898,7.0898,7.0898,7.0898,7.0898,7.0898,7.0898,7.0898,7.0898,7.0898,7.0898,7.0898,7.0898,7.0898,7.0898,7.0898,7.0898,7.0898,7.0898,7.0898,7.0898,7.0898,7.0898,7.0898,7.0898,7.0898,7.0898,7.0898,7.0898,7.0898,7.0898,7.0898,7.0898,7.0898,7.0898,7.0898,7.0898,7.0898,7.0898,7.0898,7.0898,7.0898,7.0591,7.0371,7.0371,6.991,6.9572,6.9579,6.9102,6.8735,6.8783,6.7531,6.597,6.4185,6.4067,6.3713,6.2842,6.2805,6.2805,6.2805,6.2805,6.2535,6.2008,6.2008,6.1286,5.9917,5.9441,5.892,6.918,7.0742,0.0,6.5039,6.419,6.3196,5.683,5.5691,5.5748,5.488,5.5109,5.5955,5.7618,5.5188,5.2838,5.2627,5.0067,4.6894,0.0,4.2008,4.1431,4.17,4.6502,0.0,0.0,0.0,0.0,0.0,0.0,0.0,0.0,0.0,7.5784,7.5361,7.4437,7.3514,7.2668,7.1783,7.1206,7.0898,7.0898,7.0898,7.0898,7.0898,7.0898,7.0898,7.0898,7.0898,7.0898,7.0898,7.0898,7.0898,7.0898,7.0898,7.0898,7.0898,7.0898,7.0898,7.0898,7.0898,7.0898,7.0898,7.0898,7.0898,7.0898,7.0898,7.0975,7.1283,7.1129,7.0975,7.1283,7.1129,7.0898,7.0898,7.0898,7.0898,7.0898,7.0898,7.0898,7.0898,7.0898,7.0898,7.0898,7.0744,7.0629,7.0629,7.0294,7.0017,6.9847,6.9359,6.9005,6.8999,6.8255,6.7577,6.701,6.6118,6.5077,6.3713,6.364,6.3369,6.2842,6.2805,6.2645,6.2388,6.2388,6.2008,6.1176,6.1207,6.0295,5.8685,5.8221,5.7582]},{"header":{"parameterUnit":"m.s-1","parameterCategory":1,"la1":30.6,"la2":29.2853,"lo1":-89.7004,"lo2":-87.6739,"dx":0.0162,"dy":0.0183,"nx":112,"ny":82,"refTime":"2022-11-09T18:00:00:Z","depth":0,"parameterNumber":3,"parameterNumberName":"V-component_of_WINDS"},"data":[0.0,0.0,0.0,0.0,0.0,0.0,0.0,0.0,0.0,0.0,0.0,0.0,0.0,0.0,0.0,0.0,0.0,0.0,0.0,0.0,0.0,0.0,0.0,0.0,0.0,0.0,0.0,0.0,0.0,0.0,0.0,0.0,0.0,0.0,0.0,0.0,0.0,0.0,0.0,0.0,0.0,0.0,0.0,0.0,0.0,0.0,0.0,0.0,0.0,0.0,0.0,0.0,0.0,0.0,0.0,0.0,0.0,0.0,0.0,0.0,0.0,0.0,0.0,0.0,0.0,0.0,0.0,0.0,0.0,0.0,0.0,0.0,0.0,0.0,0.0,0.0,0.0,0.0,0.0,0.0,0.0,0.0,0.0,0.0,0.0,0.0,0.0,0.0,0.0,0.0,0.0,0.0,0.0,0.0,0.0,0.0,0.0,0.0,0.0,0.0,0.0,0.0,0.0,0.0,0.0,0.0,0.0,0.0,0.0,0.0,0.0,0.0,0.0,0.0,0.0,0.0,0.0,0.0,0.0,0.0,0.0,0.0,0.0,0.0,0.0,0.0,0.0,0.0,0.0,0.0,0.0,0.0,0.0,0.0,0.0,0.0,0.0,0.0,0.0,0.0,0.0,0.0,0.0,0.0,0.0,0.0,0.0,0.0,0.0,0.0,0.0,0.0,0.0,0.0,0.0,0.0,0.0,0.0,0.0,0.0,0.0,0.0,0.0,0.0,0.0,0.0,0.0,0.0,0.0,0.0,0.0,0.0,0.0,0.0,0.0,0.0,0.0,0.0,0.0,0.0,0.0,0.0,0.0,0.0,0.0,0.0,0.0,0.0,0.0,0.0,0.0,0.0,0.0,0.0,0.0,0.0,0.0,0.0,0.0,0.0,0.0,0.0,0.0,0.0,0.0,0.0,0.0,0.0,0.0,0.0,0.0,0.0,0.0,0.0,0.0,0.0,0.0,0.0,0.0,0.0,0.0,0.0,0.0,0.0,0.0,0.0,0.0,0.0,0.0,0.0,0.0,0.0,0.0,0.0,0.0,0.0,0.0,0.0,0.0,0.0,0.0,0.0,0.0,0.0,0.0,0.0,0.0,0.0,0.0,0.0,0.0,0.0,0.0,0.0,0.0,0.0,0.0,0.0,0.0,0.0,0.0,0.0,0.0,0.0,0.0,0.0,0.0,0.0,0.0,0.0,0.0,0.0,0.0,0.0,0.0,0.0,0.0,0.0,0.0,0.0,0.0,0.0,0.0,0.0,0.0,0.0,0.0,0.0,0.0,0.0,0.0,0.0,0.0,0.0,0.0,0.0,0.0,0.0,0.0,0.0,0.0,0.0,0.0,0.0,0.0,0.0,0.0,0.0,0.0,0.0,0.0,0.0,0.0,0.0,0.0,0.0,0.0,0.0,0.0,0.0,0.0,0.0,0.0,0.0,0.0,0.0,0.0,0.0,0.0,0.0,0.0,0.0,0.0,0.0,0.0,0.0,0.0,0.0,0.0,0.0,0.0,0.0,0.0,0.0,0.0,0.0,0.0,0.0,0.0,0.0,0.0,0.0,0.0,0.0,0.0,0.0,0.0,0.0,0.0,0.0,0.0,0.0,0.0,0.0,0.0,0.0,0.0,0.0,0.0,0.0,0.0,0.0,0.0,0.0,0.0,0.0,0.0,0.0,0.0,0.0,0.0,0.0,0.0,0.0,0.0,0.0,0.0,0.0,0.0,0.0,0.0,0.0,0.0,0.0,0.0,0.0,0.0,0.0,0.0,0.0,0.0,0.0,0.0,0.0,0.0,0.0,0.0,0.0,0.0,0.0,0.0,0.0,0.0,0.0,0.0,0.0,0.0,0.0,0.0,0.0,0.0,0.0,0.0,0.0,0.0,0.0,0.0,0.0,0.0,0.0,0.0,0.0,0.0,0.0,0.0,0.0,0.0,0.0,0.0,0.0,0.0,0.0,0.0,0.0,0.0,0.0,0.0,0.0,0.0,0.0,0.0,0.0,0.0,0.0,0.0,0.0,0.0,0.0,0.0,0.0,0.0,0.0,0.0,0.0,0.0,0.0,0.0,0.0,0.0,0.0,0.0,0.0,0.0,0.0,0.0,0.0,0.0,0.0,0.0,0.0,0.0,0.0,0.0,0.0,0.0,0.0,0.0,0.0,0.0,0.0,0.0,0.0,0.0,0.0,0.0,0.0,0.0,0.0,0.0,0.0,0.0,0.0,0.0,0.0,0.0,0.0,0.0,0.0,0.0,0.0,0.0,0.0,0.0,0.0,0.0,0.0,0.0,0.0,0.0,0.0,0.0,0.0,0.0,0.0,0.0,0.0,0.0,0.0,0.0,0.0,0.0,0.0,0.0,0.0,0.0,0.0,0.0,0.0,0.0,0.0,0.0,0.0,0.0,0.0,0.0,0.0,0.0,0.0,0.0,0.0,0.0,0.0,0.0,0.0,0.0,0.0,0.0,0.0,0.0,0.0,0.0,0.0,0.0,0.0,0.0,0.0,0.0,0.0,0.0,0.0,0.0,0.0,0.0,0.0,0.0,0.0,0.0,0.0,0.0,0.0,0.0,0.0,0.0,0.0,0.0,0.0,0.0,0.0,0.0,0.0,0.0,0.0,0.0,0.0,0.0,0.0,0.0,0.0,0.0,0.0,0.0,0.0,0.0,0.0,0.0,0.0,0.0,0.0,0.0,0.0,0.0,0.0,0.0,0.0,0.0,0.0,0.0,0.0,0.0,0.0,0.0,0.0,0.0,0.0,0.0,0.0,0.0,0.0,0.0,0.0,0.0,0.0,0.0,0.0,0.0,0.0,0.0,0.0,0.0,0.0,0.0,0.0,0.0,0.0,0.0,0.0,0.0,0.0,0.0,0.0,0.0,0.0,0.0,0.0,0.0,0.0,0.0,0.0,0.0,0.0,0.0,0.0,0.0,0.0,0.0,0.0,0.0,0.0,0.0,0.0,0.0,0.0,0.0,0.0,0.0,0.0,0.0,0.0,0.0,0.0,0.0,0.0,0.0,0.0,0.0,0.0,0.0,0.0,0.0,0.0,0.0,0.0,0.0,0.0,0.0,0.0,0.0,0.0,0.0,0.0,0.0,0.0,0.0,0.0,0.0,0.0,0.0,0.0,0.0,0.0,0.0,0.0,0.0,0.0,0.0,0.0,0.0,0.0,0.0,0.0,0.0,0.0,0.0,0.0,0.0,0.0,0.0,0.0,0.0,0.0,0.0,0.0,0.0,0.0,0.0,0.0,0.0,0.0,0.0,0.0,0.0,0.0,0.0,0.0,0.0,0.0,0.0,0.0,0.0,0.0,0.0,0.0,0.0,0.0,0.0,0.0,0.0,0.0,0.0,0.0,0.0,0.0,0.0,0.0,0.0,0.0,0.0,0.0,0.0,0.0,0.0,0.0,0.0,0.0,0.0,0.0,0.0,0.0,0.0,0.0,0.0,0.0,0.0,0.0,0.0,0.0,0.0,0.0,0.0,0.0,0.0,0.0,0.0,0.0,0.0,0.0,0.0,0.0,0.0,0.0,0.0,0.0,0.0,0.0,0.0,0.0,0.0,0.0,0.0,0.0,0.0,0.0,0.0,0.0,0.0,0.0,0.0,0.0,0.0,0.0,0.0,0.0,0.0,0.0,0.0,0.0,0.0,0.0,0.0,0.0,0.0,0.0,0.0,0.0,0.0,0.0,0.0,0.0,0.0,0.0,0.0,0.0,0.0,0.0,0.0,0.0,0.0,0.0,0.0,0.0,0.0,0.0,0.0,0.0,0.0,0.0,0.0,0.0,0.0,0.0,0.0,0.0,0.0,0.0,0.0,0.0,0.0,0.0,0.0,0.0,0.0,0.0,0.0,0.0,0.0,0.0,0.0,0.0,0.0,0.0,0.0,0.0,0.0,0.0,0.0,0.0,0.0,0.0,0.0,0.0,0.0,0.0,0.0,0.0,0.0,0.0,0.0,0.0,0.0,0.0,0.0,0.0,0.0,0.0,0.0,0.0,0.0,0.0,0.0,0.0,0.0,0.0,0.0,0.0,0.0,0.0,0.0,0.0,0.0,0.0,0.0,0.0,0.0,0.0,0.0,0.0,0.0,0.0,0.0,0.0,0.0,0.0,0.0,0.0,0.0,0.0,0.0,0.0,0.0,0.0,0.0,0.0,0.0,0.0,0.0,0.0,0.0,0.0,0.0,0.0,0.0,0.0,0.0,0.0,0.0,0.0,0.0,0.0,0.0,0.0,0.0,0.0,0.0,0.0,0.0,0.0,0.0,0.0,0.0,0.0,0.0,0.0,0.0,0.0,0.0,0.0,0.0,0.0,0.0,0.0,0.0,0.0,0.0,0.0,0.0,0.0,0.0,0.0,0.0,0.0,0.0,0.0,0.0,0.0,0.0,0.0,0.0,0.0,0.0,0.0,0.0,0.0,0.0,0.0,0.0,0.0,0.0,0.0,0.0,0.0,0.0,0.0,0.0,0.0,0.0,0.0,0.0,0.0,0.0,0.0,0.0,0.0,0.0,0.0,0.0,0.0,0.0,0.0,0.0,0.0,0.0,0.0,0.0,0.0,0.0,0.0,0.0,0.0,0.0,0.0,0.0,0.0,0.0,0.0,0.0,0.0,0.0,0.0,0.0,0.0,0.0,0.0,0.0,0.0,0.0,0.0,0.0,0.0,0.0,0.0,0.0,0.0,0.0,0.0,0.0,0.0,0.0,0.0,0.0,0.0,0.0,0.0,0.0,0.0,0.0,0.0,0.0,0.0,0.0,0.0,0.0,0.0,0.0,0.0,0.0,0.0,0.0,0.0,0.0,0.0,0.0,0.0,0.0,0.0,0.0,0.0,0.0,0.0,0.0,0.0,0.0,0.0,0.0,0.0,0.0,0.0,0.0,0.0,0.0,0.0,0.0,0.0,0.0,0.0,0.0,0.0,0.0,0.0,0.0,0.0,0.0,0.0,0.0,0.0,0.0,0.0,0.0,0.0,0.0,0.0,0.0,0.0,0.0,0.0,0.0,0.0,0.0,0.0,0.0,0.0,0.0,0.0,0.0,0.0,0.0,0.0,0.0,0.0,0.0,0.0,0.0,0.0,0.0,0.0,0.0,0.0,0.0,0.0,0.0,0.0,0.0,0.0,0.0,0.0,0.0,0.0,0.0,0.0,0.0,0.0,0.0,0.0,0.0,0.0,0.0,0.0,0.0,0.0,0.0,0.0,0.0,0.0,0.0,0.0,0.0,0.0,0.0,0.0,0.0,0.0,0.0,0.0,0.0,0.0,0.0,0.0,0.0,0.0,0.0,0.0,0.0,0.0,0.0,0.0,0.0,0.0,0.0,0.0,0.0,0.0,0.0,0.0,0.0,0.029,0.1004,0.1143,0.1108,0.1034,0.0,0.0,0.0,0.0,0.0,0.0,0.0,0.0,0.0,0.0,0.0,0.0,0.0,0.0,0.0,0.0,0.0,0.0,0.0,0.0,0.0,0.0,0.0,0.0,0.0,0.0,0.0,0.0,0.0,0.0,0.0,0.0,0.0,0.0,0.0,0.0,0.0,0.0,0.0,0.0,0.0,0.0,0.0,0.0,0.0,0.0,0.0,0.0,0.0,0.0,0.0,0.0,0.0,0.0,0.0,0.0,0.0,0.0,0.0,0.0,0.0,0.0,0.0,0.0,0.0,0.0,0.0,0.0,0.0,0.0,0.0,0.0,0.0,0.0,0.0,0.0,0.0,0.0,0.0,0.0,0.0,0.0,0.0,0.0,0.0,0.0,0.0,0.0,0.0,0.0,0.0,0.0,0.0,0.0,0.0,0.0,0.0,0.0,0.0,0.0,0.0,0.0,0.0,0.0,0.0,0.0,0.0,0.2548,0.8552,0.9065,0.9188,0.9111,0.9094,0.0,0.0,0.0,0.0,0.0,0.0,0.0,0.0,0.0,0.0,0.0,0.0,0.0,0.0,0.0,0.0,0.0,0.0,0.0,0.0,0.0,0.0,0.0,0.0,0.0,0.0,0.0,0.0,0.0,0.0,0.0,0.0,0.0,0.0,0.0,0.0,0.0,0.0,0.0,0.0,0.0,0.0,0.0,0.0,0.0,0.0,0.0,0.0,0.0,0.0,0.0,0.0,0.0,0.0,0.0,0.0,0.0,0.0,0.0,0.0,0.0,0.0,0.0,0.0,0.0,0.0,0.0,0.0,0.0,0.0,0.0,0.0,0.0,0.0,0.0,0.0,0.0,0.0,0.0,0.0,0.0,0.0,0.0,0.0,0.0,0.0,0.0,0.0,0.0,0.0,0.0,0.0,0.0,0.0,0.0,0.0,0.0,0.0,0.0,0.0,0.0,0.0,0.0,0.0,0.0,0.0,0.1656,0.5725,0.9783,1.1976,1.1608,1.1592,0.0,0.0,0.0,0.0,0.0,0.0,0.0,0.0,0.0,0.0,0.0,0.0,0.0,0.0,0.0,0.0,0.0,0.0,0.0,0.0,0.0,0.0,0.0,0.0,0.0,0.0,0.0,0.0,0.0,0.0,0.0,0.0,0.0,0.0,0.0,0.0,0.0,0.0,0.0,0.0,0.0,0.0,0.0,0.0,0.0,0.0,0.0,0.0,0.0,0.0,0.0,0.0,0.0,0.0,0.0,0.0,0.0,0.0,0.0133,0.149,0.1237,0.0,0.0,0.0,0.0,0.0,0.0,0.0,0.0,0.0,0.0,0.0,0.0,0.0,0.0,0.0,0.0,0.0,0.0,0.0,0.0,0.0,0.0,0.0,0.0,0.0,0.0,0.0,0.0,0.0,0.0,0.0,0.0,0.0,0.0,0.0,0.0,0.0,0.0,0.0,0.0,0.0,0.0,0.061,0.2003,0.2131,0.2111,0.211,0.8474,1.1632,0.9661,1.0809,1.1534,0.0,0.0,0.0,0.0,0.0,0.0,0.0,0.0,0.0,0.0,0.0,0.0,0.0,0.0,0.0,0.0,0.0,0.0,0.0,0.0,0.0,0.0,0.0,0.0,0.0,0.0,0.0,0.0,0.0,0.0,0.0,0.0,0.0,0.0,0.0,0.0,0.0,0.0,0.0,0.0,0.0,0.0,0.0,0.0,0.0,0.0,0.0,0.0,0.0,0.0,0.0,0.0,0.0,0.0,0.0,0.0,0.0,0.0429,0.7106,0.0,0.0,0.0,0.0,0.0,0.0,0.0,0.0,0.0,0.0,0.0,0.0,0.0,0.0,0.0,0.0,0.0,0.0,0.0,0.0,0.0,0.0,0.0,0.0,0.0,0.0,0.0,0.0,0.0,0.0,0.0,0.0,0.0,0.0,0.0,0.0,0.0,0.0,0.0,0.0,0.0,0.0,0.0,0.2799,1.003,1.0802,1.0779,1.0904,1.1926,0.9356,0.1973,0.7932,1.1613,1.1653,1.0561,0.0,0.0,0.0,0.0,0.0,0.0,0.0,0.0,0.0,0.0,0.0,0.0,0.0,0.0,0.0,0.0,0.0,0.0,0.0,0.0,0.0,0.0,0.0,0.0,0.0,0.0,0.0,0.0,0.0,0.0,0.0,0.0,0.0,0.0,0.0,0.0,0.0,0.0,0.0,0.0,0.0,0.0,0.0,0.0,0.0,0.0,0.0,0.0,0.0,0.0,0.4825,0.7084,0.7047,0.6654,0.6507,0.6774,1.0145,0.9675,0.6181,0.1744,0.0,0.0,0.0,0.0,0.0,0.0,0.0,0.0,0.0,0.0,0.0,0.0,0.0,0.0,0.0,0.0,0.0,0.0,0.0,0.0,0.0,0.0,0.0,0.0,0.0,0.1191,0.5566,0.6452,0.6464,0.0,0.6562,0.514,0.0772,0.0,0.0,0.0,0.0,0.7083,0.7003,0.7005,0.8443,1.2096,1.2556,1.2542,1.2528,1.2494,0.8967,0.0457,0.3192,0.719,1.1921,1.1711,0.994,0.0,0.0,0.0,0.0,0.0,0.0,0.0,0.0,0.0,0.0,0.0,0.0,0.0,0.0,0.0,0.0,0.0,0.0,0.0,0.0,0.0,0.0,0.0,0.0,0.0,0.0,0.0,0.0,0.0,0.0,0.0,0.0,0.0,0.0,0.0,0.0,0.0,0.0,0.0,0.0,0.0,0.0,0.0,0.0,0.0994,0.2953,0.296,0.2961,0.3106,0.9218,1.2227,1.2199,0.9722,0.9744,1.156,1.1528,1.1658,1.118,0.5363,0.3017,0.2978,0.3,0.1791,0.0,0.0,0.0,0.0,0.0,0.0,0.0,0.0,0.0,0.0,0.0,0.0,0.0,0.0,0.0,0.0,0.0,0.0,0.0577,0.2705,0.1513,0.212,0.9851,1.1624,1.1026,0.0,0.866,0.6783,0.0975,0.0,0.0,0.8805,1.1361,1.2532,1.248,1.2505,1.2542,1.2542,1.2515,1.2501,1.2501,1.2535,0.9805,0.3523,0.3224,0.5047,0.9071,1.0934,1.1704,1.1578,0.0,0.0,0.0,0.0,0.0,0.0,0.0,0.0,0.0,0.0,0.0,0.0,0.0,0.0,0.0,0.0,0.0,0.0,0.0,0.0,0.0,0.0,0.0,0.0,0.0,0.0,0.0,0.0,0.0,0.0,0.0,0.0,0.0,0.0,0.0,0.0,0.0,0.0,0.0,0.0,0.0,0.0,0.0,0.3531,1.1004,1.0975,1.1023,1.0993,1.1454,1.1676,1.1359,0.3955,0.454,1.1639,1.1619,1.1619,1.1639,1.1195,1.0957,1.1018,1.0973,0.6528,0.0,0.0,0.0,0.0,0.0,0.0,0.0,0.0,0.0,0.0,0.0,0.0,0.0,0.0,0.0,0.0,0.0,0.0,0.1963,0.9915,0.5764,0.2113,0.9855,1.1586,0.9387,0.0,0.0604,0.0449,0.0,0.0,0.2866,1.1116,1.2474,1.2429,1.2553,1.2494,1.2508,1.2508,1.2501,1.2501,1.2501,1.2535,1.2387,1.1901,1.1901,0.8538,0.0918,0.8232,1.2212,1.1629,0.3937,0.0,0.0,0.0,0.0,0.0,0.0,0.0,0.0,0.0,0.0,0.0,0.0,0.0,0.0,0.0,0.0,0.0,0.0,0.0,0.0,0.0,0.0,0.0,0.0,0.0,0.0,0.0,0.0,0.0,0.0,0.0,0.0,0.0,0.0,0.0,0.0,0.0,0.0,0.4703,0.52,0.015,0.0,0.1364,0.4089,0.4103,0.4107,0.4103,0.41,0.6982,1.2025,0.9314,0.9497,1.1821,0.6448,0.7205,1.2105,1.2219,1.2216,1.2199,1.2113,1.0423,0.7975,0.8053,0.809,0.7207,0.181,0.0,0.0,0.0,0.0,0.0,0.0,0.0,0.0,0.0,0.0,0.0,0.0,0.0,0.0766,0.3711,0.2163,0.0771,0.3544,0.8324,1.1421,0.8636,0.8107,0.8117,0.7982,0.8021,0.9035,1.2011,1.2564,1.2574,1.2474,1.2501,1.2501,1.2501,1.2501,1.2501,1.2501,1.2515,1.2522,1.2522,1.2562,1.1125,0.8229,1.0974,1.2449,1.2156,0.9045,0.5053,0.0,0.0,0.0,0.0,0.0,0.0,0.0,0.0,0.0,0.0,0.0,0.0,0.0,0.0,0.0,0.0,0.0,0.0,0.0,0.0,0.0,0.0,0.0,0.0,0.0,0.0,0.0,0.0,0.0,0.0,0.0,0.0,0.0,0.0,0.0,0.0,0.0,0.4861,0.5328,0.0152,0.2737,0.4264,0.4257,0.425,0.4247,0.4247,0.4242,0.7141,1.256,1.2498,1.256,1.2126,0.6689,0.7301,1.2567,1.2501,1.2427,1.2264,0.9314,0.8251,0.8274,0.8283,0.8296,0.754,0.1994,0.0,0.0,0.0,0.0,0.0,0.0,0.0,0.0,0.0,0.0,0.0,0.0,0.0,0.0,0.0,0.2188,0.4215,0.4211,0.8608,1.2576,1.2542,1.256,1.2526,1.2459,1.2443,1.256,1.2459,1.2464,1.2556,1.2508,1.2549,1.2556,1.2508,1.2501,1.2501,1.2501,1.2567,1.2553,1.2494,1.2454,1.1201,0.8434,1.1073,1.2435,1.243,0.9362,0.5166,0.0,0.0,0.0,0.0,0.0,0.0,0.0,0.0,0.0,0.0,0.0,0.0,0.0,0.0,0.0,0.0,0.0,0.0,0.0,0.0,0.0,0.0,0.0,0.0,0.0,0.0,0.0,0.0,0.0,0.0,0.0,0.0,0.0,0.0,0.0302,0.0452,0.045,0.0456,0.0459,0.0458,0.8243,1.2447,1.2447,1.2447,1.2454,1.2454,1.242,1.2562,1.2562,1.2528,1.2535,1.2562,1.2528,1.2535,1.2562,1.2522,1.2528,1.1753,0.3566,0.0465,0.0311,0.0155,0.0,0.0,0.0,0.0,0.0,0.0,0.0,0.0,0.0,0.0,0.0,0.0,0.0,0.0,0.0,0.0,0.0,0.0313,0.658,1.2447,1.2562,1.2562,1.2556,1.2522,1.2542,1.2556,1.2515,1.2508,1.2508,1.2515,1.2481,0.0,1.2535,1.2487,1.2521,1.2522,1.2508,1.2508,1.2501,1.2546,1.2505,1.2481,1.2546,0.8829,0.0779,0.814,1.2358,1.2137,0.4175,0.0,0.0,0.0,0.0,0.0,0.0,0.0,0.0,0.0,0.0,0.0,0.0,0.0,0.0,0.0,0.0,0.0,0.0,0.0,0.0,0.0,0.0,0.0,0.0,0.0,0.0,0.0,0.0,0.0,0.0,0.0,0.0,0.0,0.0,0.0,0.5663,0.9081,0.8992,0.9031,0.9041,0.9016,1.1268,1.2556,1.2528,1.2481,1.2534,1.2534,1.2476,1.2523,1.2523,1.2509,1.2509,1.2516,1.2509,1.2509,1.2509,1.2554,1.2514,1.2344,1.0025,0.9061,0.8297,0.2182,0.0,0.0,0.0,0.0,0.0,0.0,0.0,0.0,0.0,0.0,0.0,0.0,0.0,0.0,0.0,0.0,0.156,0.7656,1.089,1.2561,1.2527,1.2443,1.2516,1.2509,1.2516,1.2483,1.2527,1.2507,1.2541,1.2489,1.2542,1.2715,1.3165,1.2708,1.2509,1.2521,1.2507,1.246,1.2508,1.2427,1.2099,1.1225,1.1972,1.1522,0.9095,1.0098,0.8274,0.347,0.1124,0.0,0.0,0.0,0.0,0.0,0.0,0.0,0.0,0.0,0.0,0.0,0.0,0.0,0.0,0.0,0.0,0.0,0.0,0.0,0.0,0.0,0.0,0.0,0.0,0.0,0.0,0.0,0.0,0.0,0.0,0.0,0.0,0.0,0.1526,0.4946,0.9778,1.2488,1.2556,1.2562,1.2556,1.2535,1.2434,1.246,1.244,1.243,1.2661,1.2827,1.2915,1.2956,1.2956,1.2956,1.2956,1.2956,1.2956,1.2956,1.2949,1.2861,1.2661,0.0,0.0,0.0,0.0,0.0,0.5312,0.5312,0.5312,0.5312,0.5315,0.5165,0.2814,0.0,0.0,0.0,0.0,0.0,0.251,0.5201,0.5195,0.5207,0.6494,1.1288,1.2476,1.2529,1.2834,1.2895,1.2956,1.2956,1.2956,0.0,1.2922,1.2868,1.2861,1.2942,1.2849,1.3024,1.3297,1.3017,1.2829,1.284,1.2661,1.2463,1.2541,1.2522,0.0,0.0,0.0,1.092,0.7337,0.6246,0.0,0.0,0.0,0.0,0.0,0.0,0.0,0.0,0.0,0.0,0.0,0.0,0.0,0.0,0.0,0.0,0.0,0.0,0.0,0.0,0.0,0.0,0.0,0.0,0.0,0.0,0.0571,0.0,0.0,0.0746,0.1049,0.0151,0.0,0.0304,0.1382,0.1382,0.447,1.1908,1.2549,1.2535,1.2501,1.2515,0.0,0.0,0.0,1.2594,1.2594,1.2575,1.2822,1.3479,1.3332,1.3346,1.3346,1.3346,1.3346,1.3346,1.3346,1.3346,1.3339,1.3325,1.3137,1.2602,1.2501,1.2569,1.2447,1.2474,1.2487,1.2487,1.2487,0.0,0.0,1.2487,0.7542,0.1409,0.141,0.141,0.141,0.1409,0.6799,1.2509,1.2509,1.2582,1.2661,1.2661,1.2655,1.2816,1.3318,1.3332,1.3346,1.3346,1.3346,1.338,1.3343,1.3408,1.3325,1.3339,1.345,1.3322,1.336,1.3457,1.3478,1.3332,0.0,0.0,1.2628,1.2596,1.2628,1.2554,1.2505,0.8711,0.0296,0.0,0.0,0.0,0.0,0.0,0.0,0.0,0.0,0.0,0.0,0.0,0.0,0.0,0.0,0.0,0.0,0.0,0.0,0.0,0.0,0.0,0.0,0.0,0.0,0.0,0.0,0.8387,0.408,0.0,0.0,0.5748,0.765,0.0756,0.0,0.2607,0.9407,1.0092,1.0779,1.2393,1.2528,1.2508,1.2501,1.246,1.2527,1.2527,1.2509,1.2749,1.3241,1.3226,1.3301,1.3464,0.0,0.0,1.3322,1.3322,1.3322,1.3322,1.3322,1.3322,1.3473,1.3349,1.3394,1.3123,1.2728,1.2549,1.2556,1.2562,1.2562,1.2562,1.2562,1.2562,1.2562,1.2422,1.1438,1.0137,0.9998,1.0008,0.0,1.0142,1.1296,1.2628,1.3102,1.3276,1.3297,1.3297,1.3219,1.3295,1.3301,1.3398,1.3322,1.3322,1.3322,1.3329,1.3356,1.3398,1.3343,1.3466,1.3342,1.3349,1.3322,1.3342,1.3466,1.3478,1.3301,1.3253,1.3297,1.3214,1.2965,1.2568,1.2427,0.8697,0.0308,0.0,0.0,0.0,0.0,0.0,0.0,0.0,0.0,0.0,0.0,0.0,0.0,0.0,0.0,0.0,0.0,0.0,0.0,0.0,0.0,0.0,0.0,0.0,0.0,0.0,0.1271,0.5189,0.6092,0.6215,0.6208,0.8112,0.8621,0.6575,0.6316,0.7911,1.2146,1.2501,1.2528,1.2528,1.2427,1.2454,1.2454,1.2437,1.2682,1.3006,1.299,1.3064,1.3401,1.3384,1.3453,1.3453,1.3363,1.3403,1.3403,1.3403,1.3403,1.3403,1.3403,1.3403,1.3397,1.3322,1.3411,1.3349,1.3016,1.2923,1.2963,1.2963,1.2963,1.2963,1.2963,1.2963,1.2963,1.2976,1.2976,1.2983,1.2996,1.3003,1.2996,1.2983,1.3024,1.3078,1.3401,1.3457,1.3349,1.3349,1.3404,1.3453,1.3453,1.3349,1.3403,1.3403,1.3403,1.3403,1.3403,1.3342,1.348,1.339,1.3403,1.3403,1.3403,1.3403,1.337,1.3459,1.3453,1.3425,1.3356,1.3443,1.3137,1.2581,1.2554,0.8674,0.0312,0.0,0.0,0.0,0.0,0.0,0.0,0.0,0.0,0.0,0.0,0.0,0.0,0.0,0.0,0.0,0.0,0.0,0.0,0.0,0.0,0.0,0.0,0.0,0.0,0.0,0.0291,0.104,0.7553,1.2443,1.24,0.9582,0.8804,1.2132,1.2515,1.2549,1.2542,1.2522,1.2515,1.2542,1.2501,1.2581,1.2615,1.2595,1.2836,1.3332,1.3478,1.3384,1.3384,1.3342,1.3403,1.3403,1.3431,1.3444,1.3444,1.3471,1.3318,1.3318,1.3318,1.3318,1.3318,1.3318,1.3318,1.3318,1.3318,1.3342,1.3457,1.3401,1.338,1.338,1.338,1.338,1.338,1.338,1.338,1.338,1.338,1.338,1.338,1.338,1.3464,1.3384,1.3384,1.3473,1.3403,1.3403,1.3403,1.3403,1.3403,1.3403,1.3403,1.3403,1.3403,1.3403,1.3403,1.3403,1.3403,1.3403,1.3403,1.3403,1.3403,1.3403,1.3403,1.3403,1.3403,1.3403,1.3403,1.3425,1.3226,1.2635,1.2635,0.8721,0.0312,0.0,0.0,0.0,0.0,0.0,0.0,0.0,0.0,0.0,0.0,0.0,0.0,0.0,0.0,0.0,0.0,0.0,0.0,0.0,0.0,0.0,0.0,0.0,0.0,0.0,0.1203,0.4965,0.9482,1.2393,1.2186,1.1972,1.2057,1.238,1.2549,1.2542,1.2508,1.2501,1.2556,1.2534,1.2554,1.2786,1.3255,1.324,1.3315,1.3322,1.3459,1.3376,1.3376,1.339,1.3403,1.3403,1.3365,1.3432,1.3432,1.3383,1.3442,1.3442,1.3442,1.3442,1.3442,1.3442,1.3442,1.3442,1.3442,1.3422,1.3363,1.3444,1.3356,1.3356,1.3356,1.3356,1.3356,1.3356,1.3356,1.3356,1.3356,1.3356,1.3356,1.3356,1.3363,1.3376,1.3376,1.339,1.3403,1.3403,1.3403,1.3403,1.3403,1.3403,1.3403,1.3403,1.3403,1.3403,1.3403,1.3403,1.3403,1.3403,1.3403,1.3403,1.3403,1.3403,1.3403,1.3403,1.3403,1.3403,1.3403,1.3425,1.3436,1.3276,1.284,0.8707,0.0312,0.0,0.0,0.0,0.0,0.0,0.0,0.0,0.0,0.0,0.0,0.0,0.0,0.0,0.0,0.0,0.0,0.0,0.0,0.0,0.0,0.0,0.0,0.0,0.0,0.3968,0.782,0.966,1.1318,1.2494,1.2306,1.2494,1.2522,1.2522,1.2603,1.2651,1.2474,1.2474,1.2534,1.2523,1.2775,1.3178,1.3415,1.3391,1.3473,1.3473,1.337,1.3444,1.3365,1.3365,1.3405,1.3479,1.3376,1.3579,1.3933,1.3988,1.3844,1.3844,1.3844,1.3844,1.3844,1.3844,1.3844,1.3844,1.3844,1.3844,1.3831,1.3526,1.3432,1.3365,1.3365,1.3471,1.3403,1.3403,1.3403,1.3403,1.3403,1.3403,1.3403,1.3403,1.3403,1.3403,1.3403,1.3403,1.3403,1.3403,1.3403,1.3403,1.3403,1.3403,1.3403,1.3403,1.3403,1.3403,1.3403,1.3403,1.3403,1.3403,1.3403,1.3403,1.3403,1.3403,1.3403,1.3403,1.3403,1.3403,1.3403,1.3342,1.3411,1.3429,1.2829,1.0912,0.7433,0.2514,0.0,0.0,0.0,0.0,0.0,0.0,0.0,0.0,0.0,0.0,0.0,0.0,0.0,0.0,0.0,0.0,0.0,0.0,0.0,0.0,0.0,0.0775,0.3099,0.8393,1.2488,1.2467,1.2515,1.2549,1.2542,1.2515,1.2515,1.2562,1.2664,1.2766,1.2682,1.2655,1.2529,1.2507,1.3112,1.3356,1.3404,1.3342,1.3417,1.3458,1.3464,1.3365,1.3336,1.3512,1.3566,1.3666,1.3707,1.3905,1.4263,1.4305,1.4326,1.4326,1.4326,1.4326,1.4326,1.4326,1.4326,1.4326,1.4326,1.4326,1.4326,1.3794,1.3673,1.3688,1.3512,1.3439,1.3351,1.3351,1.3351,1.3351,1.3351,1.3351,1.3351,1.3351,1.3351,1.3351,1.3351,1.3351,1.3351,1.3351,1.3325,1.3464,1.3464,1.3431,1.3403,1.3403,1.3403,1.3403,1.3403,1.3403,1.3403,1.3403,1.3403,1.3403,1.3403,1.3403,1.3403,1.3403,1.3403,1.3403,1.3403,1.3403,1.3336,1.3349,1.2923,1.1647,0.9094,0.3152,0.0,0.0,0.0,0.0,0.0,0.0,0.0,0.0,0.0,0.0,0.0,0.0,0.0,0.0,0.0,0.0,0.0,0.0,0.0,0.0,0.0,0.2511,1.056,1.2318,1.246,1.2556,1.2549,1.2542,1.2508,1.2501,1.2556,1.3026,1.3047,1.3172,1.3301,1.3198,1.2849,1.2482,1.3003,1.3404,1.339,1.3397,1.3464,1.3445,1.3445,1.3343,1.3482,1.4009,1.4194,1.4201,1.4347,1.4242,1.4249,1.4224,1.4285,1.4285,1.4285,1.4285,1.4285,1.4285,1.4285,1.4285,1.4285,1.4285,1.4285,1.4285,1.4277,1.4187,1.366,1.3475,1.3475,1.3475,1.3475,1.3475,1.3475,1.3475,1.3475,1.3475,1.3475,1.3475,1.3475,1.3475,1.3475,1.3475,1.3376,1.3445,1.3445,1.3338,1.3403,1.3403,1.3403,1.3403,1.3403,1.3403,1.3403,1.3403,1.3403,1.3403,1.3403,1.3403,1.3403,1.3403,1.3403,1.3403,1.3403,1.3403,1.3336,1.3349,1.3394,0.9502,0.0793,0.0157,0.0,0.0,0.0,0.0,0.0,0.0,0.0,0.0,0.0,0.0,0.0,0.0,0.0,0.0,0.0,0.0,0.0,0.0,0.1633,0.7625,0.4219,0.0813,0.3732,0.8889,1.2708,1.2594,1.2541,1.263,1.2515,1.2589,1.2671,1.2725,1.3068,1.3226,1.3166,1.3295,1.3166,1.3144,1.3322,1.3349,1.3397,1.3325,1.3405,1.3452,1.3722,1.4016,1.3994,1.4174,1.4228,1.4325,1.438,1.4224,1.4224,1.4278,1.4299,1.4299,1.4299,1.4299,1.4299,1.4299,1.4299,1.4299,1.4299,1.4299,1.4299,1.4299,1.4238,1.4311,1.4027,1.3926,1.4016,1.4016,1.4016,1.4016,1.4016,1.4016,1.4016,1.4016,1.4016,1.4016,1.4016,1.4016,1.4016,1.4016,1.3981,1.3947,1.3422,1.3479,1.3378,1.3378,1.3471,1.3403,1.3403,1.3403,1.3403,1.3403,1.3403,1.3403,1.3403,1.3403,1.3403,1.3403,1.3403,1.3403,1.3403,1.3403,1.3376,1.3329,1.3471,0.9386,0.0321,0.0,0.0,0.0,0.0,0.0,0.0,0.0,0.0,0.0,0.0,0.0,0.0,0.0,0.0,0.0,0.0,0.0818,0.4076,0.4779,0.5986,1.0081,0.7741,0.4767,0.4588,0.7961,1.1136,1.2396,1.2722,1.2854,1.2752,1.2874,1.2969,1.2969,1.3186,1.3336,1.3336,1.3336,1.3356,1.3397,1.3403,1.3424,1.3478,1.3405,1.3506,1.3783,1.4057,1.4354,1.4331,1.4331,1.438,1.4299,1.4299,1.4299,1.4299,1.4299,1.4299,1.4299,1.4299,1.4299,1.4299,1.4299,1.4299,1.4299,1.4299,1.4299,1.4299,1.4299,1.4299,1.4285,1.4366,1.427,1.4361,1.4361,1.4361,1.4361,1.4361,1.4361,1.4361,1.4361,1.4361,1.4361,1.4361,1.4361,1.4361,1.4361,1.4319,1.4263,1.3851,1.3729,1.3614,1.3385,1.3464,1.3403,1.3403,1.3403,1.3403,1.3403,1.3403,1.3403,1.3403,1.3403,1.3403,1.3403,1.3403,1.3403,1.3403,1.3403,1.3403,1.3417,1.3356,0.9416,0.0323,0.0,0.0,0.0,0.0,0.0,0.0,0.0,0.0,0.0,0.0,0.0,0.0,0.0321,0.0645,0.0659,0.0497,0.2657,1.1126,1.3211,1.2166,0.7881,1.042,1.3246,1.2675,0.9472,0.8304,1.2269,1.3078,1.318,1.3173,1.3308,1.341,1.341,1.3546,1.3641,1.3641,1.3465,1.3405,1.3431,1.3417,1.3478,1.3445,1.3472,1.3777,1.4242,1.4256,1.4331,1.4299,1.4299,1.4299,1.4299,1.4299,1.4299,1.4299,1.4299,1.4299,1.4299,1.4299,1.4299,1.4299,1.4299,1.4299,1.4299,1.4299,1.4299,1.4299,1.4299,1.4299,1.4299,1.4299,1.4299,1.4299,1.4299,1.4299,1.4299,1.4299,1.4299,1.4299,1.4299,1.4299,1.4299,1.4299,1.4299,1.4299,1.4299,1.4366,1.4222,1.4242,1.4266,1.4112,1.3444,1.3403,1.3403,1.3403,1.3403,1.3403,1.3403,1.3403,1.3403,1.3403,1.3403,1.3403,1.3403,1.3403,1.3403,1.3403,1.3403,1.3417,1.3451,1.303,0.8931,0.0324,0.0,0.0,0.0,0.0,0.0,0.0,0.0,0.0,0.0,0.0,0.0,0.0,0.4954,1.0019,0.9908,0.7535,0.5516,0.7885,1.0948,1.2964,1.18,1.252,1.2514,0.9661,1.0401,1.1604,1.237,1.2876,1.3302,1.3186,1.3403,1.3573,1.3573,1.3695,1.3783,1.3783,1.3783,1.377,1.3729,1.3634,1.3762,1.3627,1.3838,1.4174,1.4249,1.4359,1.4265,1.4299,1.4299,1.4299,1.4299,1.4299,1.4299,1.4299,1.4299,1.4299,1.4299,1.4299,1.4299,1.4299,1.4299,1.4299,1.4299,1.4299,1.4299,1.4299,1.4299,1.4299,1.4299,1.4299,1.4299,1.4299,1.4299,1.4299,1.4299,1.4299,1.4299,1.4299,1.4299,1.4299,1.4299,1.4299,1.4299,1.4299,1.4299,1.4272,1.438,1.4228,1.3899,1.3573,1.3425,1.3478,1.3403,1.3403,1.3403,1.3403,1.3403,1.3403,1.3403,1.3403,1.3403,1.3403,1.3403,1.3403,1.3403,1.3403,1.3403,1.3417,1.3451,0.7044,0.2426,0.0162,0.0,0.0,0.0,0.0,0.0,0.0,0.0,0.0,0.0,0.0,0.0,0.0,0.3686,0.8433,1.2359,1.1484,0.9579,0.9687,1.1535,1.3336,1.326,1.3123,1.1982,0.8712,1.078,1.2908,1.2675,1.309,1.3587,1.3566,1.377,1.3899,1.3831,1.3953,1.4014,1.3946,1.3939,1.3939,1.3939,1.3871,1.3858,1.3919,1.4082,1.4197,1.4265,1.4285,1.4299,1.4299,1.4299,1.4299,1.4299,1.4299,1.4299,1.4299,1.4299,1.4299,1.4299,0.0,1.4299,1.4299,1.4299,1.4299,1.4299,1.4299,1.4299,1.4299,1.4299,1.4299,1.4299,1.4299,1.4299,1.4299,1.4299,1.4299,1.4299,1.4299,1.4299,1.4299,1.4299,1.4299,1.4299,1.4299,1.4299,1.4299,1.4299,1.4251,1.4338,1.4361,1.3851,1.3356,1.3385,1.3458,1.3403,1.3403,1.3403,1.3403,1.3403,1.3403,1.3403,1.3403,1.3403,1.3403,1.3403,1.3403,1.3403,1.3403,1.3403,1.3424,1.3471,0.491,0.0,0.0,0.0,0.0,0.0,0.0,0.0,0.0,0.0,0.0,0.0,0.0,0.0,0.0,0.0505,0.2692,1.0634,1.3023,1.3318,1.348,1.3425,1.3159,1.2688,1.2501,1.1695,0.934,1.094,1.2834,1.3078,1.3519,1.3892,1.4048,1.4204,1.4251,1.4116,1.4217,1.4245,1.4116,1.4122,1.4129,1.4129,1.417,1.4231,1.4326,1.4162,1.4037,1.4323,1.4373,1.4299,1.4299,1.4299,1.4299,1.4299,1.4299,1.4299,1.4299,1.4299,1.4299,1.4299,1.4299,1.4299,1.4299,1.4299,1.4299,1.4299,1.4299,1.4299,1.4299,1.4299,1.4299,1.4299,1.4299,1.4299,1.4299,1.4299,1.4299,1.4299,1.4299,1.4299,1.4299,1.4299,1.4299,1.4299,1.4299,1.4299,1.4292,1.4272,1.4345,1.4208,1.4201,1.3702,1.3385,1.3424,1.3403,1.3403,1.3403,1.3403,1.3403,1.3403,1.3403,1.3403,1.3403,1.3403,1.3403,1.3403,1.3403,1.3403,1.3403,1.3403,1.3437,1.3331,0.4915,0.0,0.0,0.0,0.0,0.0,0.0,0.0,0.0,0.0,0.0,0.0,0.0,0.0,0.0,0.2687,0.5867,0.755,1.057,1.3397,1.3432,1.3471,1.2308,0.8683,1.0372,1.2326,1.1689,1.2152,1.28,1.2786,1.339,1.3892,1.4048,1.4204,1.4292,1.4265,1.4285,1.4292,1.4265,1.4367,1.4434,1.4434,1.4672,1.4713,1.4489,1.4597,1.4618,1.433,1.4373,1.4299,1.4299,1.4299,1.4299,1.4299,1.4299,1.4299,1.4299,1.4299,1.4299,1.4299,1.4299,0.0,1.4299,1.4299,1.4299,1.4299,1.4299,1.4299,1.4299,1.4299,1.4299,1.4299,1.4299,1.4299,1.4299,1.4299,1.4299,1.4299,1.4299,1.4299,1.4299,1.4299,1.4299,1.4299,1.4299,1.4299,1.4272,1.4325,1.427,1.4174,1.3722,1.3546,1.3431,1.3403,1.3403,1.3403,1.3403,1.3403,1.3403,1.3403,1.3403,1.3403,1.3403,1.3403,1.3403,1.3403,1.3403,1.3403,1.3403,1.3424,1.3458,1.3331,0.4923,0.0,0.0,0.0,0.0,0.0,0.0,0.0,0.0,0.0,0.0,0.0,0.0,0.0,0.0,0.5046,1.0273,1.0257,1.176,1.3356,1.3408,1.1635,0.8586,0.4144,0.6337,0.9557,1.1524,1.2285,1.2642,1.2698,1.3295,1.381,1.4041,1.4204,1.4299,1.4299,1.4299,1.4326,1.4401,1.4468,1.4577,1.474,1.4889,1.4909,1.476,1.5004,1.4794,1.4262,1.4303,1.4229,1.4229,1.4333,1.4299,1.4299,1.4299,1.4299,1.4299,1.4299,1.4299,1.4299,1.4299,1.4299,1.4299,1.4299,1.4299,1.4299,1.4299,1.4299,1.4299,1.4299,1.4299,1.4299,1.4299,1.4299,1.4299,1.4299,1.4299,1.4299,1.4299,1.4299,1.4299,1.4299,1.4299,1.4299,1.4299,1.4299,1.4265,1.429,1.4125,1.3777,1.3392,1.3451,1.3403,1.3403,1.3403,1.3403,1.3403,1.3403,1.3403,1.3403,1.3403,1.3403,1.3403,1.3403,1.3403,1.3403,1.3403,1.341,1.3424,1.3444,1.1421,0.6714,0.2462,0.0,0.0,0.0,0.0,0.0,0.0,0.0,0.0,0.0,0.0,0.0,0.0,0.0,0.0,0.5915,1.2203,1.3177,1.3471,1.3336,1.3408,0.9877,0.548,0.09,0.2368,0.6037,1.073,1.1878,1.2213,1.2725,1.3234,1.3695,1.4027,1.4204,1.4299,1.4299,1.4299,1.4353,1.4496,1.4543,1.4672,1.495,1.4997,1.5018,1.5018,1.5176,1.4916,1.4421,1.4457,1.4363,1.4323,1.4222,1.4326,1.4299,1.4299,1.4299,1.4299,1.4299,1.4299,1.4299,1.4299,1.4299,1.4299,1.4299,1.4299,1.4299,1.4299,1.4299,1.4299,1.4299,1.4299,1.4299,1.4299,1.4299,1.4299,1.4299,1.4299,1.4299,1.4299,1.4299,1.4299,1.4299,1.4299,1.4299,1.4299,1.4278,1.4204,1.4194,1.3777,1.3378,1.3424,1.3403,1.3403,1.3403,1.3403,1.3403,1.3403,1.3403,1.3403,1.3403,1.3403,1.3403,1.3403,1.3403,1.3403,1.341,1.341,1.3424,1.3451,1.1564,0.7512,0.0501,0.0,0.0,0.0,0.0,0.0,0.0,0.0,0.0,0.0,0.0,0.0,0.0,0.0,0.0,0.0,0.358,0.8327,1.2334,1.3451,1.3466,1.3401,0.9971,0.5423,0.0899,0.0294,0.2776,1.0257,1.158,1.1835,1.2708,1.3057,1.3573,1.4007,1.4204,1.4299,1.4299,1.4299,1.4353,1.4496,1.4638,1.4787,1.4957,1.5092,1.516,1.516,1.5231,1.5156,1.5142,1.5174,1.484,1.433,1.4316,1.4242,1.4299,1.4299,1.4299,1.4299,1.4299,1.4299,1.4299,1.4299,1.4299,0.0,1.4299,1.4299,1.4299,1.4299,1.4299,1.4299,1.4299,1.4299,1.4299,1.4299,1.4299,1.4299,1.4299,1.4299,1.4299,1.4299,1.4299,1.4299,1.4299,1.4299,1.4299,1.4299,1.4373,1.4201,1.3566,1.3372,1.3417,1.3403,1.3403,1.3403,1.3403,1.3403,1.3403,1.3403,1.3403,1.3403,1.3403,1.3403,1.3403,1.3403,1.3403,1.341,1.3444,1.3444,1.3451,1.3451,0.5973,0.0826,0.0,0.0,0.0,0.0,0.0,0.0,0.0,0.0,0.0,0.0,0.0,0.0,0.0,0.0,0.0,0.0,0.1367,0.4427,1.1582,1.3478,1.3384,1.3433,1.2096,0.8617,0.1481,0.0,0.1601,0.7039,0.8735,0.9977,1.2298,1.2942,1.3261,1.362,1.3871,1.4027,1.4027,1.4109,1.4251,1.4489,1.4652,1.4841,1.5079,1.5153,1.5181,1.5181,1.5133,1.5286,1.5286,1.5149,1.5039,1.4787,1.4504,1.439,1.4242,1.4242,1.438,1.4299,1.4299,1.4299,1.4299,1.4299,1.4299,0.0,1.4299,1.4299,1.4299,1.4299,1.4299,1.4299,1.4299,1.4299,1.4299,1.4299,1.4299,1.4299,1.4299,1.4299,1.4299,1.4299,1.4299,1.4299,1.4299,1.4299,1.4299,1.4299,1.4116,1.3707,1.3499,1.3338,1.3403,1.3403,1.3403,1.3403,1.3403,1.3403,1.3403,1.3403,1.3403,1.3403,1.3403,1.3403,1.3403,1.3403,1.3417,1.3437,1.3451,1.3451,1.1248,0.5864,0.1991,0.0,0.0,0.0,0.0,0.0,0.0,0.0,0.0,0.0,0.0,0.0,0.0,0.0,0.0,0.0,0.0,0.0,0.0,0.1542,0.7894,1.1507,1.3398,1.3426,1.3339,1.089,0.1912,0.0,0.0873,0.3635,0.6731,0.9689,1.1926,1.2705,1.301,1.3356,1.3654,1.3838,1.3838,1.3939,1.4122,1.4421,1.4665,1.4909,1.516,1.5181,1.5181,1.5181,1.5181,1.5181,1.5181,1.5272,1.5204,1.5162,1.4862,1.4544,1.4577,1.435,1.4276,1.436,1.4319,1.4299,1.4299,1.4299,1.4299,0.0,1.4299,1.4299,1.4299,1.4299,1.4299,1.4299,1.4299,1.4299,1.4299,1.4299,1.4299,1.4299,1.4299,1.4299,1.4299,1.4299,1.4299,1.4299,1.4299,1.4265,1.4224,1.4359,1.3794,1.3396,1.3425,1.3478,1.3403,1.3403,1.3403,1.3403,1.3403,1.3403,1.3403,1.3403,1.3403,1.3403,1.3403,1.3403,1.3403,1.3417,1.3437,1.3444,1.3417,1.1031,0.6836,0.0501,0.0,0.0,0.0,0.0,0.0,0.0,0.0,0.0,0.0,0.0,0.0,0.0,0.0,0.0,0.0,0.0,0.0,0.0,0.0,0.0,0.0173,0.6823,1.339,1.3457,1.344,1.089,0.1912,0.0,0.0,0.0,0.6413,1.1703,1.1993,1.242,1.2888,1.3336,1.3654,1.3838,1.3838,1.3844,1.3966,1.4272,1.4706,1.5025,1.5174,1.5181,1.5181,1.5181,1.5181,1.5181,1.5181,1.5181,1.5113,1.5162,1.5162,1.5271,1.5118,1.4584,1.4323,1.4316,1.436,1.4299,1.4299,1.4299,1.4299,0.0,1.4299,1.4299,1.4299,1.4299,1.4299,1.4299,1.4299,1.4299,1.4299,1.4299,1.4299,1.4299,1.4299,1.4299,1.4299,1.4299,1.4299,1.4299,1.4299,1.4373,1.4222,1.4242,1.3913,1.3418,1.3437,1.3403,1.3403,1.3403,1.3403,1.3403,1.3403,1.3403,1.3403,1.3403,1.3403,1.3403,1.3403,1.3403,1.341,1.3444,1.3451,1.3424,1.3342,0.5454,0.0165,0.0,0.0,0.0,0.0,0.0,0.0,0.0,0.0,0.0,0.0,0.0,0.0,0.0,0.0,0.0,0.0,0.0,0.0,0.0,0.0,0.0,0.0,0.2094,0.584,1.1998,0.8702,0.344,0.0586,0.0,0.0,0.0,0.2035,0.5622,1.143,1.2548,1.2942,1.3478,1.3722,1.3838,1.3838,1.4027,1.4231,1.4428,1.4665,1.4875,1.5025,1.5126,1.5181,1.5181,1.5181,1.5181,1.5181,1.5181,1.516,1.512,1.512,1.5231,1.5278,1.5039,1.4713,1.4323,1.4283,1.4209,1.4299,1.4299,1.4299,1.4299,1.4299,1.4299,1.4299,1.4299,1.4299,1.4299,1.4299,1.4299,1.4299,1.4299,1.4299,1.4299,1.4299,1.4299,1.4299,1.4299,1.4299,1.4278,1.4352,1.4215,1.4235,1.3736,1.3492,1.3418,1.3437,1.3403,1.3403,1.3403,1.3403,1.3403,1.3403,1.3403,1.3403,1.3403,1.3403,1.341,1.3431,1.3437,1.341,1.3342,0.7962,0.429,0.4248,0.1622,0.0,0.0,0.0,0.0,0.0,0.0,0.0,0.0,0.0,0.0,0.0,0.0,0.0,0.0,0.0,0.0,0.0,0.0,0.0,0.0,0.0,0.0,0.0,0.0,0.1393,0.7048,0.4066,0.0,0.0,0.0,0.0,0.0,0.0,0.2209,0.8923,1.1622,1.3013,1.3315,1.36,1.3783,1.3831,1.4061,1.4272,1.4421,1.4618,1.4801,1.4957,1.5106,1.5181,1.5181,1.5181,1.5181,1.5181,1.5181,1.5181,1.5181,1.5181,1.514,1.5238,1.519,1.5059,1.4679,1.4376,1.4309,1.4276,1.4346,1.4326,0.0,1.4319,1.4299,1.4299,1.4299,1.4299,1.4299,1.4299,1.4299,1.4299,1.4299,1.4299,1.4299,1.4299,1.4265,1.438,1.4325,1.4345,1.4183,1.4027,1.3878,1.3913,1.3479,1.3412,1.3351,1.3424,1.3403,1.3403,1.3403,1.3403,1.3403,1.3403,1.341,1.3417,1.3417,1.3431,1.3444,1.3464,1.0527,0.8301,0.8267,0.3449,0.0,0.0,0.0,0.0,0.0,0.0,0.0,0.0,0.0,0.0,0.0,0.0,0.0,0.0,0.0,0.0,0.0,0.0,0.0,0.0,0.0,0.0,0.0,0.0,0.0,0.0,0.0,0.0,0.0,0.0,0.0,0.0,0.0,0.0,0.0,0.0,0.1315,0.5638,1.0129,1.3005,1.2969,1.339,1.3715,1.3858,1.4,1.4143,1.4285,1.457,1.4801,1.4943,1.5099,1.5181,1.5181,1.5181,1.5181,1.5181,1.5181,1.5181,1.5181,1.5181,1.5181,1.5181,1.5238,1.5176,1.5156,1.4672,1.443,0.0,1.4269,1.4401,1.4316,1.4367,1.4306,1.4299,1.4299,1.4299,1.4299,1.4299,1.4299,1.4299,1.4299,1.4292,1.4285,1.4272,1.4352,1.4208,1.4228,1.4277,1.4187,1.3515,1.3376,1.3439,1.3439,1.3338,1.3403,1.3403,1.3403,1.3403,1.3403,1.3403,1.341,1.341,1.3431,1.3284,1.2599,1.2445,1.2458,1.2464,0.53,0.0,0.0,0.0,0.0,0.0,0.0,0.0,0.0,0.0,0.0,0.0,0.0,0.0,0.0,0.0,0.0,0.0,0.0,0.0,0.0,0.0,0.0,0.0,0.0,0.0,0.0,0.0,0.0,0.0,0.0,0.0,0.0,0.0,0.0,0.0,0.0,0.0,0.0,0.0,0.2372,0.9692,1.1899,1.2929,1.3431,1.377,1.4021,1.4177,1.4224,1.4258,1.4299,1.457,1.4753,1.4794,1.5038,1.5181,1.5181,1.5181,1.5181,1.5181,1.5181,1.5181,1.5181,1.5181,1.5181,1.5181,1.5147,1.5265,1.5162,1.4896,1.4814,1.4551,1.4665,1.459,1.4323,1.4289,1.4216,1.4299,1.4299,1.4299,1.4299,1.4299,1.4299,1.4299,1.4299,1.4224,1.4283,1.4347,1.3926,1.3686,1.3552,1.3532,1.3552,1.3512,1.3398,1.3451,1.3451,1.3424,1.3403,1.3403,1.3424,1.3437,1.3437,1.3458,1.3478,1.3478,1.3318,1.1265,0.4345,0.3153,0.3139,0.3144,0.1311,0.0,0.0,0.0,0.0,0.0,0.0,0.0,0.0,0.0,0.0,0.0,0.0,0.0,0.0,0.0,0.0,0.0,0.0,0.0,0.0,0.0,0.0,0.0,0.0,0.0,0.0,0.0,0.0,0.0,0.0,0.0,0.0,0.0,0.0,0.0,0.0,0.1317,0.5314,0.6082,0.6911,0.9475,1.1609,1.3125,1.3763,1.4095,1.4306,1.4387,1.4394,1.4373,1.4306,1.4502,1.4665,1.4733,1.4957,1.5113,1.5181,1.5181,1.5181,1.5181,1.5181,1.5181,1.5181,1.5181,1.5181,1.5181,1.5181,1.514,1.5259,1.519,1.4964,1.4936,1.4984,1.4922,1.4713,1.4383,1.4283,1.4387,1.4326,1.4299,1.4299,1.4299,1.4258,1.4373,1.4373,1.4095,1.3939,1.3968,1.3749,1.3389,1.3418,1.3392,1.3398,1.3385,1.3478,1.341,1.3437,1.3437,1.3431,1.3444,1.3464,1.2278,0.8202,0.7201,0.7208,0.7208,0.7216,0.5694,0.0831,0.0,0.0,0.0,0.0,0.0,0.0,0.0,0.0,0.0,0.0,0.0,0.0,0.0,0.0,0.0,0.0,0.0,0.0,0.0,0.0,0.0,0.0,0.0,0.0,0.0,0.0,0.0,0.0,0.0,0.0,0.0,0.0,0.0,0.0,0.0,0.0,0.0,0.0,0.0,0.0,0.2341,0.9922,1.255,1.2105,0.8274,1.0984,1.3659,1.3946,1.4272,1.4455,1.4475,1.4482,1.4434,1.4312,1.4428,1.4577,1.4726,1.4882,1.5031,1.5174,1.5181,1.5181,1.5181,1.5181,1.5181,1.5181,1.5181,1.5181,1.5181,1.5181,1.5181,1.5181,1.5245,1.5259,1.5167,0.0,0.0,1.5135,1.4638,1.433,1.4309,1.4326,1.4265,1.4265,1.4245,1.4338,1.4222,1.4201,1.3753,1.3449,1.3479,1.3459,1.3459,1.3331,1.3478,1.3331,1.3471,1.242,1.1724,1.2977,1.2451,1.1415,1.1271,1.1282,0.9244,0.1673,0.0,0.0,0.0,0.0,0.0,0.0,0.0,0.0,0.0,0.0,0.0,0.0,0.0,0.0,0.0,0.0,0.0,0.0,0.0,0.0,0.0,0.0,0.0,0.0,0.0,0.0,0.0,0.0,0.0,0.0,0.0,0.0,0.0,0.0,0.0,0.0,0.0,0.0,0.0,0.0,0.0,0.0,0.0,0.0,0.0,0.0,0.0442,0.1825,0.8319,1.3233,1.2443,1.3085,1.3844,1.3851,1.4027,1.419,1.4319,1.4333,1.4326,1.4299,1.4428,1.4577,1.4726,1.4882,1.5031,1.5174,1.5181,1.5181,1.5181,1.5181,1.5181,1.5181,1.5181,1.5181,1.5181,1.5181,1.5181,1.5181,1.516,1.516,1.5174,0.0,1.5135,1.5135,1.5007,1.4695,1.4303,1.4217,1.4283,1.4277,1.4347,1.4298,1.4263,1.3804,1.3409,1.3363,1.3398,1.3358,1.3358,1.3331,1.3331,1.3338,1.3365,0.7889,0.3842,1.1444,0.771,0.2005,0.2005,0.2009,0.1677,0.0335,0.0,0.0,0.0,0.0,0.0,0.0,0.0,0.0,0.0,0.0,0.0,0.0,0.0,0.0,0.0,0.0,0.0,0.0,0.0,0.0,0.0,0.0,0.0,0.0,0.0,0.0,0.0,0.0,0.0,0.0,0.0,0.0,0.0,0.0,0.0,0.0,0.0,0.0,0.0,0.0,0.0,0.0,0.0,0.0,0.0,0.0,0.0762,0.3235,0.7022,1.0543,1.2972,1.3614,1.3831,1.3946,1.4163,1.4333,1.4407,1.4414,1.4387,1.4306,1.436,1.4462,1.4604,1.476,1.4909,1.5059,1.514,1.5181,1.5181,1.5181,1.5147,1.5072,1.5065,1.5106,1.5181,1.5181,1.5181,1.5181,1.5181,1.5181,1.5174,0.0,1.497,1.5135,1.5007,1.4668,1.4414,1.4278,1.4311,1.3634,0.8432,0.6505,0.6495,0.6262,0.624,0.6237,0.6205,0.6202,0.6208,0.6208,0.6214,0.6224,0.6233,0.3187,0.1003,0.5038,0.302,0.0,0.0,0.0,0.0,0.0,0.0,0.0,0.0,0.0,0.0,0.0,0.0,0.0,0.0,0.0,0.0,0.0,0.0,0.0,0.0,0.0,0.0,0.0,0.0,0.0,0.0,0.0,0.0,0.0,0.0,0.0,0.0,0.0,0.0,0.0,0.0,0.0,0.0,0.0,0.0,0.0,0.0,0.0,0.0,0.0,0.0,0.0,0.0,0.0,0.0,0.0,0.1102,0.4542,0.6865,0.9332,1.2798,1.3546,1.3727,1.4,1.4245,1.4421,1.4455,1.4462,1.4421,1.4312,1.4299,1.436,1.4502,1.4618,1.4753,1.4909,1.5018,1.5079,1.5079,1.5079,1.5025,1.4916,1.4916,1.497,1.5079,1.5079,1.5079,1.5079,1.5079,1.5086,1.5086,1.4936,1.4903,1.4916,1.4798,1.4647,1.4592,1.4306,1.3016,0.9992,0.2727,0.0,0.0,0.0,0.0,0.0,0.0,0.0,0.0,0.0,0.0,0.0,0.0,0.0,0.0,0.0,0.0,0.0,0.0,0.0,0.0,0.0,0.0,0.0,0.0,0.0,0.0,0.0,0.0,0.0,0.0,0.0,0.0,0.0,0.0,0.0,0.0,0.0,0.0,0.0,0.0,0.0,0.0,0.0,0.0,0.0,0.0,0.0,0.0,0.0,0.0,0.0,0.0,0.0,0.0,0.0,0.0,0.0,0.0,0.0,0.0,0.0,0.0,0.0,0.0,0.0,0.0,0.0,0.016,0.0486,0.7353,1.3094,1.3376,1.3402,1.3568,1.3865,1.4,1.4156,1.4299,1.4319,1.4312,1.4299,1.4299,1.436,1.4502,1.4523,1.4597,1.4746,1.4767,1.4774,1.4774,1.4774,1.4767,1.4753,1.4753,1.476,1.4774,1.4774,1.4774,1.4774,1.4774,1.4787,1.4998,1.4658,1.4692,1.4644,1.4536,1.4489,1.4757,1.4325,0.8928,0.101,0.017,0.0,0.0,0.0,0.0,0.0,0.0,0.0,0.0,0.0,0.0,0.0,0.0,0.0,0.0,0.0,0.0,0.0,0.0,0.0,0.0,0.0,0.0,0.0,0.0,0.0,0.0,0.0,0.0,0.0,0.0,0.0,0.0,0.0,0.0,0.0,0.0,0.0,0.0,0.0,0.0,0.0,0.0,0.0,0.0,0.0,0.0,0.0,0.0,0.0,0.0,0.0,0.0,0.0,0.0,0.0,0.0,0.0,0.0,0.0,0.0,0.0,0.0,0.0,0.0,0.0,0.0,0.0,0.0,0.0,0.285,0.5945,0.8748,1.1527,1.3455,1.3693,1.3987,1.4129,1.4285,1.4299,1.4299,1.4299,1.4299,1.4326,1.4373,1.4462,1.4536,1.459,1.4685,1.4753,1.4774,1.4774,1.4746,1.4679,1.4679,1.4624,1.4529,1.4699,1.4774,1.4774,1.4794,1.4808,1.4631,1.1512,1.0202,1.0235,0.9908,1.1654,1.38,0.7826,0.3263,0.0,0.0,0.0,0.0,0.0,0.0,0.0,0.0,0.0,0.0,0.0,0.0,0.0,0.0,0.0,0.0,0.0,0.0,0.0,0.0,0.0,0.0,0.0,0.0,0.0,0.0,0.0,0.0,0.0,0.0,0.0,0.0,0.0,0.0,0.0,0.0,0.0,0.0,0.0,0.0,0.0,0.0,0.0,0.0,0.0,0.0,0.0,0.0,0.0,0.0,0.0,0.0,0.0,0.0,0.0,0.0,0.0,0.0,0.0,0.0,0.0,0.0,0.0,0.0,0.0,0.0,0.0,0.0,0.0,0.0,0.0,0.0,0.1011,0.4083,0.7156,1.0274,1.3184,1.3847,1.4156,1.4312,1.4333,1.4333,1.4333,1.4333,1.4333,1.4333,1.4421,1.4475,1.4475,1.4577,1.4645,1.4672,1.3181,1.2408,1.2344,1.2344,1.2298,1.2028,1.3855,1.3932,1.2437,1.2272,1.3217,1.4342,1.1102,0.7967,0.5241,0.5025,0.677,0.9198,0.2619,0.0,0.0,0.0,0.0,0.0,0.0,0.0,0.0,0.0,0.0,0.0,0.0,0.0,0.0,0.0,0.0,0.0,0.0,0.0,0.0,0.0,0.0,0.0,0.0,0.0,0.0,0.0,0.0,0.0,0.0,0.0,0.0,0.0,0.0,0.0,0.0,0.0,0.0,0.0,0.0,0.0,0.0,0.0,0.0,0.0,0.0,0.0,0.0,0.0,0.0,0.0,0.0,0.0,0.0,0.0,0.0,0.0,0.0,0.0,0.0,0.0,0.0,0.0,0.0,0.0,0.0,0.0,0.0,0.0,0.0,0.0,0.0,0.0,0.0,0.0,0.0,0.3081,1.1986,1.3539,1.3865,1.4202,1.4222,1.4222,1.4222,1.4222,1.4222,1.4222,1.4222,1.4222,1.4222,1.4222,1.4222,1.4222,0.9669,0.7146,0.6971,0.7149,0.7149,0.7149,1.2056,1.1872,0.7149,0.7146,0.9683,1.409,1.409,0.8811,0.0,0.0,0.0,0.0,0.0,0.0,0.0,0.0,0.0,0.0,0.0,0.0,0.0,0.0,0.0,0.0,0.0,0.0,0.0,0.0,0.0,0.0,0.0,0.0,0.0,0.0,0.0,0.0,0.0,0.0,0.0,0.0,0.0,0.0,0.0,0.0,0.0,0.0,0.0,0.0,0.0,0.0,0.0,0.0,0.0,0.0,0.0,0.0,0.0,0.0,0.0,0.0,0.0,0.0,0.0,0.0,0.0,0.0,0.0,0.0,0.0,0.0,0.0,-0.0,0.0,0.0,0.0,0.0,0.0,0.0,0.0,0.0,0.0,0.0,0.0,0.0,0.0,0.0,0.0,0.0,0.0,0.0848,0.3628,0.6772,0.8944,0.9286,0.9308,0.9308,0.9308,0.9308,0.9308,0.9308,0.9308,0.9308,0.9308,0.9308,1.0763,1.4256,1.2973,0.8977,0.215,0.5383,0.7184,0.7184,1.1917,1.3553,1.1877,0.5199,0.2868,0.4307,0.4307,0.2692,0.0,0.0,0.0,0.0,0.0,0.0,0.0,0.0,0.0,0.0,0.0,0.0,0.0,0.0,0.0,0.0,0.0,0.0,0.0,0.0,0.0,0.0,0.0,0.0,0.0,0.0,0.0,0.0,0.0,0.0,0.0,0.0,0.0,0.0,0.0,0.0,0.0,0.0,0.0,0.0,0.0,0.0,0.0,0.0,0.0,0.0,0.0,0.0,0.0,0.0,0.0,0.0,0.0,0.0,0.0,0.0,0.0,0.0,0.0,0.0,0.0,0.0,0.0,-0.3233,0.0,0.0,0.0,0.0,0.0,0.0,0.0,0.0,0.0,0.0,0.0,0.0,0.0,0.0,0.0,0.0,0.0,0.0,0.0,0.2261,0.4036,0.4285,0.4295,0.4295,0.4295,0.4295,0.4295,0.4295,0.4295,0.4295,0.4295,0.4295,0.5554,0.8453,0.8632,0.5926,0.0,0.2874,0.4314,0.4314,0.7201,0.8644,0.8449,0.2692,0.0,0.0,0.0,0.0,0.0,0.0,0.0,0.0,0.0,0.0,0.0,0.0,0.0,0.0,0.0,0.0,0.0,0.0,0.0,0.0,0.0,0.0,0.0,0.0,0.0,0.0,0.0,0.0,0.0,0.0,0.0,0.0,0.0,0.0,0.0,0.0,0.0,0.0,0.0,0.0,0.0,0.0,0.0,0.0,0.0,0.0,0.0,0.0,0.0,0.0,0.0,0.0,0.0,0.0,0.0,0.0,0.0,0.0,0.0,0.0,0.0,0.0,0.0,0.0,-0.1719,-0.5006,-0.4935,-0.7502,0.0,0.0,0.0,0.0,0.0,0.0,0.0,0.0,0.0,0.0,0.0,0.0,0.0,0.0,0.0,0.0,0.0,0.0,0.0,0.0,0.0,0.0,0.0,0.0,0.0,0.0,0.0,0.0,0.0,0.0,0.0,0.0,0.0,0.0,0.0,0.0,0.0,0.0,0.0,0.0,0.0,0.0,0.0,0.0,0.0,0.0,0.0,0.0,0.0,0.0,0.0,0.0,0.0,0.0,0.0,0.0,0.0,0.0,0.0,0.0,0.0,0.0,0.0,0.0,0.0,0.0,0.0,0.0,0.0,0.0,0.0,0.0,0.0,0.0,0.0,0.0,0.0,0.0,0.0,0.0,0.0,0.0,0.0,0.0,0.0,0.0,0.0,0.0,0.0,0.0,0.0,0.0,0.0,0.0,0.0,0.0,0.0,0.0,0.0,0.0,0.0,0.0,0.0,0.0,0.0,-0.0313,-0.1095,-0.1093,-0.4995,-1.2576,-1.2546,-1.2223,0.0,0.0,0.0,0.0,0.0,0.0,0.0,0.0,0.0,0.0,0.0,0.0,0.0,0.0,0.0,0.0,0.0,0.0,0.0,0.0,0.0,0.0,0.0,0.0,0.0,0.0,0.0,0.0,0.0,0.0,0.0,0.0,0.0,0.0,0.0,0.0,0.0,0.0,0.0,0.0,0.0,0.0,0.0,0.0,0.0,0.0,0.0,0.0,0.0,0.0,0.0,0.0,0.0,0.0,0.0,0.0,0.0,0.0,0.0,0.0,0.0,0.0,0.0,0.0,0.0,0.0,0.0,0.0,0.0,0.0,0.0,0.0,0.0,0.0,0.0,0.0,0.0,0.0,0.0,0.0,0.0,0.0,0.0,0.0,0.0,0.0,0.0,0.0,0.0,0.0,0.0,0.0,0.0,0.0,0.0,0.0,0.0,0.0,0.0,0.0,0.0,0.0,0.0,0.0,0.0,-0.3279,-0.974,-0.9869,-1.0755,-1.2539,-1.2512,-1.2189,0.0,0.0,0.0,0.0,0.0,0.0,0.0,0.0,0.0,0.0,0.0,0.0,0.0,0.0,0.0,0.0,0.0,0.0,0.0,0.0,0.0,0.0,0.0,0.0,0.0,0.0,0.0,0.0,0.0,0.0,0.0,0.0,0.0,0.0,0.0,0.0,0.0,0.0,0.0,0.0,0.0,0.0,0.0,0.0,0.0,0.0,0.0,0.0,0.0,0.0,0.0,0.0,0.0,0.0,0.0,0.0,0.0,0.0,0.0,0.0,0.0,0.0,0.0,0.0,0.0,0.0,0.0,0.0,0.0,0.0,0.0,0.0,0.0,0.0,0.0,0.0,0.0,0.0,0.0,0.0,0.0,0.0,0.0,0.0,0.0,0.0,0.0,0.0,0.0,0.0,0.0,0.0,0.0,0.0,0.0,0.0,0.0,0.0,-0.3751,-0.5949,-0.5942,-0.5939,-0.5942,-0.5949,-0.5936,-0.8132,-1.2427,-1.2542,-1.2454,-1.2464,-1.2142,-1.1824,0.0,0.0,0.0,0.0,0.0,0.0,0.0,0.0,0.0,0.0,0.0,0.0,0.0,0.0,0.0,0.0,0.0,0.0,0.0,0.0,0.0,0.0,0.0,0.0,0.0,0.0,0.0,0.0,0.0,0.0,0.0,0.0,0.0,0.0,0.0,0.0,0.0,0.0,0.0,0.0,0.0,0.0,0.0,0.0,0.0,0.0,0.0,0.0,0.0,0.0,0.0,0.0,0.0,0.0,0.0,0.0,0.0,0.0,0.0,0.0,0.0,0.0,0.0,0.0,0.0,0.0,0.0,0.0,0.0,0.0,0.0,0.0,0.0,0.0,0.0,0.0,0.0,0.0,0.0,0.0,0.0,0.0,0.0,0.0,0.0,0.0,0.0,0.0,0.0,0.0,0.0,0.0,0.0,0.0,0.0,-0.1251,-0.2188,-0.2183,-0.8618,-1.2434,-1.2434,-1.2562,-1.2556,-1.2427,-1.2556,-1.2542,-1.2542,-1.2494,-1.2546,-1.2553,-1.1938,-1.1636,0.0,0.0,0.0,0.0,0.0,0.0,0.0,0.0,0.0,0.0,0.0,0.0,0.0,0.0,0.0,0.0,0.0,0.0,0.0,0.0,0.0,0.0,0.0,0.0,0.0,0.0,0.0,0.0,0.0,0.0,0.0,0.0,0.0,0.0,0.0,0.0,0.0,0.0,0.0,0.0,0.0,0.0,0.0,0.0,0.0,0.0,0.0,0.0,0.0,0.0,0.0,0.0,0.0,0.0,0.0,0.0,0.0,0.0,0.0,0.0,0.0,0.0,0.0,0.0,0.0,0.0,0.0,0.0,0.0,0.0,0.0,0.0,0.0,0.0,0.0,0.0,0.0,0.0,0.0,0.0,0.0,0.0,0.0,0.0,0.0,0.0,0.0,0.0,0.0,0.0,0.0,0.0,0.0,0.0,0.0,-0.6729,-1.0837,-1.0808,-1.1921,-1.2549,-1.2515,-1.2508,-1.2508,-1.2515,-1.2508,-1.2508,-1.2508,-1.2539,-1.2553,-1.255,-1.1932,-1.1636,0.0,0.0,0.0,0.0,0.0,0.0,0.0,0.0,0.0,0.0,0.0,0.0,0.0,0.0,0.0,0.0,0.0,0.0,0.0,0.0,0.0,0.0,0.0,0.0,0.0,0.0,0.0,0.0,0.0,0.0,0.0,0.0,0.0,0.0,0.0,0.0,0.0,0.0,0.0,0.0,0.0,0.0,0.0,0.0,0.0,0.0,0.0,0.0,0.0,0.0,0.0,0.0,0.0,0.0,0.0,0.0,0.0,0.0,0.0,0.0,0.0,0.0,0.0,0.0,0.0,0.0,0.0,0.0,0.0,0.0,0.0,0.0,0.0,0.0,0.0,0.0,0.0,0.0,0.0,0.0,0.0,0.0,0.0,0.0,0.0,0.0,0.0,0.0,0.0,0.0,-0.1874,-0.6577,-0.7045,-0.7037,-0.7026,-1.0342,-1.2562,-1.2528,-1.2522,-1.2515,-1.2501,-1.2501,-1.2501,-1.2501,-1.2501,-1.2461,-1.2539,-1.2477,-1.2319,-1.1932,-1.171,-1.1603,0.0,0.0,0.0,0.0,0.0,0.0,0.0,0.0,0.0,0.0,0.0,0.0,0.0,0.0,0.0,0.0,0.0,0.0,0.0,0.0,0.0,0.0,0.0,0.0,0.0,0.0,0.0,0.0,0.0,0.0,0.0,0.0,0.0,0.0,0.0,0.0,0.0,0.0,0.0,0.0,0.0,0.0,0.0,0.0,0.0,0.0,0.0,0.0,0.0,0.0,0.0,0.0,0.0,0.0,0.0,0.0,0.0,0.0,0.0,0.0,0.0,0.0,0.0,0.0,0.0,0.0,0.0,0.0,0.0,0.0,0.0,0.0,0.0,0.0,0.0,0.0,0.0,0.0,0.0,0.0,0.0,0.0,0.0,0.0,0.0,0.0,0.0,-0.0781,-0.2972,-0.3123,-0.5621,-1.1791,-1.2427,-1.2569,-1.2542,-1.2542,-1.2528,-1.2501,-1.2501,-1.2501,-1.2501,-1.2501,-1.2501,-1.2501,-1.2467,-1.2553,-1.245,-1.2409,-1.2094,-1.153,-1.1643,-1.1569,0.0,0.0,0.0,0.0,0.0,0.0,0.0,0.0,0.0,0.0,0.0,0.0,0.0,0.0,0.0,0.0,0.0,0.0,0.0,0.0,0.0,0.0,0.0,0.0,0.0,0.0,0.0,0.0,0.0,0.0,0.0,0.0,0.0,0.0,0.0,0.0,0.0,0.0,0.0,0.0,0.0,0.0,0.0,0.0,0.0,0.0,0.0,0.0,0.0,0.0,0.0,0.0,0.0,0.0,0.0,0.0,0.0,0.0,0.0,0.0,0.0,0.0,0.0,0.0,0.0,0.0,0.0,0.0,0.0,0.0,0.0,0.0,0.0,0.0,0.0,0.0,0.0,0.0,0.0,0.0,0.0,0.0,0.0,0.0,0.0,0.0,0.0,-0.281,-1.0849,-1.1778,-1.2076,-1.24,-1.2528,-1.2508,-1.2508,-1.2508,-1.2501,-1.2501,-1.2501,-1.2501,-1.2501,-1.2501,-1.2501,-1.2501,-1.2525,-1.2457,-1.245,-1.1985,-1.1682,-1.153,-1.1549,-1.1626,0.0,0.0,0.0,0.0,0.0,0.0,0.0,0.0,0.0,0.0,0.0,0.0,0.0,0.0,0.0,0.0,0.0,0.0,0.0,0.0,0.0,0.0,0.0,0.0,0.0,0.0,0.0,0.0,0.0,0.0,0.0,0.0,0.0,0.0,0.0,0.0,0.0,0.0,0.0,0.0,0.0,0.0,0.0,0.0,0.0,0.0,0.0,0.0,0.0,0.0,0.0,0.0,0.0,0.0,0.0,0.0,0.0,0.0,0.0,0.0,0.0,0.0,0.0,0.0,0.0,0.0,0.0,0.0,0.0,0.0,0.0,0.0,0.0,0.0,0.0,0.0,0.0,0.0,0.0,0.0,0.0,0.0,0.0,0.0,-0.1877,-0.7221,-0.7985,-0.9071,-1.2096,-1.2542,-1.2522,-1.2522,-1.2508,-1.2501,-1.2501,-1.2501,-1.2501,-1.2501,-1.2501,-1.2501,-1.2501,-1.2501,-1.2501,-1.2501,-1.2519,-1.2553,-1.2456,-1.1837,-1.1537,-1.1549,-1.164,-1.1619,0.0,0.0,0.0,0.0,0.0,0.0,0.0,0.0,0.0,0.0,0.0,0.0,0.0,0.0,0.0,0.0,0.0,0.0,0.0,0.0,0.0,0.0,0.0,0.0,0.0,0.0,0.0,0.0,0.0,0.0,0.0,0.0,0.0,0.0,0.0,0.0,0.0,0.0,0.0,0.0,0.0,0.0,0.0,0.0,0.0,0.0,0.0,0.0,0.0,0.0,0.0,0.0,0.0,0.0,0.0,0.0,0.0,0.0,0.0,0.0,0.0,0.0,0.0,0.0,0.0,0.0,0.0,0.0,0.0,0.0,0.0,0.0,0.0,0.0,0.0,0.0,0.0,0.0,0.0,0.0,0.0,0.0,0.0,0.0,-0.2811,-1.1173,-1.2569,-1.2535,-1.2535,-1.2515,-1.2501,-1.2501,-1.2501,-1.2501,-1.2501,-1.2501,-1.2501,-1.2501,-1.2501,-1.2501,-1.2501,-1.2501,-1.2481,-1.2433,-1.2443,-1.2442,-1.2141,-1.173,-1.161,-1.1619,-1.1619,-1.1599,0.0,0.0,0.0,0.0,0.0,0.0,0.0,0.0,0.0,0.0,0.0,0.0,0.0,0.0,0.0,0.0,0.0,0.0,0.0,0.0,0.0,0.0,0.0,0.0,0.0,0.0,0.0,0.0,0.0,0.0,0.0,0.0,0.0,0.0,0.0,0.0,0.0,0.0,0.0,0.0,0.0,0.0,0.0,0.0,0.0,0.0,0.0,0.0,0.0,0.0,0.0,0.0,0.0,0.0,0.0,0.0,0.0,0.0,0.0,0.0,0.0,0.0,0.0,0.0,0.0,0.0,0.0,0.0,0.0,0.0,0.0,0.0,-0.0,-0.0313,-0.0312,-0.0312,-0.0312,-0.0316,-0.0319,-0.0,-0.0159,-0.0317,-0.0313,-0.0311,-0.3108,-1.1274,-1.2522,-1.2501,-1.2501,-1.2501,-1.2501,-1.2501,-1.2501,-1.2501,-1.2501,-1.2501,-1.2501,-1.2501,-1.2501,-1.2501,-1.2501,-1.2501,-1.2433,-1.245,-1.2449,-1.2141,-1.153,-1.1524,-1.1603,-1.1613,-1.1613,-1.1708,0.0,0.0,0.0,0.0,0.0,0.0,0.0,0.0,0.0,0.0,0.0,0.0,0.0,0.0,0.0,0.0,0.0,0.0,0.0,0.0,0.0,0.0,0.0,0.0,0.0,0.0,0.0,0.0,0.0,0.0,0.0,0.0,0.0,0.0,0.0,0.0,0.0,0.0,0.0,0.0,0.0,0.0,0.0,0.0,0.0,0.0,0.0,0.0,0.0,0.0,0.0,0.0,0.0,0.0,0.0,0.0,0.0,0.0,0.0,0.0,0.0,0.0,0.0,0.0,0.0,0.0,0.0,0.0,0.0,0.0,0.0,0.0,-0.1561,-0.7521,-0.91,-0.9095,-0.9095,-0.8973,-0.7248,-0.1099,-0.487,-0.8978,-0.91,-0.9075,-0.9848,-1.2076,-1.2522,-1.2501,-1.2501,-1.2501,-1.2501,-1.2501,-1.2501,-1.2501,-1.2501,-1.2501,-1.2501,-1.2501,-1.2501,-1.2501,-1.2501,-1.2501,-1.2433,-1.245,-1.2135,-1.1804,-1.159,-1.1549,-1.1619,-1.166,-1.1605,-1.4506,0.0,0.0,0.0,0.0,0.0,0.0,0.0,0.0,0.0,0.0,0.0,0.0,0.0,0.0,0.0,0.0,0.0,0.0,0.0,0.0,0.0,0.0,0.0,0.0,0.0,0.0,0.0,0.0,0.0,0.0,0.0,0.0,0.0,0.0,0.0,0.0,0.0,0.0,0.0,0.0,0.0,0.0,0.0,0.0,0.0,0.0,0.0,0.0,0.0,0.0,0.0,0.0,0.0,0.0,0.0,0.0,0.0,0.0,0.0,0.0,0.0,0.0,0.0,0.0,0.0,-0.2504,-0.5165,-0.5165,-0.5162,-0.5156,-0.5156,-0.5153,-0.6403,-1.1305,-1.2569,-1.2562,-1.2562,-1.2562,-1.1125,-0.6088,-0.9236,-1.242,-1.2562,-1.2542,-1.2528,-1.2528,-1.2515,-1.2501,-1.2501,-1.2501,-1.2501,-1.2501,-1.2501,-1.2501,-1.2501,-1.2501,-1.2501,-1.2501,-1.2501,-1.2501,-1.2501,-1.2447,-1.2484,-1.2449,-1.1837,-1.316,-1.6349,-1.319,-1.3286,-1.631,-1.6327,-1.867,0.0,0.0,0.0,0.0,0.0,0.0,0.0,0.0,0.0,0.0,0.0,0.0,0.0,0.0,0.0,0.0,0.0,0.0,0.0,0.0,0.0,0.0,0.0,0.0,0.0,0.0,0.0,0.0,0.0,0.0,0.0,0.0,0.0,0.0,0.0,0.0,0.0,0.0,0.0,0.0,0.0,0.0,0.0,0.0,0.0,0.0,0.0,0.0,0.0,0.0,0.0,0.0,0.0,0.0,0.0,0.0,0.0,0.0,0.0,0.0,-0.0159,-0.1099,-0.1407,-0.1407,-0.1405,-0.657,-1.244,-1.244,-1.2434,-1.2434,-1.2434,-1.2569,-1.2549,-1.2549,-1.2522,-1.2501,-1.2501,-1.2501,-1.2508,-1.2542,-1.2549,-1.2535,-1.2508,-1.2501,-1.2501,-1.2501,-1.2501,-1.2501,-1.2501,-1.2501,-1.2501,-1.2501,-1.2501,-1.2501,-1.2501,-1.2501,-1.2501,-1.2501,-1.2501,-1.2488,-1.2461,-1.2498,-1.2463,-1.2346,-1.2634,-1.6177,-2.292,-1.6141,-1.6291,-2.292,-2.2889,-2.2948,0.0,0.0,0.0,0.0,0.0,0.0,0.0,0.0,0.0,0.0,0.0,0.0,0.0,0.0,0.0,0.0,0.0,0.0,0.0,0.0,0.0,0.0,0.0,0.0,0.0,0.0,0.0,0.0,0.0,0.0,0.0,0.0,0.0,0.0,0.0,0.0,0.0,0.0,0.0,0.0,0.0,0.0,0.0,0.0,0.0,0.0,0.0,0.0,0.0,0.0,0.0,0.0,0.0,0.0,0.0,0.0,0.0,0.0,0.0,0.0,-0.1099,-0.7846,-1.0052,-1.0052,-1.0052,-1.1149,-1.2556,-1.2528,-1.2522,-1.2522,-1.2522,-1.2515,-1.2515,-1.2515,-1.2508,-1.2501,-1.2501,-1.2501,-1.2501,-1.2508,-1.2515,-1.2508,-1.2501,-1.2501,-1.2501,-1.2501,-1.2501,-1.2501,-1.2501,-1.2501,-1.2501,-1.2501,-1.2501,-1.2501,-1.2501,-1.2501,-1.2501,-1.2501,-1.2501,-1.2574,-1.2532,-1.2505,-1.231,-1.1791,-1.7662,-2.1418,-2.2889,-2.1368,-2.1508,-2.2889,-2.2855,-2.2913,0.0,0.0,-0.0856,-0.4435,-0.2684,0.0,0.0,-0.3367,-0.4087,-0.2893,-0.2491,-0.2221,-0.2311,-0.2316,-0.2312,-0.2616,-0.1215,0.0,0.0,0.0,0.0,0.0,0.0,0.0,0.0,0.0,0.0,0.0,0.0,0.0,0.0,0.0,0.0,0.0,0.0,0.0,0.0,0.0,0.0,0.0,0.0,0.0,0.0,0.0,0.0,0.0,0.0,0.0,0.0,0.0,0.0,0.0,0.0,0.0,0.0,0.0,0.0,0.0,0.0,-0.2671,-0.6893,-1.1149,-1.242,-1.2576,-1.2556,-1.2542,-1.2522,-1.2508,-1.2501,-1.2501,-1.2501,-1.2501,-1.2501,-1.2501,-1.2501,-1.2501,-1.2501,-1.2501,-1.2501,-1.2501,-1.2501,-1.2501,-1.2501,-1.2501,-1.2501,-1.2501,-1.2501,-1.2501,-1.2501,-1.2501,-1.2501,-1.2501,-1.2501,-1.2501,-1.2501,-1.2501,-1.2481,-1.2433,-1.2519,-1.256,-1.255,-1.5789,-1.7494,-1.7178,-2.0992,-2.2855,-2.2855,-2.2855,-2.2855,-2.2855,-2.2899,-2.2859,-0.038,0.0,-0.1715,-0.8661,-0.6039,-0.2156,0.0,0.0,0.0,-0.6461,-0.5765,-0.5454,-0.5431,-0.5371,-0.5471,-0.5997,-0.3782,-0.1783,-0.1014,-0.0932,0.0,-0.0,0.0,0.0,0.0,0.0,0.0,0.0,0.0,0.0,0.0,0.0,0.0,0.0,0.0,-0.0828,-0.2317,-0.2454,-0.195,-0.1134,-0.1134,-0.0809,0.0,0.0,0.0,-0.0161,-0.1771,-0.2399,-0.2375,-0.2375,-0.2362,-0.2187,-0.0632,-0.0952,-0.2377,-0.235,-0.234,-0.234,-0.2339,-0.6878,-1.2434,-1.2556,-1.2542,-1.2535,-1.2508,-1.2501,-1.2501,-1.2501,-1.2501,-1.2501,-1.2501,-1.2501,-1.2501,-1.2501,-1.2501,-1.2501,-1.2501,-1.2501,-1.2501,-1.2501,-1.2501,-1.2501,-1.2501,-1.2501,-1.2501,-1.2501,-1.2501,-1.2501,-1.2501,-1.2501,-1.2501,-1.2501,-1.2501,-1.2501,-1.2501,-1.2488,-1.244,-1.2525,-1.3937,-1.4703,-1.4547,-1.987,-2.2858,-2.2935,-2.2939,-2.2859,-2.2859,-2.2859,-2.2859,-2.2859,-2.2859,-2.2859,-0.1758,0.0,-0.1464,-0.7577,-0.8546,-0.7268,-0.5009,0.0,-0.8828,-0.8567,0.0,-0.9055,-0.8468,0.0,0.0,-0.8486,-0.884,-0.7993,-0.4464,-0.4036,-0.2936,-0.0301,0.0,0.0,0.0,0.0,0.0,0.0,0.0,0.0,0.0,0.0,0.0,0.0,0.0,-0.3641,-1.0969,-1.1009,-0.9235,-0.5584,-0.5584,-0.3646,0.0,0.0,0.0,-0.047,-0.7867,-1.1047,-1.1029,-1.1029,-1.1023,-1.037,-0.297,-0.4539,-1.1029,-1.1011,-1.1005,-1.0999,-1.1131,-1.1759,-1.2556,-1.2522,-1.2508,-1.2508,-1.2501,-1.2501,-1.2501,-1.2501,-1.2501,-1.2501,-1.2501,-1.2501,-1.2501,-1.2501,-1.2501,-1.2501,-1.2501,-1.2501,-1.2501,-1.2501,-1.2501,-1.2501,-1.2501,-1.2501,-1.2501,-1.2501,-1.2501,-1.2501,-1.2501,-1.2501,-1.2501,-1.2501,-1.2501,-1.2501,-1.2501,-1.2427,-1.2525,-1.2519,-1.9264,-2.2793,-2.1728,-2.2447,-2.2939,-2.2886,-2.2873,-2.2859,-2.2859,-2.2859,-2.2859,-2.2859,-2.2859,-2.2859,-0.5889,-0.3226,-0.0542,-0.3077,-0.6302,-0.8585,-0.7641,-0.8196,-0.8928,-0.9191,0.0,0.0,0.0,0.0,0.0,0.0,-0.9265,-0.8889,-0.7627,-0.7052,-0.5712,-0.3002,0.0,0.0,0.0,0.0,0.0,0.0,-0.5364,-0.281,-0.0167,-0.2518,-0.4858,-0.7176,-0.4936,-0.5375,-0.8917,-1.1255,-1.164,-0.9965,-0.9965,-0.8983,-0.7201,-0.7201,-0.7193,-0.7497,-1.0981,-1.2562,-1.2542,-1.2542,-1.2542,-1.2225,-0.858,-0.9376,-1.2569,-1.2549,-1.2542,-1.2542,-1.2528,-1.2522,-1.2522,-1.2508,-1.2501,-1.2501,-1.2501,-1.2501,-1.2501,-1.2501,-1.2501,-1.2501,-1.2501,-1.2501,-1.2501,-1.2501,-1.2501,-1.2501,-1.2501,-1.2501,-1.2501,-1.2501,-1.2501,-1.2501,-1.2501,-1.2501,-1.2501,-1.2501,-1.2501,-1.2501,-1.2501,-1.2501,-1.2501,-1.2501,-1.2454,-1.2574,-1.2574,-1.2491,-1.4462,-1.9187,-2.2092,-2.3458,-2.2907,-2.2881,-2.2859,-2.2859,-2.2859,-2.2859,-2.2859,-2.2859,-2.2916,-2.2917,-2.2929,-2.2916,-0.6361,-0.5434,-0.2592,-0.1545,-0.4452,-0.7921,-0.9072,-0.9184,-0.913,-0.9286,-0.9211,0.0,0.0,0.0,-0.894,-0.9076,0.0,-0.8916,-0.9161,-0.8815,-0.7842,-0.5988,0.0,0.0,0.0,0.0,0.0,0.0,0.0,-0.7181,-0.384,-0.553,-0.8536,-1.2694,-0.9662,-0.8071,-0.8003,-1.1076,-1.2427,-1.2576,-1.2576,-1.2576,-1.2576,-1.2576,-1.2562,-1.2542,-1.2542,-1.2522,-1.2501,-1.2501,-1.2501,-1.2501,-1.2501,-1.2515,-1.2535,-1.2508,-1.2501,-1.2501,-1.2501,-1.2501,-1.2501,-1.2501,-1.2501,-1.2501,-1.2501,-1.2501,-1.2501,-1.2501,-1.2501,-1.2501,-1.2501,-1.2501,-1.2501,-1.2501,-1.2501,-1.2501,-1.2501,-1.2501,-1.2501,-1.2501,-1.2501,-1.2501,-1.2501,-1.2501,-1.2501,-1.2501,-1.2501,-1.2501,-1.2501,-1.2481,-1.2461,-1.2461,-1.2532,-1.3428,-1.565,-1.5815,-1.8309,-2.4195,-2.3484,-2.2933,-2.2886,-2.2859,-2.2859,-2.2859,-2.2859,-2.2859,-2.2859,-2.2859,-2.2862,-2.2889,-2.2944,-2.2849,-0.0288,-0.5238,-0.9388,-0.5419,-0.4555,-0.5448,-0.8295,-0.9171,-0.9327,-0.9191,-0.9388,-0.9544,-0.9408,-0.9367,-0.9266,-0.8988,-0.9069,0.0,0.0,-0.8533,-0.8567,-0.8715,0.0,0.0,0.0,0.0,0.0,0.0,0.0,0.0,-1.2906,-0.9063,-0.8725,-1.3158,-1.2703,-1.2372,-1.2514,-1.2548,-1.2535,-1.2508,-1.2508,-1.2508,-1.2508,-1.2508,-1.2508,-1.2501,-1.2501,-1.2501,-1.2501,-1.2501,-1.2501,-1.2501,-1.2501,-1.2501,-1.2501,-1.2501,-1.2501,-1.2501,-1.2501,-1.2501,-1.2501,-1.2501,-1.2501,-1.2501,-1.2501,-1.2501,-1.2501,-1.2501,-1.2501,-1.2501,-1.2501,-1.2501,-1.2501,-1.2501,-1.2501,-1.2501,-1.2501,-1.2501,-1.2501,-1.2501,-1.2501,-1.2501,-1.2501,-1.2501,-1.2501,-1.2501,-1.2501,-1.2501,-1.2501,-1.2427,-1.2525,-1.2525,-1.2443,-1.569,-2.353,-2.4284,-2.4354,-2.4553,-2.352,-2.2889,-2.2873,-2.2859,-2.2859,-2.2859,-2.2859,-2.2859,-2.2859,-2.2859,-2.2862,-2.2875,-2.2889,-2.2896,0.0,0.0,-0.3291,-0.1881,-0.4502,-0.7737,-0.8667,-0.9211,-0.934,-0.9184,-0.9395,-0.9564,-0.9408,-0.93,-0.9164,-0.8967,-0.8811,-0.8554,0.0,-0.7868,-0.7868,-0.7978,-0.8201,0.0,0.0,0.0,0.0,0.0,0.0,0.0,0.0,-1.1914,-1.17,-1.315,-1.2936,-1.2775,-1.2668,-1.2623,-1.2515,-1.2501,-1.2501,-1.2501,-1.2501,-1.2501,-1.2501,-1.2501,-1.2501,-1.2501,-1.2501,-1.2501,-1.2501,-1.2501,-1.2501,-1.2501,-1.2501,-1.2501,-1.2501,-1.2501,-1.2501,-1.2501,-1.2501,-1.2501,-1.2501,-1.2501,-1.2501,-1.2501,-1.2501,-1.2501,-1.2501,-1.2501,-1.2501,-1.2501,-1.2501,-1.2501,-1.2501,-1.2501,-1.2501,-1.2501,-1.2501,-1.2501,-1.2501,-1.2501,-1.2501,-1.2501,-1.2501,-1.2501,-1.2447,-1.2567,-1.2567,-1.2484,-1.4629,-1.9951,-2.0469,-2.1672,-2.4357,-2.3914,-2.3523,-2.352,-2.316,-2.2875,-2.2873,-2.2859,-2.2859,-2.2859,-2.2859,-2.2916,-2.2876,-2.2876,-2.2914,-2.3,-2.7718,-2.986,0.0,0.0,0.0,0.0,-0.2943,-0.6363,-0.8493,-0.9195,-0.9329,-0.9307,-0.9593,-0.9741,-0.9513,-0.9359,-0.9198,-0.9043,-0.8716,-0.8269,0.0,-0.7407,-0.7305,-0.7353,-0.7782,0.0,0.0,0.0,0.0,0.0,0.0,0.0,0.0,0.0,-1.3363,-1.3288,-1.3125,-1.2963,-1.2813,-1.2657,-1.2556,-1.2501,-1.2501,-1.2501,-1.2501,-1.2501,-1.2501,-1.2501,-1.2501,-1.2501,-1.2501,-1.2501,-1.2501,-1.2501,-1.2501,-1.2501,-1.2501,-1.2501,-1.2501,-1.2501,-1.2501,-1.2501,-1.2501,-1.2501,-1.2501,-1.2501,-1.2501,-1.2501,-1.2515,-1.2569,-1.2542,-1.2515,-1.2569,-1.2542,-1.2501,-1.2501,-1.2501,-1.2501,-1.2501,-1.2501,-1.2501,-1.2501,-1.2501,-1.2501,-1.2501,-1.2474,-1.2454,-1.2454,-1.2553,-1.361,-1.6447,-1.6812,-1.8813,-2.4096,-2.4674,-2.4596,-2.4555,-2.3576,-2.2885,-2.2875,-2.2849,-2.2908,-2.2873,-2.2859,-2.2956,-2.2862,-2.2862,-2.2876,-2.2873,-2.5353,-2.6688,-2.6744,-3.1283,-3.3078]}]]